[[{"header":{"parameterUnit":"m.s-1","parameterCategory":1,"la1":30.6,"la2":28.766,"lo1":-90.7593,"lo2":-88.6598,"dy":0.0162,"dx":0.0183,"nx":116,"ny":114,"refTime":"2023-09-13T00:00:00:Z","depth":0,"parameterNumber":2,"parameterNumberName":"U-component_of_WINDS"},"data":[0.0,0.0,0.0,0.0,0.0,0.0,0.0,0.0,0.0,0.0,0.0,0.0,0.0,0.0,0.0,0.0,0.0,0.0,0.0,0.0,0.0,0.0,0.0,0.0,0.0,0.0,0.0,0.0,0.0,0.0,0.0,0.0,0.0,0.0,0.0,0.0,0.0,0.0,0.0,0.0,0.0,0.0,0.0,0.0,0.0,0.0,0.0,0.0,0.0,0.0,0.0,0.0,0.0,0.0,0.0,0.0,0.0,0.0,0.0,0.0,0.0,0.0,0.0,0.0,0.0,0.0,0.0,0.0,0.0,0.0,0.0,0.0,0.0,0.0,0.0,0.0,0.0,0.0,0.0,0.0,0.0,0.0,0.0,0.0,0.0,0.0,0.0,0.0,0.0,0.0,0.0,0.0,0.0,0.0,0.0,0.0,0.0,0.0,0.0,0.0,0.0,0.0,0.0,0.0,0.0,0.0,0.0,0.0,0.0,0.0,0.0,0.0,0.0,0.0,0.0,0.0,0.0,0.0,0.0,0.0,0.0,0.0,0.0,0.0,0.0,0.0,0.0,0.0,0.0,0.0,0.0,0.0,0.0,0.0,0.0,0.0,0.0,0.0,0.0,0.0,0.0,0.0,0.0,0.0,0.0,0.0,0.0,0.0,0.0,0.0,0.0,0.0,0.0,0.0,0.0,0.0,0.0,0.0,0.0,0.0,0.0,0.0,0.0,0.0,0.0,0.0,0.0,0.0,0.0,0.0,0.0,0.0,0.0,0.0,0.0,0.0,0.0,0.0,0.0,0.0,0.0,0.0,0.0,0.0,0.0,0.0,0.0,0.0,0.0,0.0,0.0,0.0,0.0,0.0,0.0,0.0,0.0,0.0,0.0,0.0,0.0,0.0,0.0,0.0,0.0,0.0,0.0,0.0,0.0,0.0,0.0,0.0,0.0,0.0,0.0,0.0,0.0,0.0,0.0,0.0,0.0,0.0,0.0,0.0,0.0,0.0,0.0,0.0,0.0,0.0,0.0,0.0,0.0,0.0,0.0,0.0,0.0,0.0,0.0,0.0,0.0,0.0,0.0,0.0,0.0,0.0,0.0,0.0,0.0,0.0,0.0,0.0,0.0,0.0,0.0,0.0,0.0,0.0,0.0,0.0,0.0,0.0,0.0,0.0,0.0,0.0,0.0,0.0,0.0,0.0,0.0,0.0,0.0,0.0,0.0,0.0,0.0,0.0,0.0,0.0,0.0,0.0,0.0,0.0,0.0,0.0,0.0,0.0,0.0,0.0,0.0,0.0,0.0,0.0,0.0,0.0,0.0,0.0,0.0,0.0,0.0,0.0,0.0,0.0,0.0,0.0,0.0,0.0,0.0,0.0,0.0,0.0,0.0,0.0,0.0,0.0,0.0,0.0,0.0,0.0,0.0,0.0,0.0,0.0,0.0,0.0,0.0,0.0,0.0,0.0,0.0,0.0,0.0,0.0,0.0,0.0,0.0,0.0,0.0,0.0,0.0,0.0,0.0,0.0,0.0,0.0,0.0,0.0,0.0,0.0,0.0,0.0,0.0,0.0,0.0,0.0,0.0,0.0,0.0,0.0,0.0,0.0,0.0,0.0,0.0,0.0,0.0,0.0,0.0,0.0,0.0,0.0,0.0,0.0,0.0,0.0,0.0,0.0,0.0,0.0,0.0,0.0,0.0,0.0,0.0,0.0,0.0,0.0,0.0,0.0,0.0,0.0,0.0,0.0,0.0,0.0,0.0,0.0,0.0,0.0,0.0,0.0,0.0,0.0,0.0,0.0,0.0,0.0,0.0,0.0,0.0,0.0,0.0,0.0,0.0,0.0,0.0,0.0,0.0,0.0,0.0,0.0,0.0,0.0,0.0,0.0,0.0,0.0,0.0,0.0,0.0,0.0,0.0,0.0,0.0,0.0,0.0,0.0,0.0,0.0,0.0,0.0,0.0,0.0,0.0,0.0,0.0,0.0,0.0,0.0,0.0,0.0,0.0,0.0,0.0,0.0,0.0,0.0,0.0,0.0,0.0,0.0,0.0,0.0,0.0,0.0,0.0,0.0,0.0,0.0,0.0,0.0,0.0,0.0,0.0,0.0,0.0,0.0,0.0,0.0,0.0,0.0,0.0,0.0,0.0,0.0,0.0,0.0,0.0,0.0,0.0,0.0,0.0,0.0,0.0,0.0,0.0,0.0,0.0,0.0,0.0,0.0,0.0,0.0,0.0,0.0,0.0,0.0,0.0,0.0,0.0,0.0,0.0,0.0,0.0,0.0,0.0,0.0,0.0,0.0,0.0,0.0,0.0,0.0,0.0,0.0,0.0,0.0,0.0,0.0,0.0,0.0,0.0,0.0,0.0,0.0,0.0,0.0,0.0,0.0,0.0,0.0,0.0,0.0,0.0,0.0,0.0,0.0,0.0,0.0,0.0,0.0,0.0,0.0,0.0,0.0,0.0,0.0,0.0,0.0,0.0,0.0,0.0,0.0,0.0,0.0,0.0,0.0,0.0,0.0,0.0,0.0,0.0,0.0,0.0,0.0,0.0,0.0,0.0,0.0,0.0,0.0,0.0,0.0,0.0,0.0,0.0,0.0,0.0,0.0,0.0,0.0,0.0,0.0,0.0,0.0,0.0,0.0,0.0,0.0,0.0,0.0,0.0,0.0,0.0,0.0,0.0,0.0,0.0,0.0,0.0,0.0,0.0,0.0,0.0,0.0,0.0,0.0,0.0,0.0,0.0,0.0,0.0,0.0,0.0,0.0,0.0,0.0,0.0,0.0,0.0,0.0,0.0,0.0,0.0,0.0,0.0,0.0,0.0,0.0,0.0,0.0,0.0,0.0,0.0,0.0,0.0,0.0,0.0,0.0,0.0,0.0,0.0,0.0,0.0,0.0,0.0,0.0,0.0,0.0,0.0,0.0,0.0,0.0,0.0,0.0,0.0,0.0,0.0,0.0,0.0,0.0,0.0,0.0,0.0,0.0,0.0,0.0,0.0,0.0,0.0,0.0,0.0,0.0,0.0,0.0,0.0,0.0,0.0,0.0,0.0,0.0,0.0,0.0,0.0,0.0,0.0,0.0,0.0,0.0,0.0,0.0,0.0,0.0,0.0,0.0,0.0,0.0,0.0,0.0,0.0,0.0,0.0,0.0,0.0,0.0,0.0,0.0,0.0,0.0,0.0,0.0,0.0,0.0,0.0,0.0,0.0,0.0,0.0,0.0,0.0,0.0,0.0,0.0,0.0,0.0,0.0,0.0,0.0,0.0,0.0,0.0,0.0,0.0,0.0,0.0,0.0,0.0,0.0,0.0,0.0,0.0,0.0,0.0,0.0,0.0,0.0,0.0,0.0,0.0,0.0,0.0,0.0,0.0,0.0,0.0,0.0,0.0,0.0,0.0,0.0,0.0,0.0,0.0,0.0,0.0,0.0,0.0,0.0,0.0,0.0,0.0,0.0,0.0,0.0,0.0,0.0,0.0,0.0,0.0,0.0,0.0,0.0,0.0,0.0,0.0,0.0,0.0,0.0,0.0,0.0,0.0,0.0,0.0,0.0,0.0,0.0,0.0,0.0,0.0,0.0,0.0,0.0,0.0,0.0,0.0,0.0,0.0,0.0,0.0,0.0,0.0,0.0,0.0,0.0,0.0,0.0,0.0,0.0,0.0,0.0,0.0,0.0,0.0,0.0,0.0,0.0,0.0,0.0,0.0,0.0,0.0,0.0,0.0,0.0,0.0,0.0,0.0,0.0,0.0,0.0,0.0,0.0,0.0,0.0,0.0,0.0,0.0,0.0,0.0,0.0,0.0,0.0,0.0,0.0,0.0,0.0,0.0,0.0,0.0,0.0,0.0,0.0,0.0,0.0,0.0,0.0,0.0,0.0,0.0,0.0,0.0,0.0,0.0,0.0,0.0,0.0,0.0,0.0,0.0,0.0,0.0,0.0,0.0,0.0,0.0,0.0,0.0,0.0,0.0,0.0,0.0,0.0,0.0,0.0,0.0,0.0,0.0,0.0,0.0,0.0,0.0,0.0,0.0,0.0,0.0,0.0,0.0,0.0,0.0,0.0,0.0,0.0,0.0,0.0,0.0,0.0,0.0,0.0,0.0,0.0,0.0,0.0,0.0,0.0,0.0,0.0,0.0,0.0,0.0,0.0,0.0,0.0,0.0,0.0,0.0,0.0,0.0,0.0,0.0,0.0,0.0,0.0,0.0,0.0,0.0,0.0,0.0,0.0,0.0,0.0,0.0,0.0,0.0,0.0,0.0,0.0,0.0,0.0,0.0,0.0,0.0,0.0,0.0,0.0,0.0,0.0,0.0,0.0,0.0,0.0,0.0,0.0,0.0,0.0,0.0,0.0,0.0,0.0,0.0,0.0,0.0,0.0,0.0,0.0,0.0,0.0,0.0,0.0,0.0,0.0,0.0,0.0,0.0,0.0,0.0,0.0,0.0,0.0,0.0,0.0,0.0,0.0,0.0,0.0,0.0,0.0,0.0,0.0,0.0,0.0,0.0,0.0,0.0,0.0,0.0,0.0,0.0,0.0,0.0,0.0,0.0,0.0,0.0,0.0,0.0,0.0,0.0,0.0,0.0,0.0,0.0,0.0,0.0,0.0,0.0,0.0,0.0,0.0,0.0,0.0,0.0,0.0,0.0,0.0,0.0,0.0,0.0,0.0,0.0,0.0,0.0,0.0,0.0,0.0,0.0,0.0,0.0,0.0,0.0,0.0,0.0,0.0,0.0,0.0,0.0,0.0,0.0,0.0,0.0,0.0,0.0,0.0,0.0,0.0,0.0,0.0,0.0,0.0,0.0,0.0,0.0,0.0,0.0,0.0,0.0,0.0,0.0,0.0,0.0,0.0,0.0,0.0,0.0,0.0,0.0,0.0,0.0,0.0,0.0,0.0,0.0,0.0,0.0,0.0,0.0,0.0,0.0,0.0,0.0,0.0,0.0,0.0,0.0,0.0,0.0,0.0,0.0,0.0,0.0,0.0,0.0,0.0,0.0,0.0,0.0,0.0,0.0,0.0,0.0,0.0,0.0,0.0,0.0,0.0,0.0,0.0,0.0,0.0,0.0,0.0,0.0,0.0,0.0,0.0,0.0,0.0,0.0,0.0,0.0,0.0,0.0,0.0,0.0,0.0,0.0,0.0,0.0,0.0,0.0,0.0,0.0,0.0,0.0,0.0,0.0,0.0,0.0,0.0,0.0,0.0,0.0,0.0,0.0,0.0,0.0,0.0,0.0,0.0,0.0,0.0,0.0,0.0,0.0,0.0,0.0,0.0,0.0,0.0,0.0,0.0,0.0,0.0,0.0,0.0,0.0,0.0,0.0,0.0,0.0,0.0,0.0,0.0,0.0,0.0,0.0,0.0,0.0,0.0,0.0,0.0,0.0,0.0,0.0,0.0,0.0,0.0,0.0,0.0,0.0,0.0,0.0,0.0,0.0,0.0,0.0,0.0,0.0,0.0,0.0,0.0,0.0,0.0,0.0,0.0,0.0,0.0,0.0,0.0,0.0,0.0,0.0,0.0,0.0,0.0,0.0,0.0,0.0,0.0,0.0,0.0,0.0,0.0,0.0,0.0,0.0,0.0,0.0,0.0,0.0,0.0,0.0,0.0,0.0,0.0,0.0,0.0,0.0,0.0,0.0,0.0,0.0,0.0,0.0,0.0,0.0,0.0,0.0,0.0,0.0,0.0,0.0,0.0,0.0,0.0,0.0,0.0,0.0,0.0,0.0,0.0,0.0,0.0,0.0,0.0,0.0,0.0,0.0,0.0,0.0,0.0,0.0,0.0,0.0,0.0,0.0,0.0,0.0,0.0,0.0,0.0,0.0,0.0,0.0,0.0,0.0,0.0,0.0,0.0,0.0,0.0,0.0,0.0,0.0,0.0,0.0,0.0,0.0,0.0,0.0,0.0,0.0,0.0,0.0,0.0,0.0,0.0,0.0,0.0,0.0,0.0,0.0,0.0,0.0,0.0,0.0,0.0,0.0,0.0,0.0,0.0,0.0,0.0,0.0,0.0,0.0,0.0,0.0,0.0,0.0,0.0,0.0,0.0,0.0,0.0,0.0,0.0,0.0,0.0,0.0,0.4579,0.0,0.0,0.0,0.0,0.0,0.0,0.0,0.0,0.0,0.0,0.0,0.0,0.0,0.0,0.0,0.0,0.0,0.0,0.0,0.0,0.0,0.0,0.0,0.0,0.0,0.0,0.0,0.0,0.0,0.0,0.0,0.0,0.0,0.0,0.0,0.0,0.0,0.0,0.0,0.0,0.0,0.0,0.0,0.0,0.0,0.0,0.0,0.0,0.0,0.0,0.0,0.0,0.0,0.0,0.0,0.0,0.0,0.0,0.0,0.0,0.0,0.0,0.0,0.0,0.0,0.0,0.0,0.0,0.0,0.0,0.0,0.0,0.0,0.0,0.0,0.0,0.0,0.0,0.0,0.0,0.0,0.0,0.0,0.0,0.0,0.0,0.0,0.0,0.0,0.0,0.0,0.0,0.0,0.0,0.0,0.0,0.0,0.0,0.0,0.0,0.0,0.0,0.0,0.0,0.0,0.0,0.0,0.0,0.0,0.0,0.0,0.0,0.0,0.0,0.0,0.0,0.4306,0.0,0.0,0.0,0.0,0.0,0.0,0.0,0.0,0.0,0.0,0.0,0.0,0.0,0.0,0.0,0.0,0.0,0.0,0.0,0.0,0.0,0.0,0.0,0.0,0.0,0.0,0.0,0.0,0.0,0.0,0.0,0.0,0.0,0.0,0.0,0.0,0.0,0.0,0.0,0.0,0.0,0.0,0.0,0.0,0.0,0.0,0.0,0.0,0.0,0.0,0.0,0.0,0.0,0.0,0.0,0.0,0.0,0.0,0.0,0.0,0.0,0.0,0.0,0.0,0.0,0.0,0.0,0.0,0.0,0.0,0.0,0.0,0.0,0.0,0.0,0.0,0.0,0.0,0.0,0.0,0.0,0.0,0.0,0.0,0.0,0.0,0.0,0.0,0.0,0.0,0.0,0.0,0.0,0.0,0.0,0.0,0.0,0.0,0.0,0.0,0.0,0.0,0.0,0.0,0.0,0.0,0.0,0.0,0.4835,0.4549,0.4097,0.4097,0.4097,0.4104,0.4153,0.4197,0.4184,0.406,0.0,0.0,0.0,0.0,0.0,0.0,0.0,0.0,0.0,0.0,0.0,0.0,0.0,0.0,0.0,0.0,0.0,0.0,0.0,0.0,0.0,0.0,0.0,0.0,0.0,0.0,0.0,0.0,0.0,0.0,0.0,0.0,0.0,0.0,0.0,0.0,0.0,0.0,1.7006,1.6747,1.6614,1.662,1.5833,0.0,0.0,0.0,0.0,0.0,0.0,0.0,0.0,0.0,0.0,0.0,0.0,0.0,0.0,0.0,0.0,0.0,0.0,0.0,0.0,0.0,0.0,0.0,0.0,0.0,0.0,0.0,0.0,0.0,0.0,0.0,0.0,0.0,0.0,0.0,0.0,0.0,0.0,0.0,0.0,0.0,0.0,0.0,0.5893,0.6658,0.0,0.0,0.0,0.0,0.0,0.0,0.0,0.0,0.0,0.0,0.0,0.0,0.0,0.5635,0.5109,0.514,0.4876,0.4271,0.4452,0.4511,0.4457,0.4457,0.4457,0.4399,0.4294,0.0,0.4194,0.4174,0.0,0.0,0.0,0.0,0.0,0.0,0.0,0.0,0.0,0.0,0.0,0.0,0.0,0.0,0.0,0.0,0.0,0.0,0.0,0.0,0.0,0.0,0.0,0.0,0.0,0.0,0.0,0.0,0.0,0.0,0.0,0.0,0.0,0.0,0.0,0.0,1.6661,1.7498,1.8564,1.8072,1.8108,1.8549,1.8355,1.722,1.5407,1.5434,0.0,0.0,0.0,0.0,0.0,0.0,0.0,0.0,0.0,0.0,0.0,0.0,0.0,0.0,0.0,0.0,0.0,0.0,0.0,0.0,0.0,0.0,0.0,0.0,0.0,0.0,0.0,0.0,0.0,0.0,0.0,0.0,0.0,0.0,0.0,0.0,0.0,0.0,0.0,0.6527,0.6479,0.6778,0.7183,0.7418,0.0,0.0,0.0,0.0,0.0,0.0,0.0,0.0,0.0,0.6347,0.5734,0.5498,0.5654,0.5436,0.5428,0.5543,0.5241,0.5108,0.5204,0.4816,0.4636,0.4714,0.4653,0.4569,0.4549,0.4298,0.4197,0.419,0.0,0.0,0.0,0.0,0.4423,0.4602,0.0,0.0,0.0,0.0,0.0,0.0,0.0,0.0,0.0,0.0,0.0,0.0,0.0,0.0,0.0,2.0459,0.0,0.0,0.0,0.0,0.0,0.0,0.0,0.0,0.0,0.0,0.0,0.0,1.7877,1.8637,1.969,1.9281,1.9391,1.9874,2.0158,1.9163,1.7257,1.7228,1.6636,0.0,0.0,0.0,0.0,0.0,0.0,0.0,0.0,0.0,0.0,0.0,0.0,0.0,0.0,0.0,0.0,0.0,0.0,0.0,0.0,0.0,0.0,0.0,0.0,0.0,0.0,0.0,0.0,0.0,0.0,0.0,0.0,0.0,0.0,0.0,0.0,0.0,0.0,0.6626,0.6824,0.69,0.7453,0.7846,0.0,0.0,0.0,0.0,0.0,0.0,0.7727,0.6762,0.6385,0.6873,0.6067,0.5806,0.6172,0.5835,0.5853,0.6146,0.5634,0.5425,0.5556,0.4979,0.4813,0.4918,0.4918,0.4918,0.4894,0.4502,0.4365,0.4371,0.4494,0.448,0.4388,0.4623,0.4738,0.4819,0.0,0.0,0.0,0.0,0.0,0.0,0.0,0.0,0.0,0.0,0.0,0.0,0.0,0.0,2.0934,2.0094,1.9694,1.9017,0.0,0.0,0.0,0.0,0.0,0.0,0.0,0.0,0.0,1.8609,1.966,1.9989,1.969,1.969,1.9874,2.028,2.028,1.9909,1.9259,1.9263,1.8858,1.8067,0.0,0.0,0.0,0.0,0.0,0.0,0.0,0.0,0.0,0.0,0.0,0.0,0.0,0.0,0.0,0.0,0.0,0.0,0.0,0.0,0.0,0.0,0.0,0.0,0.0,0.0,0.0,0.0,0.0,0.0,0.0,0.0,0.0,0.0,0.0,0.0,0.0,0.0,0.0,0.7165,0.7543,0.0,0.0,0.0,0.0,0.7881,0.7846,0.767,0.7357,0.7252,0.7186,0.7079,0.7048,0.675,0.6177,0.619,0.5783,0.5015,0.4955,0.4961,0.4968,0.4908,0.4911,0.4918,0.4918,0.4918,0.4918,0.4894,0.4884,0.487,0.4731,0.4765,0.487,0.4738,0.4867,0.5108,0.0,0.0,0.0,0.0,0.0,0.0,0.0,0.0,0.0,0.0,0.0,0.0,0.0,2.2,2.2031,2.1756,2.1458,2.0827,1.9705,0.0,0.0,0.0,0.0,0.0,0.0,0.0,1.8459,1.8691,1.9179,1.9485,1.969,1.9369,1.9579,2.0314,2.0616,2.0783,2.081,2.0528,1.9894,1.8983,1.8438,1.7296,0.0,0.0,0.0,0.0,0.0,0.0,0.0,0.0,0.0,0.0,0.0,0.0,0.0,0.0,0.0,0.0,0.0,0.0,0.0,0.0,0.0,0.0,0.0,0.0,0.0,0.0,0.0,0.0,0.0,0.0,0.0,0.0,0.0,0.0,0.0,0.0,0.0,0.7939,0.8086,0.0,0.8402,0.8417,0.835,0.8239,0.8117,0.8211,0.8497,0.784,0.7654,0.8057,0.7061,0.6924,0.7709,0.7171,0.7294,0.7957,0.7478,0.7014,0.6533,0.6104,0.5609,0.5203,0.5203,0.5203,0.5209,0.5308,0.5179,0.4921,0.4958,0.5006,0.506,0.5104,0.5189,0.5294,0.0,0.0,0.0,0.0,0.0,0.0,0.0,0.0,0.0,0.0,0.0,2.2447,2.2665,2.2698,2.2695,2.2695,2.2463,2.1715,2.0329,0.0,0.0,0.0,0.0,0.0,0.0,1.8346,1.9037,1.9243,1.9334,1.9485,1.969,1.9332,1.9579,2.0314,2.0797,2.1213,2.1582,2.1477,2.103,2.0329,1.9967,1.8701,1.697,0.0,0.0,0.0,0.0,0.0,0.0,0.0,0.0,0.0,0.0,0.0,0.0,0.0,0.0,0.0,0.0,0.0,0.0,0.0,0.0,0.0,0.0,0.0,0.0,0.0,0.0,0.0,0.0,0.0,0.0,0.0,0.0,0.0,0.0,0.0,0.8134,0.8371,0.8455,0.8543,0.8664,0.8645,0.8714,0.8835,0.8731,0.8912,0.9365,0.8661,0.8528,0.9098,0.821,0.811,0.8948,0.8459,0.8623,0.9383,0.8879,0.8392,0.7897,0.7442,0.6894,0.6431,0.6491,0.6483,0.6376,0.6211,0.6022,0.5671,0.545,0.5355,0.5369,0.5471,0.5508,0.5525,0.0,0.0,0.0,0.0,0.0,0.0,0.0,0.0,0.0,0.0,2.1666,2.1735,2.2373,2.2594,2.2695,2.2695,2.2436,2.1513,1.9677,1.9508,0.0,0.0,0.0,0.0,1.9358,1.9403,1.9694,2.028,2.028,2.0089,1.969,1.969,1.9909,2.0314,2.0797,2.1213,2.1628,2.2077,2.2282,2.2169,2.1088,1.9968,1.8845,0.0,0.0,0.0,0.0,0.0,0.0,0.0,0.0,0.0,0.0,0.0,0.0,0.0,0.0,0.0,0.0,0.0,0.0,0.0,0.0,0.0,0.0,0.0,0.0,0.0,0.0,0.0,0.0,0.0,0.0,0.0,0.0,0.0,0.7666,0.8057,0.8438,0.8436,0.8685,0.8948,0.9182,0.9214,0.9351,0.9667,0.9721,0.9722,0.9719,0.9719,0.9853,1.0134,1.0421,1.0316,0.9716,0.9971,0.9672,0.8894,0.8894,0.8894,0.8824,0.8824,0.8705,0.8446,0.8662,0.8631,0.8383,0.7631,0.7358,0.7216,0.623,0.58,0.58,0.58,0.5803,0.581,0.0,0.0,0.0,0.0,0.0,0.0,0.0,0.0,0.0,0.0,2.097,2.1326,2.1274,2.2118,2.2625,2.2426,2.2349,2.186,2.08,0.0,0.0,0.0,0.0,0.0,1.8879,1.9669,1.9974,1.9874,1.9874,1.9818,1.969,1.969,1.9909,2.0314,2.0449,2.0748,2.1181,2.1598,2.1794,2.1777,2.1814,2.1149,2.0021,0.0,0.0,0.0,0.0,0.0,0.0,0.0,0.0,0.0,0.0,0.0,0.0,0.0,0.0,0.0,0.0,0.0,0.0,0.0,0.0,0.0,0.0,0.0,0.0,0.0,0.0,0.0,0.0,0.0,0.0,0.0,0.0,1.0435,0.8666,0.86,0.8781,0.8949,0.9288,0.9459,0.9531,0.956,0.9625,0.9667,1.014,1.0379,1.0334,1.0521,1.0668,1.0748,1.0236,1.018,1.0659,1.025,1.0309,1.0723,1.0723,1.0372,0.9748,0.9748,0.9355,0.8667,0.8798,0.8788,0.8682,0.8628,0.8143,0.7329,0.6198,0.58,0.58,0.58,0.5871,0.5949,0.0,0.0,0.0,0.0,0.0,0.0,0.0,0.0,0.0,0.0,2.0968,2.1569,2.1718,2.244,2.284,2.2686,2.2443,2.1854,2.0771,0.0,0.0,0.0,0.0,1.9233,1.9641,2.0247,2.0499,2.0243,2.0243,2.0243,2.0243,2.0243,2.0364,2.0583,2.0781,2.1007,2.1275,2.1705,2.1899,2.1928,2.218,2.1597,2.0525,2.0261,1.9349,1.8192,1.8146,1.7927,1.7545,1.6984,0.0,0.0,0.0,0.0,0.0,0.0,0.0,0.0,0.0,0.0,0.0,0.0,0.0,0.0,0.0,0.0,0.0,0.0,0.0,0.0,0.0,0.0,0.0,0.0,1.1081,1.0698,0.9938,0.9472,0.922,0.9405,0.9603,0.9741,0.9857,0.9982,1.0117,1.0214,1.064,1.0935,1.0935,1.1082,1.1122,1.0995,1.075,1.0814,1.1176,1.1089,1.1288,1.1797,1.1797,1.1507,1.1003,1.1003,1.0651,1.0114,1.0224,1.0207,1.0055,0.9442,0.8802,0.0,0.0,0.0,0.0,0.0,0.6051,0.6122,0.0,0.0,0.0,0.0,0.0,0.0,0.0,0.0,0.0,0.0,0.0,2.2097,2.285,2.3099,2.3189,2.3141,2.2565,2.1566,0.0,0.0,0.0,1.9484,1.9751,2.0256,2.0975,2.0991,2.0991,2.0991,2.0991,2.0991,2.0991,2.0991,2.0991,2.1039,2.1368,2.1521,2.1552,2.2032,2.2209,2.2225,2.2282,2.1675,2.0742,2.1116,2.0406,1.9235,1.9491,1.9177,1.8548,1.8002,0.0,0.0,0.0,0.0,0.0,0.0,0.0,0.0,0.0,0.0,0.0,0.0,0.0,0.0,0.0,0.0,0.0,0.0,0.0,0.0,0.0,0.0,0.0,0.0,1.0926,1.051,1.1424,1.076,1.0078,0.9932,0.9938,1.0079,1.0245,1.0548,1.0782,1.1049,1.1309,1.1476,1.1476,0.0,0.0,0.0,0.0,1.1744,1.1476,1.2024,1.2305,1.2305,1.2305,1.2305,1.2305,1.2305,1.2164,1.1937,1.2191,1.2078,1.1644,1.0112,0.9311,0.9027,0.8021,0.7111,0.6359,0.6345,0.6281,0.6325,0.0,0.0,0.0,0.0,0.0,0.0,0.0,0.0,0.0,2.0878,2.1442,2.2008,2.2546,2.2968,2.3093,2.2822,2.1952,2.1008,0.0,0.0,1.8946,2.0228,2.0102,2.0318,2.0991,2.0991,2.0991,2.0991,2.0991,2.0991,2.0991,2.0991,2.0991,2.0991,2.1086,2.1134,2.115,2.1568,2.1735,2.1764,2.2152,2.2153,2.1916,2.1637,2.1332,2.1021,2.0369,2.0044,1.9783,1.8827,1.8239,1.7876,1.7698,0.0,0.0,0.0,0.0,0.0,0.0,0.0,0.0,0.0,0.0,0.0,0.0,0.0,0.0,0.0,0.0,0.0,0.0,0.0,0.0,1.332,1.3287,1.326,1.3168,1.2956,1.2508,1.1512,1.1566,1.1553,1.1168,1.1177,1.1296,1.1349,1.1617,1.1784,1.1784,1.1784,1.1757,1.1703,1.181,1.1844,1.1784,1.2131,1.2305,1.2305,0.0,0.0,1.2305,1.2305,1.2271,1.2225,1.2278,1.1816,1.1015,1.0616,0.9616,0.8134,0.6994,0.6563,0.6417,0.6302,0.6413,0.6603,0.0,0.0,0.0,0.0,0.0,0.0,0.0,0.0,0.0,0.0,2.0914,2.1435,2.1872,2.2106,2.2265,2.2352,2.1409,0.0,0.0,1.9733,1.9848,2.0722,2.077,2.0949,2.129,2.1524,2.1661,2.1661,2.1661,2.1826,2.2219,2.2219,2.2401,2.2747,2.2747,2.2747,2.2762,2.2965,2.3056,2.3073,2.3317,2.3173,2.2772,2.2166,2.1794,2.1582,2.1368,2.1023,2.0569,2.0042,1.9429,1.8882,1.8811,1.852,1.804,0.0,0.0,0.0,0.0,0.0,0.0,0.0,0.0,0.0,0.0,0.0,0.0,0.0,0.0,1.4077,0.0,0.0,1.3873,1.3907,1.3701,1.383,1.4438,1.4132,1.3501,1.2444,1.2487,1.2244,1.1474,1.155,1.1673,1.1657,1.1924,1.2084,1.2084,1.2225,1.2238,1.2091,1.2378,1.2465,1.2385,1.2605,1.2759,1.2759,1.2759,1.2759,1.2759,1.2759,1.2759,1.2759,1.2759,1.2446,1.1889,1.0784,0.9513,0.8095,0.6984,0.6525,0.6576,0.6508,0.6573,0.6702,0.0,0.0,0.0,0.0,0.0,0.0,0.0,0.0,0.0,0.0,2.0474,2.0939,2.1351,2.129,2.1268,0.0,0.0,0.0,0.0,2.0544,2.0825,2.1228,2.1568,2.1735,2.1735,2.2106,2.2378,2.2513,2.2513,2.2885,2.3613,2.3613,2.3917,2.4506,2.4506,2.4506,2.4506,2.4506,2.4506,2.4506,2.4506,2.412,2.3528,2.2801,2.2195,2.1764,2.2061,2.1705,2.1086,2.0926,2.0398,1.9848,1.9876,1.9982,1.9738,1.8254,1.8986,0.0,0.0,0.0,0.0,0.0,0.0,0.0,0.0,0.0,1.6003,1.4611,1.4519,1.4592,1.4592,1.4066,1.385,1.4568,1.4144,1.4224,1.5661,1.5251,1.4488,1.3692,1.3375,1.2825,1.193,1.2298,1.2536,1.2663,1.2684,1.2702,1.2757,1.2851,1.2726,1.2485,1.2959,1.3093,1.2916,1.3086,1.3213,1.3213,1.3213,1.3213,1.3213,1.3213,1.3213,1.3206,1.2969,1.2883,1.2724,1.0805,0.9514,0.8704,0.7844,0.7282,0.7115,0.6836,0.6763,0.6803,0.0,0.0,0.0,0.0,0.0,0.0,0.0,0.0,0.0,0.0,0.0,0.0,0.0,0.0,0.0,0.0,0.0,0.0,2.0069,2.0735,2.1417,2.2118,2.2209,2.2209,2.2209,2.2265,2.2632,2.3274,2.3274,2.3646,2.4388,2.4388,2.4438,2.4506,2.4506,2.4506,2.4506,2.4506,2.4506,2.4506,2.4506,2.4455,2.432,2.3562,2.284,2.2163,2.1794,2.1628,2.1413,2.0649,2.0314,2.0266,2.0504,2.0609,2.046,1.9824,0.0,2.0302,1.7933,1.7036,0.0,1.7364,1.7368,1.7035,0.0,0.0,1.6749,1.5526,1.5892,1.6407,1.6407,1.6355,1.6294,1.6391,1.6338,1.6475,1.7096,1.7108,1.6817,1.6249,1.5095,1.4063,1.3531,1.43,1.4944,1.5332,1.4521,1.4162,1.4513,1.3669,1.314,1.3106,1.3173,1.3193,1.316,1.3193,1.3213,1.3213,1.3213,1.3213,1.3213,1.3213,1.3213,1.3127,1.2234,1.1908,1.176,1.0739,1.0315,1.0173,1.0203,0.9511,0.8549,0.7289,0.6983,0.7092,0.0,0.0,0.0,0.0,0.0,0.0,0.0,0.0,0.0,0.0,0.0,0.0,0.0,0.0,0.0,0.0,0.0,0.0,2.0477,2.0951,2.1606,2.2476,2.2388,2.231,2.231,2.2733,2.3088,2.3393,2.3816,2.4408,2.5135,2.5135,2.5355,2.5778,2.5778,2.5778,2.5778,2.5778,2.5778,2.5778,2.5778,2.5507,2.5101,2.4797,2.3968,2.2789,2.1754,2.1176,0.0,0.0,2.0137,2.0297,2.0595,2.0768,2.0775,2.0555,2.0458,0.0,1.8782,0.0,0.0,0.0,1.9008,1.9105,1.8756,1.8862,1.8625,1.7226,1.7234,1.73,1.677,1.6504,1.6515,0.0,1.6889,1.6973,1.7656,1.7244,1.6884,1.6618,1.6069,1.5409,1.4657,1.5209,1.5607,1.5756,1.5591,1.5543,1.5687,1.4904,1.4395,1.4395,1.3947,1.3721,1.3721,1.3721,1.3721,1.3721,1.3721,1.3721,1.3721,1.3721,1.3721,1.3721,1.3296,1.3124,1.3048,1.196,1.1488,1.1409,1.0828,1.0269,0.974,0.8545,0.7698,0.7139,0.0,0.0,0.0,0.0,0.0,0.0,0.0,0.0,0.0,0.0,0.0,0.0,0.0,0.0,0.0,0.0,0.0,0.0,0.0,2.1083,2.1651,2.266,2.2436,2.231,2.231,2.3021,2.3494,2.3697,2.4425,2.5169,2.5913,2.5913,2.6184,2.6691,2.6691,2.6691,2.6691,2.6691,2.6691,2.6691,2.6691,2.6387,2.5879,2.5693,2.4678,2.3224,2.1955,2.1094,0.0,0.0,2.0049,2.0297,2.0595,2.0907,2.1044,2.0724,2.0116,1.9493,1.9198,0.0,0.0,1.9678,2.0124,2.0409,2.0415,2.0141,1.9552,1.8392,1.8095,1.7823,1.7194,1.6804,1.6807,1.7451,1.7295,1.7305,1.792,1.7432,1.6991,1.6991,1.6991,1.6715,1.6018,1.6358,1.6663,1.6946,1.6917,1.6953,1.7141,1.6316,1.5828,1.5828,1.5022,1.4573,1.4573,1.425,1.4088,1.4088,1.4088,1.4088,1.4088,1.4088,1.4088,1.4088,1.4088,1.4088,1.4004,1.3118,1.2766,1.2681,1.1906,1.1386,1.095,1.0178,0.9056,0.8009,0.0,0.0,0.0,0.0,0.0,0.0,0.0,0.0,0.0,0.0,0.0,0.0,0.0,0.0,0.0,0.0,0.0,0.0,0.0,2.1083,2.1651,2.266,2.2436,2.231,2.231,2.3021,2.3748,2.4472,2.5203,2.5947,2.6657,2.6657,2.6674,2.6691,2.6691,2.6691,2.6691,2.6691,2.6691,2.6691,2.6691,2.6674,2.659,2.5879,2.4678,2.3291,2.2547,0.0,0.0,0.0,2.0066,2.0335,2.0632,2.1171,0.0,2.0259,1.9144,1.8397,0.0,0.0,1.9137,1.9685,1.973,1.9787,2.0294,1.9458,1.867,1.8564,1.8281,1.8008,1.7998,1.7969,1.7959,1.7988,1.7978,1.7978,1.8008,1.8008,1.794,1.794,1.794,1.794,0.0,1.8249,1.8903,1.9739,1.8803,1.8428,1.8903,1.7883,1.7236,1.7236,1.6191,1.5613,1.5613,1.4657,1.4088,1.4088,1.4088,1.4088,1.4088,1.4088,1.4088,1.4088,1.4088,1.4088,1.4088,1.4088,1.4082,1.3997,1.3997,1.3294,1.2242,1.2242,1.1466,1.0351,0.0,0.0,0.0,0.0,0.0,0.0,0.0,0.0,0.0,0.0,0.0,0.0,0.0,0.0,0.0,0.0,0.0,0.0,0.0,2.042,2.0875,2.1915,2.218,2.231,2.231,2.3021,2.3511,2.3765,2.5,2.5744,2.5981,2.6471,2.6691,2.6691,2.6691,2.6691,2.6691,2.6691,2.6691,2.6691,2.6691,2.6691,2.6623,2.5879,2.4983,2.3921,0.0,0.0,0.0,1.8993,1.9417,2.0297,2.0595,2.0611,2.0277,1.9042,1.9293,1.9834,1.9224,0.0,2.0306,2.0816,2.115,2.1548,2.2055,2.187,2.1416,2.0917,2.0387,1.982,1.9291,1.847,1.7991,1.8298,1.766,1.7363,1.793,1.7773,1.7803,1.8359,1.8428,0.0,0.0,0.0,0.0,1.9473,1.9707,1.9849,2.0079,1.9036,1.839,1.839,1.6675,1.5696,1.5696,1.4657,1.4088,1.4088,1.4088,1.4088,1.4088,1.4088,1.4088,1.4088,1.4088,1.4088,1.4088,1.4088,1.4088,1.4088,1.4088,1.3822,1.347,1.347,1.3215,1.2607,0.0,0.0,0.0,0.0,0.0,0.0,0.0,0.0,0.0,0.0,0.0,0.0,0.0,0.0,0.0,0.0,0.0,0.0,0.0,0.0,2.0244,2.1301,2.1515,2.1615,2.1615,2.2536,2.3004,2.3004,2.4475,2.5203,2.522,2.5676,2.6048,2.6302,2.6302,2.6454,2.6691,2.6691,2.6691,2.6674,2.6404,2.6302,2.6234,2.549,2.4577,0.0,0.0,0.0,0.0,1.8796,1.9219,2.0056,2.0272,1.9979,1.9448,1.8904,1.9586,2.0344,1.9502,2.0286,2.1416,2.1722,2.2164,2.2662,2.304,2.287,2.254,2.2031,2.1318,2.0633,1.9932,1.9032,1.8561,1.8933,1.8059,1.769,1.8572,1.8192,1.8086,1.8789,1.8867,1.9092,0.0,0.0,0.0,1.9512,2.0019,2.0332,2.0332,1.9695,1.9372,1.9599,1.7407,1.6273,1.6273,1.4817,1.4088,1.4088,1.4088,1.4088,1.4088,1.4088,1.4028,1.3935,1.4041,1.4028,1.3935,1.4041,1.4088,1.4088,1.4088,1.4088,1.4088,1.4088,1.4088,1.3822,0.0,0.0,0.0,0.0,0.0,0.0,0.0,0.0,0.0,0.0,0.0,0.0,0.0,0.0,0.0,0.0,0.0,0.0,0.0,0.0,0.0,2.076,2.0535,2.0384,2.0407,2.1564,2.2192,2.2192,2.3613,2.4337,2.4337,2.4388,2.4746,2.5439,2.5439,2.5828,2.6471,2.6471,2.6471,2.642,2.5761,2.549,2.5423,2.4695,0.0,0.0,0.0,0.0,0.0,0.0,1.9413,1.975,1.9728,1.9383,1.9094,1.9698,1.9863,1.9886,1.9833,2.1082,2.2332,2.2406,2.276,2.3163,2.3163,2.2565,2.2043,2.197,2.1266,2.054,0.0,0.0,1.9678,1.9745,1.8996,1.8739,1.9646,1.9053,1.8769,0.0,0.0,0.0,0.0,0.0,0.0,1.9912,0.0,1.9951,1.9951,1.9951,2.0137,2.0557,1.8541,1.7334,1.7342,1.5144,1.4088,1.4088,1.4088,1.4088,1.4088,1.4088,1.3935,1.3681,1.3968,1.3928,1.3687,1.3975,1.4088,1.4088,1.4088,1.4088,1.4088,1.4088,1.4088,1.3913,0.0,0.0,0.0,0.0,0.0,0.0,0.0,0.0,0.0,0.0,0.0,0.0,0.0,0.0,0.0,0.0,0.0,0.0,0.0,0.0,0.0,0.0,0.0,0.0,0.0,0.0,0.0,0.0,0.0,2.205,2.2067,2.2598,2.297,2.3156,2.3156,2.3257,2.3427,2.3427,2.3427,2.346,0.0,2.3951,2.3934,0.0,0.0,0.0,0.0,0.0,0.0,0.0,0.0,0.0,0.0,2.033,2.0098,1.935,2.0096,2.105,2.0552,2.1681,2.316,2.3675,2.3888,2.3987,2.3987,2.4283,2.4064,2.2502,2.2141,2.1736,0.0,0.0,0.0,1.9108,1.8223,0.0,1.7955,1.8104,0.0,1.875,0.0,1.9883,2.0205,2.0332,0.0,0.0,2.0215,2.04,2.04,2.04,2.0449,2.0634,1.9274,1.8149,1.7342,1.5144,1.4088,1.4088,1.4088,1.4088,1.4088,1.4088,1.4048,1.3981,1.4055,1.4041,1.3981,1.4055,1.4088,1.4088,1.4088,1.4088,1.4088,1.4088,1.4088,1.4088,0.0,0.0,0.0,0.0,0.0,0.0,0.0,0.0,0.0,0.0,0.0,0.0,0.0,0.0,0.0,0.0,0.0,0.0,0.0,0.0,0.0,0.0,0.0,0.0,0.0,0.0,0.0,0.0,0.0,0.0,0.0,2.1109,2.1481,2.182,2.182,2.2006,2.2327,2.2649,0.0,0.0,0.0,0.0,0.0,0.0,0.0,0.0,0.0,0.0,0.0,0.0,0.0,2.0795,2.1407,2.1177,2.0698,2.0556,0.0,2.1512,2.136,2.2273,2.3293,2.368,2.4053,2.4211,2.391,2.4424,2.4459,2.2732,2.243,0.0,2.0927,0.0,0.0,0.0,0.0,0.0,1.8167,1.8279,1.8447,0.0,1.9512,0.0,2.0518,2.0566,2.0469,0.0,2.0254,2.0283,2.0283,2.0283,2.0371,2.0557,1.9767,1.8551,1.7051,1.5889,1.4984,1.4282,1.4282,1.4208,1.4088,1.4088,1.4015,1.3901,0.0,1.4015,1.3901,1.4035,1.4088,1.4088,1.4088,1.4088,1.4088,1.4088,1.4088,1.4088,0.0,0.0,0.0,0.0,0.0,0.0,0.0,0.0,0.0,0.0,0.0,0.0,0.0,0.0,0.0,0.0,0.0,0.0,0.0,0.0,0.0,0.0,0.0,0.0,0.0,0.0,0.0,0.0,0.0,0.0,0.0,0.0,0.0,0.0,0.0,0.0,0.0,0.0,0.0,0.0,0.0,0.0,0.0,0.0,0.0,0.0,0.0,0.0,0.0,0.0,2.1321,2.1028,2.2301,2.184,2.1025,2.2056,2.1998,2.172,2.2214,2.2832,2.3428,2.3542,2.4102,2.4418,2.3719,2.4042,2.4013,2.2512,0.0,2.1781,2.0676,1.9993,1.9706,1.9922,0.0,1.8176,1.8791,1.8723,1.876,1.9082,1.959,2.0088,2.0518,2.0508,2.0498,2.0634,2.0215,2.0,2.0,2.0059,2.0293,2.0723,1.994,1.8675,1.7018,1.6675,1.5855,1.4583,1.4583,1.4429,1.4142,1.4142,1.3981,1.3714,1.3975,1.3941,1.3721,1.3981,1.4088,1.4088,1.4088,1.4088,1.4088,1.4088,1.4088,1.4088,0.0,0.0,0.0,0.0,0.0,0.0,0.0,0.0,0.0,0.0,1.9467,1.9335,0.0,0.0,0.0,0.0,0.0,0.0,0.0,0.0,0.0,0.0,0.0,0.0,0.0,0.0,0.0,0.0,0.0,0.0,0.0,0.0,0.0,0.0,0.0,0.0,0.0,0.0,0.0,0.0,0.0,0.0,0.0,0.0,0.0,0.0,0.0,0.0,0.0,0.0,2.162,2.166,2.2454,2.215,2.1462,2.118,2.173,2.2405,2.2549,2.3748,2.5181,2.5761,2.604,2.5947,2.5274,2.4926,0.0,0.0,2.0777,2.0226,1.9421,1.9558,1.9519,1.876,0.0,0.0,0.0,0.0,1.8535,0.0,0.0,0.0,0.0,0.0,0.0,0.0,2.0498,2.0449,2.0449,2.0801,2.1211,2.1641,1.9658,1.8435,1.8156,1.6257,1.5198,1.4883,1.4883,1.473,1.4442,1.4442,1.4282,1.4015,1.4062,0.0,1.4015,1.4068,1.4088,1.4088,1.4088,1.4088,1.4088,1.4088,1.4088,1.4088,0.0,0.0,0.0,0.0,0.0,0.0,0.0,0.0,1.9669,1.9596,1.9409,1.9305,1.9305,1.9305,0.0,0.0,0.0,0.0,0.0,0.0,0.0,0.0,0.0,0.0,0.0,0.0,0.0,0.0,0.0,0.0,0.0,0.0,0.0,0.0,0.0,0.0,0.0,0.0,0.0,0.0,0.0,0.0,0.0,0.0,0.0,0.0,0.0,0.0,0.0,0.0,2.1186,2.1431,2.273,2.2725,2.217,2.1833,2.2097,2.259,2.2935,2.3891,2.4969,2.572,2.5951,2.5642,2.4357,0.0,0.0,0.0,1.9727,1.9377,1.8725,0.0,0.0,0.0,0.0,0.0,0.0,0.0,0.0,0.0,0.0,0.0,0.0,0.0,0.0,2.0215,2.0439,2.0664,2.0898,2.1328,2.1768,2.2197,2.1146,2.0017,1.8977,1.7913,1.6581,1.519,1.519,1.5037,1.4743,1.4589,1.4442,1.4302,1.4155,1.4001,1.3868,1.4021,1.3995,1.3874,1.4028,1.4088,1.4088,1.4088,1.4088,1.4088,0.0,0.0,0.0,0.0,0.0,0.0,0.0,1.975,1.9582,1.9541,1.9394,1.9305,1.9305,1.9305,1.9305,0.0,0.0,0.0,0.0,0.0,0.0,0.0,0.0,0.0,0.0,0.0,0.0,1.7811,0.0,0.0,0.0,0.0,0.0,0.0,0.0,0.0,0.0,0.0,0.0,0.0,0.0,0.0,0.0,0.0,0.0,0.0,0.0,0.0,0.0,0.0,2.0722,2.1006,2.2667,2.279,2.23,2.2332,2.2336,2.2406,2.3054,2.3784,2.4549,2.5105,2.5398,2.507,2.3294,2.2704,0.0,0.0,1.8791,1.8455,1.8096,0.0,1.8355,0.0,0.0,0.0,0.0,0.0,0.0,0.0,0.0,0.0,0.0,0.0,0.0,2.0049,2.0547,2.1045,2.1484,2.1836,2.2207,2.2637,2.238,2.1452,1.9943,1.9405,1.7995,1.5855,1.5577,1.5337,1.5044,1.475,1.4583,1.4502,1.4215,1.3915,1.3667,1.3968,1.3915,1.3592,1.3975,1.4088,1.4088,1.4088,1.4088,1.4088,0.0,0.0,0.0,0.0,0.0,0.0,0.0,1.9695,1.9527,1.935,1.9305,1.9305,1.9305,1.9305,1.9305,0.0,0.0,0.0,0.0,0.0,0.0,0.0,0.0,0.0,0.0,0.0,0.0,1.7811,1.7811,0.0,0.0,0.0,0.0,0.0,0.0,0.0,0.0,0.0,0.0,0.0,0.0,0.0,0.0,0.0,0.0,0.0,0.0,0.0,0.0,0.0,0.0,2.0857,2.1635,2.141,2.1012,2.1536,0.0,0.0,2.2498,2.363,2.469,2.4761,2.5193,2.5203,2.3837,0.0,0.0,1.9384,1.7856,1.6879,1.7363,1.8257,1.8844,0.0,0.0,1.908,0.0,0.0,0.0,0.0,0.0,0.0,0.0,0.0,0.0,2.0478,2.1289,2.1953,2.2373,2.2432,2.2646,2.3066,2.1975,2.1346,2.1114,1.8956,1.7762,1.7461,1.6344,1.5638,1.5344,1.5057,1.4776,1.4502,1.4215,1.3915,0.0,1.3968,1.3915,1.3592,1.3975,1.4088,1.4088,1.4088,1.4088,1.4088,0.0,0.0,0.0,0.0,0.0,0.0,0.0,1.9585,1.938,1.9305,1.9305,1.9305,1.9305,1.9305,1.9305,0.0,0.0,0.0,0.0,0.0,0.0,0.0,0.0,0.0,0.0,0.0,0.0,1.7811,1.7811,0.0,0.0,0.0,0.0,0.0,0.0,2.0677,0.0,0.0,0.0,0.0,0.0,0.0,0.0,0.0,0.0,0.0,0.0,0.0,0.0,0.0,0.0,0.0,2.0408,2.0302,0.0,0.0,2.1342,2.2166,2.2185,2.3343,2.4615,2.4675,2.4588,2.3927,2.193,0.0,1.9432,1.7863,1.6982,1.6584,1.6823,1.7501,1.8221,0.0,0.0,0.0,0.0,0.0,0.0,0.0,0.0,0.0,0.0,0.0,0.0,2.0918,2.1289,2.1904,2.2842,2.2891,2.2969,2.3135,2.2589,2.2031,2.1293,2.0305,1.9497,1.8772,1.749,1.6879,1.675,1.5718,1.5064,1.477,1.4476,1.3981,0.0,1.3895,1.3808,1.3434,1.3901,1.4088,1.4088,1.4088,1.4088,1.4088,0.0,0.0,0.0,0.0,0.0,1.9847,1.9821,1.9572,1.9365,1.9305,1.9305,1.9305,1.9305,1.9305,1.9305,1.9305,0.0,0.0,0.0,0.0,0.0,0.0,0.0,0.0,0.0,0.0,0.0,1.7811,1.7883,1.7883,0.0,0.0,1.8809,2.0002,0.0,0.0,0.0,0.0,0.0,0.0,0.0,0.0,0.0,0.0,0.0,0.0,0.0,0.0,0.0,0.0,0.0,0.0,0.0,0.0,0.0,0.0,2.0868,2.1849,2.1387,2.2462,2.3629,2.3569,2.3216,2.239,0.0,0.0,1.8467,1.7046,1.6602,1.6522,1.6522,1.6986,1.7739,0.0,0.0,1.9389,0.0,0.0,0.0,0.0,0.0,0.0,0.0,0.0,0.0,2.1357,2.1426,2.1934,2.3076,2.3135,2.3135,2.3135,2.3135,2.2677,2.1845,2.148,2.0845,2.0034,1.8411,1.7632,1.7527,1.6033,1.519,1.4823,1.4609,1.4075,0.0,1.3881,1.3788,1.3387,1.3888,1.4088,1.4088,1.4088,1.4088,1.4088,0.0,0.0,0.0,0.0,0.0,0.0,0.0,1.9682,1.9527,1.932,1.9305,1.9305,1.9305,1.9305,1.9305,1.9305,0.0,0.0,0.0,0.0,0.0,0.0,0.0,0.0,0.0,0.0,0.0,1.7811,1.8078,1.8078,1.7828,1.8555,1.9299,2.0035,0.0,0.0,0.0,0.0,0.0,0.0,0.0,0.0,0.0,0.0,0.0,0.0,0.0,0.0,0.0,0.0,0.0,0.0,0.0,0.0,0.0,0.0,2.0167,2.0585,1.9967,2.0779,2.1608,2.0975,2.0874,2.0729,0.0,0.0,1.812,1.7433,1.6888,1.6522,1.6522,1.6986,1.7739,1.8844,0.0,0.0,0.0,0.0,0.0,0.0,0.0,0.0,0.0,0.0,2.0928,2.1816,2.1875,0.0,2.3096,2.3135,2.3135,2.3135,2.3135,2.3047,2.3047,2.1933,2.1293,2.1293,1.8864,1.7505,1.7161,1.5929,1.5077,1.4522,1.4522,1.4182,0.0,1.3961,1.3908,1.3667,1.3968,1.4088,1.4088,1.4088,1.4088,1.4088,0.0,0.0,0.0,0.0,0.0,0.0,0.0,1.9682,1.9527,1.932,1.9305,1.9305,1.9305,1.9305,1.9305,1.9305,0.0,0.0,0.0,0.0,0.0,0.0,0.0,0.0,0.0,0.0,0.0,1.8061,1.7971,1.8061,1.8348,1.8722,1.9379,2.0298,2.0926,0.0,0.0,0.0,0.0,0.0,0.0,0.0,0.0,0.0,0.0,0.0,0.0,0.0,0.0,0.0,0.0,0.0,0.0,0.0,0.0,0.0,0.0,0.0,1.9024,1.9686,2.0447,1.9787,1.9634,1.9382,1.8429,0.0,1.7501,1.6888,1.6615,1.6522,1.6522,1.6672,1.7287,1.8733,1.9171,0.0,0.0,0.0,0.0,0.0,0.0,0.0,0.0,0.0,2.0488,2.1377,2.1445,2.1807,2.2666,2.2988,2.3135,2.3135,2.3135,2.3135,2.3135,2.2677,2.2129,2.1293,2.0486,1.9109,1.7168,1.7055,1.607,1.4529,1.4736,1.4376,1.3667,1.3968,1.3915,1.3592,1.3975,1.4088,1.4088,1.4088,1.4088,1.4088,0.0,0.0,0.0,0.0,0.0,0.0,0.0,1.9726,1.9591,1.9335,1.9305,1.9305,1.9305,1.9305,1.9305,1.9305,0.0,0.0,0.0,0.0,0.0,0.0,0.0,0.0,0.0,0.0,1.7992,1.8057,1.8082,1.8166,1.8325,1.9104,1.9747,2.0291,2.1206,0.0,0.0,0.0,0.0,0.0,0.0,0.0,2.2282,0.0,0.0,0.0,0.0,0.0,0.0,0.0,0.0,0.0,0.0,0.0,0.0,0.0,1.8896,1.9065,0.0,1.8997,1.9566,1.8913,1.8584,0.0,0.0,0.0,1.6969,1.659,1.6679,1.6779,1.6516,1.6861,1.7488,1.8543,1.897,0.0,0.0,0.0,0.0,0.0,0.0,0.0,0.0,0.0,2.0459,2.1182,2.1387,2.1787,2.248,2.291,2.3135,2.3135,2.3135,2.3135,2.3135,2.3135,2.2677,2.1943,2.148,2.0099,1.7889,1.7804,1.6591,1.4696,1.4883,1.4589,0.0,1.4055,1.3975,1.3828,1.4015,1.4088,1.4088,1.4088,1.4088,1.4088,0.0,0.0,0.0,0.0,0.0,0.0,0.0,0.0,0.0,1.9346,1.932,1.932,1.9305,1.9305,1.9305,1.9305,0.0,0.0,0.0,0.0,0.0,0.0,0.0,0.0,0.0,1.804,1.8057,1.7833,1.831,1.831,1.7873,1.9585,2.024,2.0078,2.1617,0.0,0.0,0.0,0.0,0.0,0.0,0.0,0.0,0.0,0.0,0.0,0.0,0.0,0.0,0.0,0.0,0.0,0.0,0.0,0.0,0.0,0.0,0.0,0.0,1.8485,0.0,0.0,0.0,0.0,0.0,0.0,0.0,0.0,1.701,1.7235,1.6654,1.7501,1.8267,1.8267,0.0,0.0,0.0,0.0,0.0,0.0,0.0,0.0,0.0,0.0,2.0732,2.1152,2.1592,2.2021,2.2441,2.2861,2.3105,2.3135,2.3135,2.3135,2.3135,2.3135,2.3028,2.2911,2.1924,2.0633,1.9024,1.8156,1.6868,0.0,1.5046,1.4783,1.4469,1.4202,1.4088,1.4088,1.4088,1.4088,1.4088,1.4088,1.4088,1.4088,0.0,0.0,0.0,0.0,0.0,0.0,0.0,0.0,0.0,0.0,1.9527,1.9471,1.932,1.9305,1.9305,0.0,0.0,0.0,0.0,0.0,0.0,0.0,0.0,0.0,0.0,1.7878,1.7971,1.8121,1.8035,1.8125,1.8445,1.9561,2.0184,2.0357,2.1698,0.0,0.0,0.0,0.0,0.0,0.0,0.0,0.0,0.0,0.0,0.0,2.1023,2.0499,0.0,0.0,0.0,0.0,0.0,0.0,0.0,0.0,1.8106,1.7935,1.7131,0.0,1.7068,1.6911,1.6809,1.672,0.0,0.0,0.0,0.0,0.0,0.0,0.0,0.0,0.0,0.0,0.0,0.0,0.0,0.0,0.0,0.0,0.0,0.0,0.0,0.0,2.0605,2.0713,2.1133,2.1572,2.2012,2.2432,2.2812,2.3125,2.3135,2.3135,2.3135,2.3135,2.2514,2.1305,2.2242,2.1213,1.8564,1.8938,1.7971,1.5979,1.5294,1.4669,1.4182,1.4115,1.4088,1.4088,1.4088,1.4088,1.4088,1.4088,1.4088,1.4088,0.0,0.0,0.0,0.0,0.0,0.0,0.0,0.0,0.0,0.0,0.0,0.0,0.0,0.0,0.0,0.0,0.0,0.0,0.0,0.0,0.0,0.0,0.0,0.0,0.0,1.7861,1.7861,1.8014,1.8103,1.8249,1.8445,1.975,2.0366,2.0453,2.1725,0.0,0.0,0.0,0.0,0.0,2.231,0.0,0.0,0.0,0.0,0.0,2.1055,2.0565,0.0,1.9747,1.969,1.969,0.0,0.0,0.0,0.0,1.8115,1.7867,1.6795,1.6522,1.659,1.6832,1.6683,1.659,1.6832,0.0,0.0,0.0,0.0,0.0,0.0,0.0,0.0,0.0,0.0,0.0,0.0,0.0,0.0,0.0,0.0,0.0,0.0,0.0,2.0566,2.0566,2.0986,2.1426,2.1865,2.2285,2.2705,2.3125,2.3135,2.3135,2.3135,2.3135,2.2563,2.153,2.2573,2.1802,1.9462,1.951,1.8449,1.6623,1.532,1.4583,1.4262,1.3995,1.3968,1.4088,1.4088,1.4088,1.4088,1.4088,1.4088,1.4088,0.0,0.0,0.0,0.0,0.0,0.0,0.0,0.0,0.0,0.0,0.0,0.0,0.0,0.0,0.0,0.0,0.0,0.0,0.0,0.0,0.0,0.0,0.0,0.0,1.8208,1.7971,1.7878,1.7878,1.831,1.843,1.8243,1.9829,2.0551,2.0577,2.1776,0.0,0.0,0.0,0.0,0.0,2.231,0.0,0.0,0.0,0.0,0.0,0.0,0.0,0.0,1.9803,1.969,1.969,1.969,0.0,0.0,0.0,0.0,0.0,1.6782,1.6522,1.6615,1.7269,1.6935,1.6647,1.7265,0.0,0.0,0.0,0.0,0.0,0.0,0.0,0.0,0.0,0.0,0.0,0.0,0.0,0.0,0.0,0.0,0.0,0.0,2.0312,2.0566,2.0566,2.0918,2.1318,2.1768,2.2187,2.2607,2.3027,2.3105,2.3135,2.3135,2.3135,2.293,2.2519,2.2939,2.237,2.0907,2.0142,1.8896,1.7318,0.0,0.0,1.4416,1.3921,1.3854,1.4088,1.4088,1.4088,1.4088,1.4088,1.4088,1.4088,0.0,0.0,0.0,0.0,0.0,0.0,0.0,0.0,0.0,0.0,0.0,0.0,0.0,0.0,0.0,0.0,0.0,0.0,0.0,0.0,0.0,0.0,0.0,1.8715,1.8208,1.8146,1.8125,1.8125,1.8229,1.8249,1.8225,1.9113,2.0084,2.1121,2.1921,2.231,2.231,2.231,2.231,2.231,2.231,0.0,0.0,0.0,0.0,0.0,0.0,0.0,0.0,1.9711,1.969,1.969,1.969,0.0,0.0,0.0,0.0,0.0,1.6659,1.6522,1.6615,1.7269,1.6927,1.6662,1.7251,0.0,0.0,0.0,0.0,0.0,0.0,0.0,0.0,0.0,0.0,0.0,0.0,0.0,0.0,0.0,0.0,0.0,1.9941,2.0312,2.0566,2.0566,2.0625,2.0859,2.1318,2.1748,2.2178,2.2598,2.2949,2.3135,2.3135,2.3135,2.293,2.2519,2.2939,2.2823,2.2169,2.1396,2.0095,1.8308,0.0,1.5619,1.4148,1.4055,1.4048,1.4088,1.4088,1.4088,1.4088,1.4088,1.4088,1.4088,0.0,0.0,0.0,0.0,0.0,0.0,0.0,0.0,0.0,0.0,0.0,0.0,0.0,0.0,0.0,0.0,0.0,0.0,0.0,0.0,0.0,0.0,1.9277,1.9017,1.8623,1.8351,1.827,1.841,1.841,1.8489,1.8658,1.9661,2.057,2.1396,2.201,2.231,2.231,2.231,2.231,2.231,0.0,0.0,0.0,0.0,0.0,0.0,0.0,0.0,0.0,0.0,1.969,1.969,1.969,0.0,0.0,0.0,0.0,0.0,1.665,1.6522,1.6696,1.7596,1.7147,1.6822,1.8012,0.0,0.0,0.0,0.0,0.0,0.0,0.0,0.0,0.0,0.0,0.0,0.0,0.0,0.0,0.0,0.0,2.0137,1.9932,2.0312,2.0566,2.0566,2.0566,2.0762,2.1211,2.1426,2.1836,2.249,2.2705,2.291,2.3135,2.3135,2.293,2.2519,2.2939,2.292,2.2434,2.1447,2.0401,1.9323,0.0,1.5727,1.488,1.4151,1.3941,1.4088,1.4088,1.4088,1.4088,1.4088,1.4088,1.4088,0.0,0.0,0.0,0.0,0.0,0.0,0.0,0.0,0.0,0.0,0.0,0.0,0.0,0.0,0.0,0.0,0.0,0.0,0.0,0.0,1.9675,1.9596,1.9456,1.9243,1.9019,1.8528,1.843,1.8697,1.8623,1.8734,1.902,2.0177,2.0889,2.1263,2.1963,2.231,2.231,2.231,2.231,2.231,0.0,0.0,0.0,0.0,0.0,0.0,0.0,0.0,0.0,0.0,0.0,0.0,0.0,0.0,0.0,1.8238,1.7634,1.7038,1.6602,1.6522,1.6751,1.7748,0.0,1.6961,1.8643,0.0,0.0,0.0,0.0,0.0,0.0,0.0,0.0,0.0,0.0,0.0,0.0,0.0,0.0,0.0,2.0426,2.0286,2.0068,2.0371,2.0712,2.0934,2.0934,2.1083,2.1362,2.1471,2.1767,2.2187,2.2314,2.2568,2.2988,2.2988,2.2881,2.2656,2.2988,2.2969,2.2571,2.1568,2.0756,2.0075,1.7639,1.6425,1.6011,1.4632,1.4283,1.4412,1.4166,1.4088,1.4088,1.4088,1.4088,1.4088,0.0,0.0,0.0,0.0,0.0,0.0,0.0,0.0,0.0,0.0,0.0,0.0,0.0,0.0,0.0,0.0,0.0,0.0,0.0,0.0,1.9858,1.9609,1.9601,1.9398,1.9019,1.8715,1.8715,1.8966,1.8734,1.8734,1.902,1.9987,2.0465,2.0522,2.1742,2.231,2.231,2.231,2.231,2.231,2.231,0.0,0.0,0.0,0.0,0.0,0.0,0.0,0.0,0.0,0.0,0.0,0.0,0.0,1.8158,1.8094,1.738,1.6534,1.6522,1.6522,1.667,1.7282,1.6969,0.0,1.8608,1.77,0.0,0.0,0.0,0.0,0.0,0.0,0.0,0.0,0.0,0.0,0.0,0.0,0.0,0.0,2.1834,2.1542,2.0663,2.0547,2.0934,2.1811,2.1886,2.1897,2.1939,2.2345,2.2155,2.1318,2.1719,2.2129,2.2549,2.2559,2.2744,2.3096,2.3125,2.3125,2.3076,2.26,2.1561,2.0177,1.9587,1.8542,1.709,1.6003,1.5598,1.5462,1.4496,1.4088,1.4088,1.4088,1.4088,1.4088,0.0,0.0,0.0,0.0,0.0,0.0,0.0,0.0,0.0,0.0,0.0,0.0,0.0,0.0,0.0,0.0,0.0,0.0,0.0,0.0,1.9944,1.9858,1.9695,1.9527,1.9383,1.9034,1.8966,1.9198,1.9064,1.9099,1.92,1.9879,2.0361,2.0673,2.1462,2.1983,2.231,2.231,2.231,2.231,2.231,2.231,0.0,0.0,0.0,0.0,0.0,0.0,0.0,0.0,1.969,1.9645,0.0,0.0,1.8035,0.0,1.7079,1.6522,1.6522,1.6522,1.6739,1.7665,0.0,0.0,0.0,0.0,0.0,0.0,0.0,0.0,0.0,0.0,0.0,0.0,0.0,0.0,0.0,0.0,0.0,2.2178,2.2027,2.1659,2.0712,2.0566,2.1011,2.1962,2.2027,2.2027,2.2027,2.2195,2.1906,2.1221,2.1396,2.1689,2.2119,2.2129,2.2207,2.2363,2.2627,2.2754,2.2725,2.2031,2.1366,2.0765,1.9677,1.8932,1.823,1.6429,1.5696,1.5621,1.4489,1.4088,1.4088,1.4088,1.4088,1.4088,0.0,0.0,0.0,0.0,0.0,0.0,0.0,0.0,0.0,0.0,0.0,0.0,0.0,0.0,0.0,0.0,0.0,0.0,0.0,0.0,2.0069,1.9993,1.9767,1.9649,1.9596,1.9277,1.9166,1.9305,1.9305,1.9305,1.9308,1.9847,2.0235,0.0,2.1201,2.1661,2.1972,2.2209,2.231,2.231,2.231,2.231,0.0,0.0,0.0,0.0,0.0,0.0,0.0,0.0,1.969,0.0,0.0,0.0,0.0,0.0,0.0,1.6963,1.6816,1.6751,1.6956,0.0,0.0,0.0,0.0,0.0,0.0,0.0,0.0,0.0,0.0,0.0,0.0,0.0,0.0,0.0,0.0,0.0,2.4625,2.3136,2.2925,2.2489,2.1155,2.1298,2.1745,2.2403,2.2776,2.2925,2.2925,2.2627,2.2185,2.146,2.1174,2.124,2.168,2.168,2.1748,2.1885,2.2041,2.2187,2.2295,2.1562,2.123,2.1131,2.0033,1.952,1.9353,1.7082,1.5786,1.5137,1.4412,1.4334,1.4573,1.4573,1.4817,1.5151,0.0,0.0,0.0,0.0,0.0,0.0,0.0,0.0,0.0,0.0,0.0,0.0,0.0,0.0,0.0,0.0,0.0,0.0,0.0,2.0312,2.0205,2.0012,1.988,1.9738,1.9596,1.9394,1.9305,1.9305,1.9305,1.9305,1.9308,1.9847,0.0,0.0,0.0,0.0,2.1254,2.1989,2.231,2.231,2.231,2.231,2.231,0.0,0.0,0.0,0.0,0.0,0.0,0.0,1.9726,1.969,0.0,0.0,0.0,0.0,1.8514,1.801,1.7483,1.7325,0.0,0.0,0.0,0.0,0.0,0.0,0.0,0.0,0.0,0.0,0.0,0.0,0.0,0.0,0.0,0.0,0.0,2.5271,2.5477,2.5052,2.5004,2.4181,2.2178,2.2925,2.3514,2.3514,2.442,2.5004,2.5004,2.4047,2.3073,2.2027,2.1078,2.0781,2.1221,2.123,2.1445,2.1865,2.1435,2.1455,2.1865,2.1426,2.123,2.1201,2.0762,2.0566,2.0401,1.8221,1.6041,1.4173,1.4173,1.4817,1.5696,1.5696,1.6355,1.7342,0.0,0.0,0.0,0.0,0.0,0.0,0.0,0.0,0.0,0.0,0.0,0.0,0.0,0.0,0.0,0.0,0.0,0.0,0.0,2.0312,2.0277,2.0205,1.9941,1.9786,1.9738,1.9448,1.9305,1.9305,1.9305,1.9305,1.9289,0.0,0.0,2.0005,0.0,0.0,2.0676,2.1275,2.1541,2.1541,2.1541,2.1832,2.231,0.0,0.0,0.0,0.0,0.0,0.0,0.0,0.0,0.0,0.0,0.0,0.0,1.8987,1.8609,1.8158,1.846,0.0,0.0,0.0,0.0,0.0,0.0,0.0,0.0,0.0,0.0,0.0,0.0,0.0,0.0,0.0,0.0,0.0,0.0,2.5231,2.546,2.5066,2.4985,2.4496,2.3198,2.3294,2.3818,2.448,2.4862,2.5004,2.5004,2.4707,2.3745,2.2027,2.1735,2.1292,2.0762,2.0762,2.083,2.0957,2.082,2.0996,2.1416,2.0967,2.0762,2.0752,2.0625,2.0566,2.0479,1.9116,1.7666,1.6363,1.6363,1.6527,1.6846,1.6846,1.7009,1.7342,0.0,0.0,0.0,0.0,0.0,0.0,0.0,0.0,0.0,0.0,0.0,0.0,0.0,0.0,0.0,0.0,0.0,0.0,0.0,0.0,2.0312,2.0312,2.0041,1.9824,1.9713,1.9434,1.9305,1.9305,1.9305,1.9305,0.0,0.0,1.9419,1.9687,0.0,2.0201,2.001,2.0517,2.0722,2.0732,2.0732,2.1178,2.1877,0.0,0.0,0.0,0.0,0.0,0.0,0.0,0.0,0.0,0.0,0.0,0.0,1.914,1.8925,1.8784,1.8756,0.0,0.0,0.0,0.0,0.0,0.0,0.0,0.0,0.0,0.0,0.0,0.0,0.0,0.0,0.0,0.0,0.0,2.4378,2.4909,2.5281,2.5269,2.5411,2.5187,2.4169,2.448,2.4767,2.5004,2.537,2.5594,2.5594,2.5229,2.4409,2.322,2.2776,2.2103,2.1155,2.1155,2.0934,2.0566,2.0566,2.0703,2.0957,2.0684,2.0566,2.0566,2.0566,2.0323,1.9923,1.9283,1.831,1.7342,1.7342,1.7585,1.7989,1.7989,1.823,1.8621,0.0,0.0,0.0,0.0,0.0,0.0,0.0,0.0,0.0,0.0,0.0,0.0,0.0,0.0,0.0,0.0,0.0,0.0,0.0,0.0,2.0312,2.0312,2.0097,1.9858,1.9614,1.9394,1.9305,1.9305,1.9305,0.0,0.0,0.0,1.9214,1.9054,0.0,1.9535,1.9282,1.9745,1.992,1.9899,1.9899,2.0368,2.1094,2.1078,0.0,0.0,0.0,0.0,0.0,0.0,0.0,0.0,1.9741,2.0139,2.0406,1.9369,1.9435,1.9669,1.8711,0.0,0.0,0.0,0.0,0.0,0.0,0.0,0.0,0.0,0.0,0.0,0.0,0.0,0.0,0.0,0.0,0.0,2.3912,2.4413,2.4944,2.5505,2.6083,2.607,2.5217,2.5943,2.6094,2.5229,2.5955,2.6533,2.6533,2.5664,2.5075,2.5004,2.4108,2.3147,2.2178,2.2027,2.1593,2.0712,2.0644,2.0566,2.0566,2.0566,2.0566,2.0566,2.0566,2.0079,1.9125,1.9125,1.855,1.7577,1.7577,1.823,1.9125,1.9125,1.9766,2.0566,0.0,0.0,0.0,0.0,0.0,0.0,0.0,0.0,0.0,0.0,0.0,0.0,0.0,0.0,0.0,0.0,0.0,0.0,0.0,0.0,2.0312,2.0312,2.0011,1.9774,1.9596,1.9394,1.9305,1.9305,1.9305,0.0,0.0,0.0,0.0,1.9264,0.0,1.9541,1.8783,1.9253,1.9316,1.9134,1.9134,1.9593,2.0271,2.0277,2.0277,0.0,0.0,0.0,0.0,0.0,0.0,0.0,1.9918,1.9788,1.9968,2.0247,2.003,1.98,0.0,1.9189,0.0,0.0,0.0,0.0,0.0,0.0,0.0,0.0,0.0,0.0,0.0,0.0,0.0,0.0,0.0,0.0,2.391,2.4126,2.4519,2.5518,2.5728,2.5896,2.6151,2.6383,2.6383,2.6164,2.6383,2.6533,2.6533,2.6314,2.5804,2.5004,2.4791,2.4192,2.322,2.2403,2.1886,2.1659,2.0934,2.0566,2.0566,2.0566,2.0566,2.0566,2.0566,2.0489,2.0245,2.0245,2.0079,1.9913,1.9913,2.0079,2.0245,2.0245,2.0401,2.0566,0.0,0.0,0.0,0.0,0.0,0.0,0.0,0.0,0.0,0.0,0.0,0.0,0.0,0.0,0.0,0.0,0.0,0.0,0.0,0.0,0.0,0.0,2.005,1.9824,1.9707,1.9523,1.9413,0.0,0.0,0.0,0.0,0.0,0.0,1.9305,0.0,1.9091,1.861,1.8591,1.8499,1.837,1.837,1.8802,1.9464,1.9478,1.9692,2.0062,2.0459,0.0,0.0,0.0,0.0,0.0,0.0,0.0,2.0146,1.9891,1.9812,1.9684,0.0,0.0,0.0,0.0,0.0,0.0,0.0,0.0,0.0,0.0,0.0,0.0,0.0,0.0,0.0,0.0,0.0,0.0,2.3495,2.3803,2.4211,2.4745,2.5098,2.5411,2.599,2.6083,2.6189,2.6452,2.6533,2.6533,2.6533,2.6533,2.6245,2.5734,2.5734,2.5217,2.4264,2.3672,2.322,2.2702,2.1745,2.1001,2.0566,2.0566,2.0566,2.0566,2.0566,2.0566,2.0566,2.0566,2.0566,2.0566,2.0566,2.0566,2.0566,2.0566,2.0566,2.0566,0.0,0.0,0.0,0.0,0.0,0.0,0.0,0.0,0.0,0.0,0.0,0.0,0.0,0.0,0.0,0.0,0.0,0.0,0.0,0.0,0.0,0.0,2.0115,1.9943,1.979,1.9669,1.9499,0.0,0.0,0.0,0.0,0.0,0.0,1.9485,0.0,1.8781,1.8568,1.808,1.7845,1.7811,1.7811,1.8172,1.8711,1.8711,1.9092,1.963,1.9771,1.9595,1.9352,1.9648,0.0,0.0,0.0,0.0,2.0005,1.9009,1.9075,1.923,0.0,0.0,0.0,0.0,0.0,0.0,0.0,0.0,0.0,0.0,0.0,0.0,0.0,0.0,0.0,0.0,0.0,0.0,2.3078,2.3555,2.3888,2.3987,2.4414,2.486,2.5418,2.5425,2.5679,2.6158,2.6258,2.6364,2.6314,2.6471,2.6533,2.6533,2.6533,2.6094,2.53,2.5087,2.4564,2.3745,2.2553,2.1517,2.0566,2.0566,2.0566,2.0566,2.0566,2.0566,2.0566,2.0566,2.0566,2.0566,2.0566,2.0566,2.0566,2.0566,2.0566,2.0566,0.0,0.0,0.0,0.0,0.0,0.0,0.0,0.0,0.0,0.0,0.0,0.0,0.0,0.0,0.0,0.0,0.0,0.0,2.0312,0.0,0.0,2.0312,2.0115,1.9943,1.979,1.9669,1.9499,0.0,0.0,0.0,0.0,0.0,0.0,2.0332,0.0,0.0,1.8573,1.8273,1.8008,1.7811,1.7811,1.7862,1.7952,1.7952,1.8008,1.8178,1.8819,1.9022,1.8975,1.9037,1.8978,0.0,0.0,0.0,1.8071,1.79,1.7952,1.8047,0.0,0.0,0.0,0.0,0.0,0.0,0.0,0.0,0.0,0.0,0.0,0.0,0.0,0.0,0.0,0.0,0.0,0.0,2.3078,2.3163,2.3384,2.3974,2.4058,2.4336,2.4861,2.4884,2.4932,2.4992,2.5487,2.5741,2.5724,2.6189,2.6533,2.6533,2.6533,2.6465,2.6314,2.5441,2.4933,2.4791,2.2925,2.1517,2.0566,2.0566,2.0566,2.0566,2.0566,2.0566,2.0566,2.0566,2.0566,2.0566,2.0566,2.0566,2.0566,2.0566,2.0566,2.0566,0.0,0.0,0.0,0.0,0.0,0.0,0.0,0.0,0.0,0.0,0.0,0.0,0.0,0.0,0.0,2.0312,2.0312,2.0312,2.0312,2.0312,2.0312,2.0312,2.0225,2.006,1.9821,1.9738,0.0,0.0,0.0,0.0,0.0,2.1238,2.0968,0.0,0.0,0.0,0.0,0.0,1.8297,1.7811,1.7811,1.7811,1.7811,1.7811,1.7811,1.7822,1.8154,1.8278,1.8269,1.8281,1.8275,1.8213,1.7803,0.0,0.0,0.0,1.7726,0.0,1.7472,0.0,0.0,0.0,0.0,0.0,0.0,0.0,0.0,0.0,0.0,0.0,0.0,0.0,0.0,0.0,0.0,0.0,2.3078,2.3078,2.3175,2.347,2.3482,2.3692,2.4309,2.4355,2.4469,2.4784,2.5012,2.5184,2.5159,2.541,2.5674,2.5963,2.5975,2.6138,2.6533,2.6094,2.5594,2.5004,2.3514,2.2328,2.1375,2.0867,2.0566,2.0566,2.0566,2.0566,2.0566,2.0566,2.0566,2.0566,2.0566,2.0566,2.0566,2.0566,2.0566,2.0566,0.0,0.0,0.0,0.0,0.0,0.0,0.0,0.0,0.0,0.0,0.0,0.0,0.0,0.0,0.0,0.0,2.0312,2.0312,2.0312,2.0312,2.0312,2.0312,2.0312,2.0144,1.9821,0.0,0.0,0.0,0.0,0.0,2.1473,2.1693,2.1451,0.0,2.0903,0.0,0.0,0.0,0.0,0.0,1.8082,1.7952,1.7811,1.7811,1.7811,1.7811,1.7811,1.7811,1.7765,1.7591,1.7545,1.7504,1.7304,1.7236,0.0,0.0,0.0,0.0,0.0,0.0,0.0,0.0,0.0,0.0,0.0,0.0,0.0,0.0,0.0,0.0,0.0,0.0,0.0,0.0,0.0,0.0,2.3078,2.3078,2.3078,2.3078,2.3078,2.3273,2.3764,2.3777,2.3974,2.4322,2.4512,2.462,2.4608,2.4708,2.4998,2.5385,2.5398,2.5598,2.6038,2.6176,2.5815,2.4814,2.4207,2.322,2.1962,2.1298,2.0934,2.0934,2.0712,2.0566,2.0566,2.0566,2.0712,2.0934,2.0712,2.0712,2.0934,2.0722,2.0789,2.0934,0.0,0.0,0.0,0.0,0.0,0.0,0.0,0.0,0.0,0.0,0.0,0.0,0.0,2.0312,2.0312,2.0312,2.0312,2.0312,2.0312,2.0312,2.0312,2.0312,2.0312,0.0,1.9821,0.0,0.0,0.0,0.0,0.0,2.0585,2.1402,2.1778,2.1695,2.1228,2.0914,2.0694,0.0,0.0,0.0,0.0,0.0,0.0,0.0,1.7811,0.0,0.0,1.7811,1.7698,1.7066,1.6837,1.6749,1.6102,1.5903,1.5903,0.0,0.0,0.0,0.0,0.0,0.0,0.0,0.0,0.0,0.0,0.0,0.0,0.0,0.0,0.0,0.0,0.0,0.0,0.0,0.0,0.0,2.3078,2.3078,2.3078,2.3078,2.3078,2.3138,2.315,2.315,2.3163,2.3175,2.3717,2.4051,2.4064,2.4542,2.4798,2.4858,2.4858,2.487,2.4908,2.5398,2.5154,2.4279,2.4696,2.3891,2.2027,2.1962,2.1962,2.1886,2.1011,2.0566,2.0566,2.0566,2.1155,2.1811,2.0934,2.1155,2.1811,2.0934,2.1155,2.1962,0.0,0.0,0.0,0.0,0.0,0.0,0.0,0.0,0.0,0.0,0.0,0.0,0.0,2.0312,2.0312,2.0312,2.0312,2.0312,2.0312,2.0312,2.0312,2.0312,2.0312,2.0144,1.9821,0.0,0.0,0.0,0.0,1.9718,2.0514,2.0822,2.116,2.1567,2.2155,2.1589,2.0187,2.0326,0.0,0.0,0.0,0.0,0.0,0.0,0.0,0.0,0.0,0.0,1.8326,1.7189,1.6789,1.6686,1.6011,1.5799,1.5799,1.5799,0.0,0.0,0.0,0.0,0.0,0.0,0.0,0.0,0.0,0.0,0.0,0.0,0.0,0.0,0.0,0.0,0.0,0.0,0.0,0.0,2.3078,2.3078,2.3078,2.3078,2.3078,2.3078,2.3078,2.3078,2.3078,2.3078,2.2967,2.3053,2.3384,2.329,2.3554,2.4268,2.4293,2.4456,2.482,2.5008,2.49,2.457,2.4542,2.4143,2.3424,2.3077,2.2927,2.2971,2.2617,2.2489,2.2489,2.2489,2.2627,2.2925,2.2553,2.2638,2.2925,2.2563,2.2702,2.2925,0.0,0.0,0.0,0.0,0.0,0.0,0.0,0.0,0.0,0.0,0.0,0.0,0.0,0.0,2.0312,2.0312,2.0312,2.0312,2.0312,2.0241,2.0197,2.0197,2.0162,2.0011,1.9743,0.0,0.0,0.0,0.0,0.0,0.0,2.0369,2.0698,2.1134,2.2037,2.1675,0.0,0.0,0.0,1.9005,0.0,0.0,1.855,0.0,0.0,0.0,0.0,0.0,0.0,0.0,1.7543,1.7219,1.6542,1.6079,0.0,0.0,0.0,0.0,0.0,0.0,0.0,0.0,0.0,0.0,0.0,0.0,0.0,0.0,0.0,0.0,0.0,0.0,0.0,0.0,0.0,0.0,2.3482,2.3261,2.3078,2.3078,2.3078,2.3078,2.3078,2.3078,2.3078,2.3078,2.276,0.0,2.3107,2.2755,2.2921,2.369,2.3703,2.3891,2.4255,2.4406,2.4507,2.4507,2.4411,2.4218,2.3906,2.3743,2.3761,2.3731,2.3943,2.3841,2.3514,2.3514,2.3672,2.3963,2.3661,2.3745,2.3963,2.3599,2.3745,2.4036,0.0,0.0,0.0,0.0,0.0,0.0,0.0,0.0,0.0,0.0,0.0,0.0,0.0,0.0,0.0,2.0296,2.0296,2.0296,2.0296,2.0106,1.9984,1.9984,1.988,1.9743,1.96,1.96,0.0,0.0,0.0,0.0,0.0,0.0,2.0458,2.0465,2.0751,2.1115,2.1496,0.0,2.1145,2.1039,0.0,2.0,1.9871,0.0,0.0,0.0,1.9738,1.9529,0.0,1.9365,0.0,0.0,0.0,0.0,0.0,0.0,0.0,0.0,0.0,0.0,0.0,0.0,0.0,0.0,0.0,0.0,0.0,0.0,0.0,0.0,0.0,0.0,0.0,0.0,0.0,0.0,2.4283,2.358,2.3078,2.3078,2.3078,2.3078,2.3078,2.3078,2.3078,2.3078,2.3065,2.3086,2.3076,2.3081,2.3078,2.3078,2.3078,2.3078,2.3078,2.3679,2.3987,2.3987,2.4517,2.4295,2.3339,2.394,2.4214,2.4242,2.4788,2.449,2.3588,2.3588,2.4181,2.4933,2.3963,2.4181,2.4933,2.3963,2.4192,2.5004,0.0,0.0,0.0,0.0,0.0,0.0,0.0,0.0,0.0,0.0,0.0,0.0,0.0,0.0,1.9931,1.9931,1.9931,1.9931,1.9931,1.9899,1.9858,1.9858,1.9823,1.9745,1.9604,1.9607,0.0,0.0,0.0,0.0,0.0,0.0,0.0,0.0,1.9767,1.9888,1.9733,2.0755,0.0,0.0,2.0874,2.0374,0.0,0.0,0.0,0.0,0.0,1.9866,1.9689,0.0,1.8854,1.784,0.0,0.0,0.0,0.0,0.0,0.0,1.5799,0.0,0.0,0.0,0.0,0.0,0.0,0.0,0.0,0.0,0.0,0.0,0.0,0.0,0.0,0.0,0.0,0.0,2.3607,2.3273,2.3078,2.3078,2.3078,2.3078,2.3078,2.3078,2.3078,0.0,2.2747,2.2708,2.3098,2.3097,2.3078,2.3078,2.3078,2.3078,2.3078,2.3261,2.3359,2.3359,2.3968,2.4088,2.3854,2.4372,2.4652,2.4624,2.5187,2.5293,2.5059,2.5508,2.5791,2.6094,2.5791,2.5873,2.6025,2.5791,2.5873,2.6094,0.0,0.0,0.0,0.0,0.0,0.0,0.0,0.0,0.0,0.0,0.0,0.0,0.0,0.0,0.0,1.979,1.979,1.979,1.979,1.975,1.9732,1.9732,1.9645,1.955,1.9485,1.9471,1.9416,0.0,0.0,0.0,0.0,0.0,0.0,0.0,0.0,0.0,0.0,0.0,0.0,0.0,2.0769,0.0,0.0,2.0803,2.0643,0.0,0.0,0.0,2.0525,2.0626,1.9641,0.0,0.0,0.0,0.0,0.0,0.0,0.0,0.0,0.0,0.0,0.0,0.0,0.0,1.5375,1.5965,0.0,0.0,0.0,0.0,0.0,0.0,0.0,0.0,0.0,0.0,2.3238,2.304,2.2857,2.3065,2.3078,2.3078,2.3078,2.3078,2.3078,2.3078,2.2832,2.276,2.3065,2.3078,2.3078,2.3078,2.3078,2.3078,2.3078,2.3078,2.3078,2.3078,2.347,2.3593,2.3619,2.4178,2.4469,2.4468,2.5019,2.5281,2.5281,2.5635,2.6083,2.6533,2.6533,2.6357,2.6118,2.6102,2.6008,2.5787,0.0,0.0,0.0,0.0,0.0,0.0,0.0,0.0,0.0,0.0,0.0,0.0,0.0,0.0,0.0,0.0,1.9743,1.9743,1.9743,1.963,1.9555,1.9555,1.9413,1.9305,1.9305,1.9305,1.9305,1.9305,0.0,0.0,0.0,0.0,0.0,0.0,0.0,0.0,0.0,0.0,0.0,2.0904,2.0367,2.0908,0.0,0.0,2.1225,2.1172,2.1989,2.1837,2.1278,2.1855,2.0787,0.0,0.0,0.0,0.0,0.0,1.6248,0.0,0.0,0.0,0.0,0.0,0.0,0.0,1.4814,1.5806,1.6674,0.0,0.0,0.0,0.0,0.0,0.0,0.0,0.0,0.0,2.287,2.2598,2.2358,2.276,2.287,2.2955,2.304,2.304,2.3053,2.3078,2.3078,2.3078,2.3078,2.3078,2.3078,2.3078,2.3078,2.3078,2.3078,2.3078,2.3078,2.3078,2.3078,2.3078,2.3138,2.3666,2.3888,2.3905,2.4464,2.4718,2.4718,2.481,2.5401,2.6308,2.6308,2.6013,2.5523,2.55,2.5195,2.4808,2.0085,0.0,0.0,0.0,0.0,0.0,0.0,0.0,0.0,0.0,0.0,0.0,0.0,0.0,0.0,0.0,1.939,1.939,1.939,1.938,1.935,1.935,1.932,1.9305,1.9305,1.9305,1.9305,1.9305,0.0,0.0,0.0,0.0,0.0,0.0,0.0,0.0,0.0,0.0,0.0,1.9444,2.0516,0.0,2.0562,2.1684,2.1305,2.0416,2.1803,2.1837,2.1113,2.0606,2.0401,1.9915,0.0,0.0,0.0,1.6258,0.0,0.0,0.0,0.0,0.0,0.0,0.0,0.0,1.558,1.5816,1.6143,0.0,0.0,0.0,0.0,0.0,0.0,0.0,0.0,0.0,2.1133,2.1522,2.1548,2.1188,2.156,2.1958,2.2431,2.2455,2.265,2.3065,2.3078,2.3078,2.3078,2.3078,2.3078,2.3078,2.3078,2.3078,2.3078,2.3078,2.3078,2.3078,2.3078,2.3078,2.3078,2.3248,2.3273,2.3299,2.3912,2.4128,2.4202,2.4641,2.4935,2.5152,2.5152,2.5078,2.4976,2.4971,2.491,2.4811,2.0041,0.0,0.0,0.0,0.0,0.0,0.0,0.0,0.0,0.0,0.0,0.0,0.0,0.0,0.0,0.0,0.0,0.0,0.0,0.0,1.9305,1.9305,1.9305,1.9305,1.9305,1.9305,1.9305,1.9305,0.0,0.0,0.0,0.0,0.0,0.0,0.0,0.0,0.0,0.0,1.8229,1.9011,2.0152,0.0,2.0719,2.186,2.1809,2.1235,2.204,2.2073,2.163,2.0877,2.0586,0.0,0.0,1.8142,1.772,0.0,1.6425,1.6274,0.0,0.0,0.0,1.5799,0.0,0.0,0.0,1.5698,1.5939,1.6036,1.6502,1.6923,1.6942,0.0,0.0,0.0,0.0,1.8385,1.9284,2.0101,2.0781,2.1063,2.1319,2.1624,2.1861,2.1874,2.2031,2.2261,2.2273,2.2273,2.2273,2.2552,2.2675,2.2675,2.2955,2.3078,2.3078,2.3078,2.3078,2.3078,2.3078,2.3078,2.3078,2.3078,2.3078,2.3138,2.3444,2.3568,2.3568,2.3863,2.3928,2.402,2.4578,2.4668,2.4424,2.4418,2.4184,2.3927,1.9988,0.0,0.0,0.0,0.0,0.0,0.0,0.0,0.0,0.0,0.0,0.0,0.0,0.0,0.0,0.0,0.0,0.0,0.0,0.0,0.0,1.9323,1.9305,1.9305,1.9305,1.9305,1.9271,1.9234,0.0,0.0,0.0,0.0,0.0,0.0,0.0,0.0,0.0,0.0,0.0,1.9181,0.0,2.0533,2.107,2.1955,2.2226,2.2124,2.226,2.231,2.2164,2.1332,2.091,2.061,2.0,1.9006,0.0,0.0,0.0,0.0,0.0,0.0,0.0,0.0,0.0,1.5712,0.0,0.0,0.0,1.5464,1.6113,0.0,0.0,0.0,0.0,0.0,0.0,0.0,0.0,1.8832,0.0,2.086,2.0901,2.097,2.1168,2.1362,2.1528,2.1516,2.1619,2.1596,2.1541,2.1922,2.2204,2.2321,2.2735,2.2967,2.3078,2.3078,2.3078,2.3078,2.3078,2.3078,2.3078,2.3078,2.3078,2.3078,2.3078,2.3078,2.3078,2.3078,2.3078,2.3175,2.4099,2.421,2.3809,2.3831,2.3506,2.3078,1.9854,1.9734,0.0,0.0,0.0,0.0,0.0,0.0,0.0,0.0,0.0,0.0,0.0,0.0,0.0,0.0,0.0,0.0,1.9344,0.0,0.0,0.0,1.9305,1.9305,1.9305,1.9305,1.9216,1.902,0.0,0.0,0.0,0.0,0.0,0.0,1.7935,0.0,0.0,0.0,1.92,0.0,2.0754,2.0703,0.0,2.1752,2.1887,2.1397,2.2073,2.231,2.2119,0.0,2.0827,2.0881,0.0,1.8903,1.8659,1.8028,0.0,0.0,0.0,0.0,0.0,0.0,1.6011,0.0,0.0,0.0,1.5816,1.5743,0.0,0.0,0.0,0.0,0.0,0.0,0.0,0.0,1.7741,1.8058,1.8441,1.9107,1.8848,1.8946,1.9893,2.0977,2.1564,2.1485,2.202,2.2081,2.151,2.1564,2.1834,2.2284,2.2358,2.2637,2.3078,2.3078,2.3078,2.3078,2.3078,2.3078,2.3078,2.3078,2.3078,2.3078,2.3078,2.3078,2.3078,2.3078,2.3078,2.3138,2.3248,2.3261,2.3201,2.3217,2.3167,2.3078,1.9719,1.9645,0.0,0.0,0.0,0.0,0.0,0.0,0.0,0.0,0.0,0.0,0.0,0.0,0.0,0.0,0.0,2.1102,0.0,0.0,0.0,0.0,0.0,0.0,1.9305,1.9198,1.9091,1.9002,1.8843,0.0,0.0,0.0,0.0,0.0,1.7918,0.0,1.9123,0.0,1.9326,0.0,0.0,0.0,0.0,2.1691,2.2124,2.182,2.1701,2.1938,2.2085,0.0,2.0938,0.0,0.0,0.0,0.0,0.0,0.0,0.0,0.0,0.0,0.0,0.0,0.0,0.0,1.6376,0.0,1.5799,0.0,0.0,0.0,0.0,0.0,0.0,0.0,1.6287,0.0,0.0,0.0,1.7391,0.0,0.0,0.0,1.9749,1.9996,2.0074,2.004,2.0953,2.125,2.0656,2.1614,2.2089,2.1924,2.2185,2.2455,2.2637,2.265,2.2772,2.3078,2.3078,2.3078,2.3078,2.3078,2.3078,2.3078,2.3078,2.3078,2.3078,2.3078,2.3078,2.3078,2.3078,2.3078,2.3078,2.3078,2.3078,2.3078,1.954,0.0,0.0,0.0,0.0,0.0,0.0,0.0,0.0,0.0,0.0,0.0,2.0766,2.0455,0.0,0.0,2.1803,2.1795,0.0,0.0,2.0857,0.0,0.0,0.0,0.0,0.0,1.8963,1.8876,0.0,0.0,0.0,0.0,0.0,0.0,0.0,1.8318,1.9205,0.0,1.9638,2.0339,2.0542,2.0627,2.0728,2.1651,2.2124,2.2243,2.1684,2.1854,2.2096,2.0783,2.1063,0.0,2.0406,0.0,0.0,0.0,0.0,0.0,1.8708,0.0,0.0,0.0,0.0,0.0,0.0,0.0,0.0,0.0,0.0,0.0,0.0,0.0,0.0,0.0,0.0,1.6212,0.0,0.0,0.0,0.0,0.0,0.0,0.0,1.9258,1.9173,1.9003,2.0146,2.0486,1.9767,2.1046,2.1686,2.1341,2.1741,2.196,2.2056,2.2063,2.2346,2.287,2.287,2.2955,2.3078,2.3078,2.3078,2.3078,2.3078,2.3078,2.3078,2.3078,2.3078,2.3078,2.3078,2.3078,2.3078,2.3078,2.3078,2.3078,1.9378,1.9305,0.0,0.0,0.0,0.0,0.0,0.0,0.0,0.0,0.0,0.0,0.0,0.0,0.0,0.0,0.0,2.1795,2.1804,0.0,2.1753,0.0,0.0,1.9648,0.0,0.0,0.0,0.0,0.0,0.0,0.0,0.0,0.0,0.0,0.0,1.8217,1.8961,1.9664,2.0433,2.1237,2.1938,2.2243,2.2158,0.0,2.1667,2.231,2.2276,0.0,0.0,2.1414,2.1177,0.0,0.0,0.0,0.0,0.0,0.0,0.0,0.0,0.0,0.0,1.8543,0.0,0.0,0.0,0.0,1.6765,0.0,0.0,0.0,0.0,0.0,0.0,0.0,0.0,0.0,0.0,0.0,0.0,0.0,0.0,0.0,0.0,1.9144,1.9606,1.9053,2.0122,2.0285,1.9084,1.9576,2.017,2.071,2.0722,2.0992,2.1537,2.1502,2.1765,2.2346,2.2346,2.2565,2.3078,2.3078,2.3078,2.3078,2.3078,2.3078,2.3078,2.3078,2.3078,2.3078,2.3078,2.3078,2.3078,2.3078,2.3078,2.3078,0.0,0.0,0.0,0.0,0.0,0.0,0.0,1.9522,0.0,0.0,0.0,0.0,0.0,2.2094,2.1978,0.0,0.0,2.3162,2.2629,2.2593,0.0,0.0,0.0,2.0802,0.0,0.0,0.0,0.0,0.0,0.0,0.0,0.0,0.0,0.0,0.0,1.8217,0.0,0.0,0.0,0.0,0.0,2.1566,2.1583,0.0,2.209,2.231,2.231,2.231,0.0,2.1463,2.1507,2.1826,2.1362,2.0998,2.0935,2.1701,2.1015,0.0,0.0,0.0,2.0501,1.9928,0.0,0.0,0.0,0.0,0.0,0.0,0.0,0.0,0.0,0.0,0.0,0.0,0.0,0.0,0.0,0.0,0.0,0.0,0.0,0.0,0.0,0.0,1.7614,1.7785,1.862,1.8965,1.8545,1.9811,2.0439,2.025,2.0576,2.0811,2.0965,2.0942,2.123,2.1786,2.2147,2.2431,2.2565,2.2955,2.3078,2.3078,2.3078,2.3078,2.3078,2.3078,2.3078,2.3078,2.3078,2.3078,2.3078,2.3078,2.3078,2.3078,1.9871,0.0,0.0,0.0,0.0,0.0,0.0,0.0,0.0,0.0,2.1133,0.0,2.2858,0.0,2.2691,0.0,2.3212,2.3364,2.3417,2.2608,0.0,2.3388,2.2082,0.0,0.0,0.0,0.0,0.0,0.0,1.8025,0.0,0.0,0.0,0.0,0.0,1.8065,1.8572,0.0,2.0289,0.0,0.0,2.1373,0.0,0.0,2.2073,2.231,0.0,2.231,2.2231,2.1765,2.1911,2.2215,2.1748,2.1591,2.1687,2.2153,2.1591,2.0938,2.1463,2.16,0.0,2.0685,2.0183,0.0,1.9194,0.0,1.7772,0.0,0.0,0.0,0.0,0.0,0.0,0.0,0.0,0.0,0.0,1.6677,0.0,0.0,0.0,0.0,0.0,0.0,1.6777,1.6667,1.7401,1.7817,1.7654,1.9124,1.9858,1.9672,2.0156,2.0425,2.0412,2.0412,2.0682,2.1199,2.1559,2.1811,2.2043,2.2358,2.254,2.254,2.254,2.254,2.254,2.254,2.254,2.254,2.254,2.254,2.2565,2.2955,2.3078,2.3078,0.0,0.0,0.0,0.0,1.9341,0.0,0.0,0.0,2.1133,0.0,2.2299,2.2151,2.292,2.2352,2.2187,2.2884,2.2291,2.2504,2.397,2.1914,0.0,0.0,2.195,2.1402,2.2957,0.0,0.0,0.0,0.0,0.0,0.0,0.0,0.0,0.0,1.7811,0.0,1.7912,1.936,2.0018,2.012,2.0839,2.1583,2.2175,2.1475,2.1651,2.231,2.231,2.231,2.231,2.231,2.231,2.231,2.231,2.231,2.231,2.231,2.231,2.231,2.231,2.231,2.2023,2.0877,2.0565,0.0,0.0,0.0,1.9533,0.0,0.0,0.0,0.0,0.0,0.0,0.0,0.0,0.0,0.0,0.0,0.0,0.0,0.0,0.0,0.0,1.697,1.7015,1.5763,1.6481,1.6842,0.0,1.7514,1.8409,1.8951,1.9455,1.9734,1.9798,1.9786,2.0066,2.0682,2.0695,2.0941,2.1488,2.1512,2.1512,2.15,2.1584,2.1596,2.1512,2.1512,2.1512,2.1512,2.1512,2.15,2.1608,2.2648,2.3015,2.3053,2.0003,1.9576,1.936,0.0,1.9792,2.0258,0.0,0.0,0.0,0.0,2.2445,2.2773,2.2975,2.3361,2.3196,2.2187,2.2465,0.0,0.0,0.0,0.0,2.4155,2.3603,2.3177,2.3012,2.2008,0.0,2.1577,0.0,0.0,1.9549,0.0,0.0,0.0,0.0,0.0,1.7912,1.936,2.0365,2.0856,2.0467,2.078,2.146,0.0,2.1671,2.231,2.231,2.231,2.231,2.231,2.231,2.231,2.231,2.231,2.231,2.231,2.231,2.231,2.231,2.231,2.2231,2.1911,2.1435,2.0978,0.0,0.0,0.0,0.0,0.0,0.0,0.0,0.0,0.0,0.0,0.0,0.0,0.0,0.0,0.0,1.7288,0.0,0.0,1.6233,1.5676,1.5341,1.5384,1.5353,1.5479,1.588,0.0,1.7764,1.8386,1.8533,1.9013,1.9798,1.9379,1.9467,2.0054,2.0502,2.0757,2.0939,2.1781,2.19,2.1529,2.2484,2.2657,2.2178,2.2178,2.2178,2.2098,2.1689,2.1504,2.1527,2.1807,2.2147,2.2503,2.0208,0.0,0.0,1.9341,0.0,0.0,2.1071,2.148,0.0,2.2753,2.2955,0.0,2.3491,2.3913,2.384,2.2938,2.2612,0.0,2.2828,0.0,0.0,2.4129,2.3861,2.3456,2.3012,2.2538,0.0,2.189,0.0,0.0,1.9859,0.0,0.0,0.0,0.0,1.7811,1.7912,1.936,2.045,2.1162,2.0696,2.0993,0.0,2.1335,2.1674,2.231,2.231,2.231,2.231,2.231,2.231,2.231,2.231,2.231,2.231,2.231,2.231,2.231,2.231,2.231,2.2248,2.204,2.1667,2.1359,2.1359,2.0882,2.0482,0.0,2.0416,2.0114,0.0,0.0,0.0,0.0,0.0,0.0,0.0,0.0,0.0,0.0,1.6981,0.0,1.6727,1.5387,1.4634,1.4925,1.4745,1.4814,1.5222,0.0,1.7017,1.7446,1.815,1.8746,1.9114,1.9246,1.9531,1.9888,2.045,2.0875,2.1159,2.1809,2.1911,2.163,2.2332,2.2456,2.211,2.211,2.2101,2.2081,2.1703,2.1444,2.1199,2.1185,2.15,2.1993,0.0,0.0,0.0,0.0,0.0,0.0,0.0,2.2059,0.0,2.3876,0.0,2.337,2.3988,2.4153,2.4153,2.4042,0.0,2.2561,2.3948,2.2025,2.1821,2.4042,2.3508,2.3143,2.3079,2.2849,2.2557,0.0,0.0,0.0,0.0,0.0,0.0,0.0,0.0,0.0,0.0,1.935,2.0382,2.1196,2.1249,2.1623,2.2099,2.1592,2.1769,2.231,2.231,2.231,2.231,2.231,2.231,2.231,2.231,2.231,2.231,2.231,2.231,2.231,2.231,2.231,2.2215,2.1782,2.1687,2.1687,2.1687,2.1429,2.1278,2.162,2.1097,2.0495,0.0,0.0,0.0,0.0,0.0,0.0,0.0,0.0,0.0,0.0,0.0,0.0,1.7265,1.562,1.4602,1.4644,1.4613,1.4603,1.4695,0.0,1.6233,1.6386,1.7809,1.85,1.8325,1.9136,1.9787,2.0237,2.0599,2.1101,2.172,2.181,2.1787,2.1729,2.187,2.1924,2.1816,2.1816,2.1773,2.1713,2.1688,2.1361,2.0919,2.0926,2.1207,2.1565,0.0,0.0,0.0,0.0,0.0,2.1187,2.2574,2.3361,2.3656,2.325,2.3676,2.3805,2.327,2.3803,2.3913,2.3269,2.2959,0.0,0.0,0.0,0.0,2.3747,2.3913,2.3859,2.3584,2.3528,2.3466,0.0,0.0,0.0,0.0,0.0,0.0,0.0,0.0,0.0,1.9579,1.9236,0.0,2.1222,2.1443,2.148,2.1481,2.2175,2.2366,2.231,2.231,2.231,2.231,2.231,2.231,2.231,2.231,2.231,2.231,2.231,2.231,2.231,2.231,2.231,2.2265,2.2215,2.2198,2.2198,2.2198,2.2119,2.2078,2.216,2.2049,2.1821,2.1415,0.0,0.0,0.0,0.0,0.0,0.0,0.0,0.0,0.0,0.0,1.7145,0.0,1.5737,1.5098,1.5389,1.5156,1.4906,1.4711,0.0,1.5594,0.0,1.6105,1.7151,0.0,0.0,1.9473,2.1383,2.0998,2.1114,2.1737,2.2261,2.2235,2.1744,2.2805,2.2966,2.2497,2.2497,2.2193,2.1709,2.17,2.1627,2.1546,2.1555,2.1589,2.1589,0.0,0.0,0.0,0.0,0.0,0.0,0.0,2.3398,2.406,2.3674,2.3969,2.4042,2.3656,2.3969,2.4042,2.3656,2.3232,2.318,2.3598,2.3235,2.3226,2.3674,2.4024,2.385,2.3093,2.3482,2.3415,2.2821,0.0,0.0,0.0,0.0,0.0,0.0,0.0,1.8767,0.0,0.0,0.0,2.1239,2.1915,2.2106,2.2056,2.2702,2.2892,2.2779,2.2779,2.2666,2.2474,2.2344,2.231,2.231,2.231,2.231,2.231,2.231,2.231,2.231,2.231,2.231,2.231,2.231,2.231,2.231,2.231,2.2119,2.1936,2.1936,2.1778,2.1487,2.11,2.0643,0.0,0.0,0.0,0.0,0.0,0.0,0.0,0.0,0.0,0.0,0.0,1.6583,1.5768,0.0,0.0,0.0,0.0,0.0,1.5296,0.0,0.0,0.0,1.8182,0.0,2.0096,2.1275,2.1636,2.2091,2.2687,2.3008,2.2978,2.2701,2.3316,2.3419,2.3169,2.3169,2.2978,2.2687,2.2687,2.2513,2.2241,2.2202,2.1999,2.1712,0.0,2.0792,0.0,0.0,2.1073,0.0,2.2261,2.3232,2.4005,2.4171,2.419,2.419,2.419,2.419,2.4135,2.3951,2.3508,2.338,2.3675,2.3417,2.3293,2.3455,2.3861,2.3661,2.2772,2.3311,2.3151,0.0,0.0,0.0,0.0,0.0,0.0,0.0,0.0,0.0,0.0,0.0,2.1343,2.1608,2.2457,2.2798,2.2851,2.3189,2.3258,2.3206,2.3206,2.3015,2.2781,2.2569,2.2423,2.231,2.231,2.231,2.231,2.231,2.231,2.231,2.231,2.231,2.231,2.231,2.231,2.231,2.231,2.2006,2.1765,2.1765,2.1429,2.1072,2.0899,2.0954,0.0,0.0,0.0,0.0,0.0,0.0,0.0,0.0,0.0,0.0,1.8423,0.0,0.0,0.0,0.0,0.0,1.4239,0.0,0.0,0.0,0.0,1.7068,1.7468,0.0,2.0662,2.128,2.2233,2.3008,2.3595,2.3595,2.3595,2.3595,2.3595,2.3595,2.3595,2.3595,2.3595,2.3595,2.3595,2.3289,2.289,2.2893,2.2556,2.2161,0.0,0.0,0.0,0.0,0.0,0.0,2.3749,2.349,2.3379,2.4116,2.419,2.419,2.419,2.419,2.3914,2.318,2.3694,2.3491,2.2118,2.3326,2.3655,2.2659,2.3343,2.371,2.3599,2.336,2.3177,0.0,0.0,2.1445,0.0,0.0,0.0,0.0,0.0,0.0,0.0,2.115,2.1748,2.2683,2.3022,2.314,2.3186,2.3517,2.3462,2.3204,2.3204,2.3186,2.3133,2.3128,2.2762,2.231,2.231,2.231,2.231,2.231,2.231,2.231,2.231,2.231,2.231,2.231,2.231,2.231,2.231,2.2265,2.2231,2.2231,2.1877,2.1675,2.2061,2.1283,2.0339,0.0,0.0,0.0,0.0,0.0,1.814,1.8833,0.0,0.0,1.8348,1.7146,1.6111,0.0,1.5271,0.0,0.0,0.0,0.0,1.4719,1.5208,1.628,1.8014,1.8702,2.022,2.2522,2.2656,2.3008,2.3595,2.3595,2.3595,2.3595,2.3595,2.3595,2.3595,2.3595,2.3595,2.3595,2.3595,2.3566,2.3494,2.3522,2.3463,2.3435,0.0,0.0,0.0,0.0,0.0,0.0,0.0,2.3637,2.384,2.4153,2.419,2.419,2.419,2.419,2.4061,2.3749,2.4008,2.3934,2.329,2.384,2.3909,2.3252,2.3712,2.3816,2.3404,2.327,2.3093,0.0,0.0,0.0,0.0,0.0,0.0,0.0,0.0,2.0894,2.1239,2.167,2.2119,2.2553,2.3022,2.3197,2.325,2.3803,2.3913,2.3803,2.3803,2.3674,2.3505,2.349,2.3065,2.2553,2.2553,2.244,2.231,2.231,2.231,2.231,2.231,2.231,2.231,2.231,2.231,2.231,2.231,2.231,2.231,2.231,2.2136,2.2085,2.2265,2.1911,2.1351,2.0638,0.0,0.0,0.0,0.0,0.0,2.02,0.0,1.8864,0.0,1.8205,1.707,1.6714,0.0,0.0,0.0,0.0,0.0,1.5655,0.0,1.7107,1.8584,1.9097,2.031,2.2084,2.2507,2.3008,2.3595,2.3595,2.3595,2.3595,2.3595,2.3595,2.3595,2.3595,2.3595,2.3595,2.3595,2.3595,2.3595,2.3595,2.3595,2.3595,2.3713,0.0,2.2627,0.0,2.2975,2.327,2.3033,2.3675,2.4116,2.3878,2.4043,2.419,2.419,2.419,2.4098,2.3878,2.4063,2.4007,2.3529,2.3933,2.3984,2.351,2.3848,0.0,2.3369,2.3141,2.2947,2.2695,2.1811,0.0,0.0,0.0,0.0,0.0,2.1266,2.1513,2.1558,2.2085,2.2406,2.2587,2.3039,2.3327,2.3545,2.4024,2.419,2.419,2.419,2.3987,2.371,2.3821,2.3343,2.2712,2.2709,2.2536,2.231,2.231,2.231,2.231,2.231,2.231,2.231,2.231,2.231,2.231,2.231,2.231,2.231,2.231,2.231,2.231,2.231,2.231,2.2023,2.1161,0.0,0.0,0.0,1.9841,0.0,2.0759,1.9728,1.934,2.0329,1.8865,1.78,1.7702,0.0,0.0,0.0,0.0,0.0,0.0,0.0,0.0,1.8664,1.9161,2.0201,2.1704,2.2381,2.3008,2.361,2.3786,2.3831,2.3831,2.4008,2.3993,2.3831,2.4008,2.3889,2.361,2.3786,2.3728,2.3595,2.3595,2.3595,2.3595,2.4522,2.4319,2.4171,2.4171,2.4171,2.3915,2.3122,2.3676,2.3914,2.3125,2.3712,2.419,2.419,2.419,2.3878,2.3088,2.3731,2.3529,2.1931,2.3309,2.3841,0.0,0.0,2.3692,2.3692,2.3045,2.2695,2.2695,0.0,0.0,2.1475,0.0,2.1395,2.1223,2.196,2.231,2.231,2.231,2.2649,2.3187,2.3187,2.3605,2.419,2.419,2.419,2.419,2.419,2.3987,2.3747,2.4079,2.3545,2.2684,2.2694,2.2536,2.231,2.231,2.231,2.231,2.231,2.231,2.231,2.231,2.231,2.231,2.231,2.231,2.231,2.231,2.231,2.231,2.231,2.231,2.1928,2.0782,0.0,0.0,0.0,1.9514,0.0,1.9976,1.8775,1.848,1.9883,1.8716,0.0,0.0,0.0,0.0,0.0,0.0,0.0,1.6965,1.6542,0.0,1.8192,1.8527,1.9713,2.1698,2.2368,2.3008,2.361,2.4141,2.4364,2.4438,2.4973,2.4884,2.4438,2.4973,2.4557,2.3668,2.4157,2.4053,2.3595,2.3595,2.3595,2.3595,2.3637,2.4744,2.5646,2.5114,2.5472,2.5558,2.4776,2.4853,2.4726,2.3914,2.4043,2.419,2.419,2.419,2.4098,0.0,2.3547,2.34,0.0,2.34,2.3511,2.3804,2.3453,2.3117,2.2878,2.2672,2.2341,2.1883,0.0,0.0,0.0,2.1615,2.1674,2.196,2.2207,2.231,2.231,2.2491,2.2683,2.2897,2.3372,2.3668,2.3876,2.4116,2.419,2.419,2.419,2.4135,2.4054,2.4159,2.384,2.3386,2.3371,2.3022,2.257,2.257,2.257,2.2536,2.2344,2.231,2.231,2.231,2.231,2.231,2.231,2.231,2.231,2.231,2.231,2.231,2.231,2.231,2.2023,2.1144,2.1532,0.0,2.0788,0.0,2.0694,2.0805,1.9932,1.9712,2.0711,1.9932,0.0,0.0,0.0,0.0,0.0,0.0,0.0,0.0,1.8908,0.0,2.0115,1.9767,2.0619,2.2651,2.2879,2.3575,2.4691,2.4884,2.4936,2.4936,2.5139,2.5106,2.4936,2.5139,2.5013,2.465,2.4471,2.43,2.4111,2.3713,2.3595,2.3595,2.475,2.5738,2.6536,2.605,2.6319,2.6337,2.5517,2.5399,2.5096,2.4302,2.4209,2.419,2.419,2.419,0.0,2.419,2.3749,2.3657,2.4171,2.3731,2.3676,2.4171,2.3731,2.3286,2.2971,2.295,0.0,2.215,2.2435,2.2429,2.2104,2.1912,2.199,2.231,2.231,2.2361,2.2457,2.2649,2.2865,2.3109,2.3524,2.3785,2.3895,2.4135,2.419,2.419,2.419,2.4135,2.4037,2.4177,2.3889,2.3557,2.3798,2.352,2.3052,2.2923,2.2876,2.2813,2.2536,2.2457,2.244,2.2327,2.231,2.231,2.231,2.231,2.231,2.231,2.231,2.231,2.231,2.231,2.2136,2.1687,2.2006,2.2136,2.1687,0.0,2.1207,0.0,0.0,0.0,0.0,2.0737,2.0372,0.0,0.0,0.0,0.0,0.0,1.9098,1.9972,1.9874,2.0127,2.0809,2.0553,2.1327,2.3102,2.3654,2.4334,2.5203,2.5425,2.5508,2.5514,2.5681,2.5648,2.5514,2.5681,2.5433,2.4904,2.4745,2.4462,2.4038,2.3713,2.3595,2.3595,2.7261,2.7147,2.708,0.0,2.6895,0.0,2.5728,2.5539,2.5226,2.4413,2.4247,2.419,2.419,2.419,2.419,2.419,0.0,0.0,0.0,2.4153,2.4135,2.419,2.4153,2.3963,2.3663,2.3663,2.3512,2.3259,2.2923,2.2599,2.2349,2.2349,2.2338,2.2327,2.2344,2.2491,2.2745,2.276,2.3116,2.3692,2.3729,2.3913,2.419,2.419,2.419,2.419,2.419,2.4005,2.3785,2.4079,2.3803,2.3379,2.4005,2.3987,2.3674,2.3343,2.3247,2.3144,2.285,2.2733,2.2649,2.2378,2.231,2.231,2.231,2.231,2.231,2.231,2.231,2.231,2.231,2.231,2.231,2.231,2.231,2.2293,2.2226,2.1615,2.1191,0.0,0.0,0.0,2.1136,2.1254,2.1271,0.0,0.0,0.0,0.0,0.0,1.9084,2.0137,1.986,2.0031,2.0685,2.1075,2.1931,2.3293,2.4647,2.528,2.533,2.5799,2.6034,2.6051,2.6522,2.6438,2.6101,2.6522,2.5862,2.4602,2.5092,2.4632,2.3752,2.3681,2.3681,2.3681,0.0,0.0,2.884,2.8239,2.8581,2.8684,2.7904,2.7059,2.6259,2.5444,2.469,2.419,2.419,2.419,2.419,2.419,2.3639,2.3547,2.4153,2.3639,2.3566,2.4171,2.3621,2.3253,2.3178,2.3178,2.3414,2.3958,2.3369,2.3063,2.3007,2.3007,2.2834,2.2604,2.2875,2.3022,2.3106,2.3353,2.3547,2.371,2.3987,2.4135,2.419,2.419,2.419,2.419,2.419,2.4153,2.4079,2.4171,2.4079,2.3987,2.4153,2.4153,2.4024,2.3674,2.3569,2.3509,2.316,2.2895,2.2683,2.2604,2.2457,2.231,2.231,2.231,2.231,2.231,2.231,2.231,2.231,2.231,2.231,2.231,2.231,2.2084,2.1532,2.1312,2.0985,0.0,2.0653,2.0974,2.1187,2.1701,2.1803,0.0,0.0,2.0991,2.1204,2.0786,2.0911,2.1725,2.1669,2.1995,2.2719,2.2824,2.3597,2.5026,2.5933,2.632,2.6371,2.6488,2.6539,2.6539,2.6657,2.664,2.6539,2.6657,2.6488,2.6125,2.5901,2.568,2.5335,2.4511,2.4184,2.4184,2.8157,2.9017,2.9698,2.9262,2.9474,2.9544,2.9129,2.7905,2.6839,2.6319,2.5115,2.4303,2.4209,2.419,2.419,2.419,2.3804,2.3731,2.4171,2.3786,2.3749,2.4171,2.3786,2.3547,2.3547,2.3547,2.3692,2.3976,2.3628,2.3346,2.3189,2.3206,2.3095,2.2944,2.3126,2.3276,2.3436,2.3619,2.3803,2.395,2.4135,2.419,2.419,2.419,2.419,2.419,2.419,2.419,2.419,2.419,2.419,2.419,2.419,2.419,2.4153,2.3987,2.3913,2.3858,2.3527,2.33,2.3077,2.2798,2.2491,2.231,2.231,2.231,2.231,2.231,2.231,2.231,2.231,2.231,2.231,2.231,2.201,2.1649,2.1259,2.0891,2.0634,2.0568,2.0923,2.1339,2.1667,2.2073,2.2141,2.1735,2.138,0.0,2.1684,2.1363,2.1532,2.2293,2.2632,2.3004,2.3393,2.4069,2.4983,2.6116,2.6505,2.6691,2.6691,2.6691,2.6691,2.6691,2.6691,2.6691,2.6691,2.6691,2.659,2.6367,2.612,2.5852,2.5577,2.4973,2.4792,2.4792,3.0398,3.0225,3.0071,3.0071,2.9925,2.9771,2.9625,2.8268,2.7158,2.6856,2.5495,2.4461,2.4284,2.4247,2.4228,2.419,2.419,2.419,2.419,2.419,2.419,2.419,2.419,2.419,2.419,2.419,2.4074,2.3774,2.3774,2.3588,2.3277,2.3342,2.3324,2.328,2.3333,2.3508,2.3785,2.3785,2.395,2.419,2.419,2.419,2.419,2.419,2.419,2.419,2.419,2.419,2.419,2.419,2.419,2.419,2.419,2.419,2.419,2.419,2.419,2.4153,2.3858,2.3729,2.3544,2.2936,2.257,2.2361,2.2361,2.2327,2.231,2.231,2.231,2.231,2.231,2.231,2.226,2.2152,2.1608,2.1156,2.1037,0.0,2.0489,2.1181,2.1368,2.1664,2.2309,2.2321,2.231,2.231,2.1718,2.1634,2.2276,2.1701,2.1701,2.2446,2.3071,2.3511,2.3731,2.5084,2.6082,2.6691,2.6691,2.6691,2.6691,2.6691,2.6691,2.6691,2.6691,2.6691,2.6691,2.6691,2.6487,2.612,2.612,2.5835,2.5411,2.5335,2.5335,2.5335,3.0398,3.0359,3.034,3.034,3.0302,3.004,2.9306,2.8249,2.7267,2.6489,2.5441,2.467,2.4478,2.4444,2.4393,2.4209,2.419,2.419,2.419,2.419,2.419,2.419,2.419,2.419,2.419,2.419,2.417,2.4113,2.4113,2.3937,2.3628,2.3894,2.3889,2.3634,2.3921,2.406,2.4135,2.4135,2.4153,2.419,2.419,2.419,2.419,2.419,2.419,2.419,2.419,2.419,2.419,2.419,2.419,2.419,2.419,2.419,2.419,2.419,2.419,2.419,2.4153,2.3913,2.3599,2.3214,2.2892,2.2649,2.2649,2.2457,2.231,2.231,2.231,2.231,2.231,2.231,2.2112,2.1473,2.1285,2.0976,2.0294,0.0,2.1394,2.1502,2.2082,2.2496,2.2634,2.2409,2.231,2.231,2.2192,2.2192,2.231,2.2192,2.2479,2.3207,2.3342,2.4002,2.5253,2.6099,2.659,2.6691,2.6691,2.6691,2.6691,2.6691,2.6691,2.6691,2.6691,2.6691,2.6691,2.6691,2.6657,2.659,2.659,2.6539,2.6436,2.6033,2.5888,2.5888,3.0398,3.0398,3.0398,3.0398,3.0002,2.9571,2.9154,2.7928,2.6875,2.6374,2.5485,2.4809,2.4526,2.4495,2.4428,2.4209,2.419,2.419,2.419,2.419,2.419,2.419,2.419,2.419,2.419,2.419,2.419,2.419,2.419,2.4113,2.3976,2.4132,2.413,2.3969,2.4112,2.419,2.419,2.419,2.419,2.419,2.419,2.419,2.419,2.419,2.419,2.419,2.419,2.419,2.419,2.419,2.419,2.419,2.419,2.419,2.419,2.419,2.419,2.419,2.419,2.3969,2.3668,2.3526,2.3218,2.2959,2.2987,2.2868,2.2773,2.2773,2.2647,2.2536,2.2536,2.2515,2.2384,2.2055,2.1668,0.0,2.1173,2.14,2.1668,2.1855,2.2516,2.2972,2.2972,2.2857,2.2773,2.2773,2.2616,2.2527,2.2527,2.2762,2.3224,2.3951,2.4374,2.5101,2.6184,2.6522,2.6691,2.6691,2.6691,2.6691,2.6691,2.6691,2.6691,2.6691,2.6691,2.6691,2.6691,2.6691,2.6691,2.6691,2.6691,2.6691,2.6657,2.647,2.6367,2.6367,3.0398,3.0244,3.011,3.011,2.9394,2.8752,2.856,2.744,2.6472,2.6109,2.548,2.4943,2.4604,2.4559,2.4461,2.4228,2.419,2.419,2.419,2.419,2.419,2.419,2.419,2.419,2.419,2.419,2.419,2.419,2.419,2.419,2.419,2.419,2.419,2.419,2.419,2.419,2.419,2.419,2.419,2.419,2.419,2.419,2.419,2.419,2.419,2.419,2.419,2.419,2.419,2.419,2.419,2.419,2.419,2.419,2.419,2.419,2.419,2.419,2.419,2.4005,2.3821,2.3821,2.3563,2.3317,2.332,2.3259,2.32,2.3212,2.2997,2.2829,2.2829,2.2825,2.2765,2.259,0.0,2.1803,2.2056,2.1942,2.1972,2.2416,2.2967,2.3323,2.3323,2.3253,2.3189,2.3189,2.2972,2.2822,2.2822,2.334,2.4059,2.4983,2.5552,2.6133,2.6691,2.6691,2.6691,2.6691,2.6691,2.6691,2.6691,2.6691,2.6691,2.6691,2.6691,2.6758,2.6841,2.6758,2.6808,2.6971,2.6873,2.6906,2.6971,2.6873,2.6841,2.6825,3.0398,2.9752,2.919,2.919,2.8533,2.772,2.692,2.667,2.6314,2.5485,2.5322,2.5141,2.4799,2.4775,2.4623,2.4228,2.419,2.419,2.419,2.419,2.419,2.419,2.419,2.419,2.419,2.419,2.419,2.419,2.419,2.419,2.419,2.419,2.419,2.419,2.419,2.419,2.419,2.419,2.419,2.419,2.419,2.419,2.419,2.419,2.419,2.419,2.419,2.419,2.419,2.419,2.419,2.419,2.419,2.419,2.419,2.419,2.419,2.419,2.419,2.4171,2.4153,2.4153,2.3895,2.3649,2.366,2.3424,2.3213,2.3218,2.3183,2.3177,2.3177,2.3159,2.2935,2.2251,0.0,0.0,2.21,2.2353,2.2808,2.3491,2.3635,2.3671,2.3671,2.3392,2.3189,2.3189,2.3165,2.3165,2.3165,2.3883,2.5031,2.6596,2.6619,2.664,2.6691,2.6691,2.6691,2.6691,2.6691,2.6691,2.6691,2.6691,2.6691,2.6691,2.6691,2.6906,2.7241,2.6841,2.7147,2.7765,2.7378,2.747,2.7783,2.7378,2.7272,2.721,2.9713,2.9337,2.8933,2.845,2.767,2.6986,2.6651,2.614,2.5659,2.5341,2.5303,2.5203,2.4956,2.4911,2.4836,2.4591,2.4461,2.4393,2.4393,2.4266,2.419,2.419,2.419,2.419,2.419,2.419,2.419,2.419,2.419,2.419,2.419,2.419,2.419,2.419,2.419,2.419,2.419,2.419,2.419,2.4209,2.4339,2.4393,2.4393,2.4393,2.4393,2.4375,2.4247,2.419,2.419,2.419,2.419,2.419,2.419,2.419,2.419,2.419,2.419,2.419,2.419,2.419,2.419,2.419,2.4116,2.4003,2.3994,2.3899,2.3824,2.3837,2.3631,2.3522,2.3522,2.3522,2.3414,2.3127,0.0,2.3156,2.3381,2.3322,2.3451,2.3959,2.4016,2.4016,2.4016,2.3896,2.3816,2.3816,2.3628,2.3737,2.4239,2.528,2.6384,2.7465,2.7449,2.7439,2.7439,2.7439,2.7439,2.7439,2.7439,2.7317,2.7083,2.7317,2.7303,2.7083,2.7334,2.753,2.7648,2.7517,2.7619,2.7897,2.7725,2.7783,2.7869,2.7725,2.7648,2.7648,2.9286,2.8722,2.8179,2.7614,2.6776,2.6198,2.6198,2.5678,2.5303,2.5303,2.5303,2.5215,2.5023,2.4996,2.4937,2.4818,2.467,2.4591,2.4591,2.441,2.4284,2.419,2.419,2.419,2.419,2.419,2.419,2.419,2.419,2.419,2.419,2.419,2.419,2.419,2.419,2.419,2.419,2.4284,2.4284,2.4321,2.4512,2.4591,2.4591,2.4591,2.4591,2.4594,2.4445,2.4339,2.4284,2.4284,2.4266,2.419,2.419,2.419,2.419,2.419,2.419,2.419,2.419,2.419,2.419,2.419,2.419,2.419,2.419,2.419,2.419,2.419,2.4016,2.3876,2.3876,2.3876,2.3876,2.3876,2.3876,2.3937,2.417,2.3996,2.3937,2.417,2.419,2.419,2.419,2.419,2.419,2.419,2.3996,2.433,2.5383,2.6495,2.7448,2.8237,2.8246,2.8246,2.8246,2.801,2.7897,2.7897,2.7897,2.7754,2.75,2.7765,2.7754,2.75,2.7783,2.7954,2.8047,2.7954,2.8037,2.8228,2.812,2.8129,2.8228,2.8102,2.8047,2.8047,2.9279,2.7901,2.6699,2.6699,2.5919,2.5303,2.5303,2.5303,2.5303,2.5303,2.5303,2.5226,2.5024,2.4996,2.4949,2.4818,2.4804,2.4804,2.4804,2.4607,2.4409,2.4209,2.419,2.419,2.419,2.419,2.419,2.419,2.419,2.419,2.419,2.419,2.419,2.419,2.419,2.419,2.4209,2.4428,2.4495,2.4528,2.4716,2.4804,2.4804,2.4804,2.4804,2.4804,2.4804,2.467,2.4512,2.4512,2.4375,2.419,2.419,2.419,2.419,2.419,2.419,2.419,2.419,2.419,2.419,2.419,2.419,2.419,2.419,2.419,2.419,2.419,2.419,2.419,2.419,2.419,2.419,2.419,2.419,2.419,2.419,2.419,2.419,2.419,2.419,2.419,2.419,2.419,2.419,2.419,2.4208,2.4924,2.6521,2.7365,2.8172,2.8957,2.8994,2.8994,2.8994,2.8281,2.7897,2.7897,2.7897,2.7897,2.7897,2.7897,2.7897,2.7897,2.7897,2.8102,2.8394,2.8047,2.8352,2.8952,2.8565,2.8658,2.8952,2.854,2.8402,2.8368,2.7686,2.7128,2.6582,2.5965,2.562,2.5428,2.539,2.537,2.5341,2.5303,2.5303,2.5284,2.5226,2.5215,2.5192,2.5149,2.5018,2.4904,2.4804,2.4746,2.4685,2.4623,2.4339,2.419,2.419,2.419,2.419,2.419,2.419,2.419,2.419,2.419,2.4284,2.441,2.4247,2.4266,2.4409,2.4478,2.4495,2.4528,2.4804,2.4937,2.4937,2.4937,2.4937,2.4943,2.4828,2.476,2.4716,2.4716,2.467,2.4623,2.4623,2.4623,2.4591,2.4444,2.441,2.4375,2.4247,2.419,2.419,2.419,2.419,2.419,2.419,2.419,2.419,2.419,2.419,2.419,2.419,2.419,2.419,2.419,2.419,2.419,2.419,2.419,2.419,2.419,2.419,2.419,2.419,2.419,2.419,2.419,2.5254,2.6337,2.7383,2.8209,2.8737,2.8975,2.8994,2.8994,2.8994,2.8791,2.8676,2.8676,2.8676,2.8533,2.8264,2.8533,2.8533,2.8264,2.8558,2.8725,2.8815,2.87,2.8791,2.8994,2.8863,2.8887,2.8994,2.8863,2.8815,2.8815,2.6992,2.6582,2.6166,2.5629,2.5517,2.5479,2.544,2.5429,2.5428,2.539,2.539,2.537,2.5341,2.5341,2.5322,2.5303,2.5192,2.5077,2.5,2.4923,2.4877,2.4877,2.4607,2.441,2.4321,2.4247,2.419,2.419,2.419,2.419,2.419,2.4284,2.4393,2.4495,2.4444,2.4512,2.4623,2.4682,2.4693,2.4723,2.5018,2.5111,2.5111,2.5111,2.5111,2.5118,2.5024,2.4949,2.4877,2.4877,2.4842,2.4804,2.4804,2.4804,2.476,2.4561,2.4495,2.4444,2.4247,2.419,2.419,2.419,2.419,2.419,2.419,2.419,2.419,2.419,2.419,2.419,2.419,2.419,2.419,2.419,2.419,2.419,2.419,2.419,2.419,2.419,2.419,2.419,2.419,2.419,2.4318,2.4649,2.5878,2.6961,2.775,2.8576,2.8994,2.8994,2.8994,2.8994,2.8994,2.8994,2.8994,2.8994,2.8994,2.8863,2.8658,2.8905,2.8863,2.8658,2.8887,2.8994,2.8994,2.8994,2.8994,2.8994,2.8994,2.8994,2.8994,2.8994,2.8994,2.8994,2.6875,2.6191,2.5605,2.5605,2.5566,2.5527,2.5508,2.5517,2.5513,2.5493,2.5495,2.5486,2.5428,2.5409,2.539,2.5322,2.5322,2.5322,2.5303,2.5141,2.5022,2.5022,2.4891,2.4727,2.4543,2.4357,2.4247,2.4247,2.4247,2.4247,2.4266,2.4426,2.4526,2.4543,2.4731,2.4804,2.4832,2.4949,2.501,2.5022,2.5214,2.5303,2.5303,2.5303,2.5303,2.5303,2.5303,2.5173,2.5022,2.5022,2.4943,2.4828,2.4828,2.4828,2.4804,2.4591,2.4528,2.4478,2.4266,2.419,2.419,2.419,2.419,2.419,2.419,2.419,2.419,2.419,2.419,2.419,2.419,2.419,2.419,2.419,2.419,2.419,2.419,2.419,2.419,2.419,2.419,2.419,2.419,2.4263,2.463,2.5458,2.6245,2.7053,2.786,2.8613,2.8994,2.8994,2.8994,2.8994,2.8994,2.8994,2.8994,2.8994,2.8994,2.8994,2.8994,2.8994,2.8994,2.8994,2.8994,2.8994,2.8994,2.8994,2.8994,2.8994,2.8994,2.8994,2.8994,2.8994,2.8994,2.8994,2.5977,2.582,2.5684,2.5684,2.5664,2.5644,2.5586,2.558,2.5568,2.5508,2.5506,2.5486,2.5486,2.5486,2.5466,2.5466,2.5466,2.5428,2.539,2.534,2.5282,2.5243,2.5053,2.4937,2.4898,2.4756,2.467,2.467,2.467,2.467,2.467,2.4716,2.4799,2.4898,2.4828,2.4869,2.4962,2.4998,2.501,2.5022,2.5214,2.5303,2.5303,2.5303,2.5303,2.5303,2.5303,2.5274,2.5224,2.5224,2.5222,2.5182,2.5182,2.5182,2.5126,2.4814,2.4731,2.4654,2.4303,2.419,2.419,2.419,2.419,2.419,2.419,2.419,2.419,2.419,2.419,2.419,2.419,2.419,2.419,2.419,2.419,2.419,2.419,2.419,2.419,2.419,2.419,2.419,2.419,2.4759,2.5456,2.6282,2.709,2.7897,2.8705,2.8902,2.8994,2.8994,2.8994,2.8994,2.8994,2.8994,2.8994,2.8994,2.8994,2.8994,2.8994,2.8994,2.8994,2.8994,2.8994,2.8994,2.8994,2.8994,2.8994,2.8994,2.8994,2.8994,2.8994,2.8994,2.8994,2.8994,2.5703,2.5703,2.5703,2.5703,2.5703,2.5684,2.5644,2.5644,2.5644,2.5605,2.5606,2.5576,2.5556,2.5551,2.5534,2.5495,2.5495,2.5495,2.5456,2.5455,2.5428,2.5341,2.5241,2.519,2.5152,2.5072,2.4949,2.4804,2.4804,2.4804,2.4804,2.4869,2.4924,2.501,2.5037,2.5072,2.5152,2.5152,2.5171,2.519,2.5264,2.5322,2.5341,2.5303,2.5303,2.5303,2.5303,2.5303,2.5303,2.5303,2.5303,2.5303,2.5303,2.5303,2.5233,2.4902,2.4804,2.4716,2.4321,2.419,2.419,2.419,2.419,2.419,2.419,2.419,2.419,2.419,2.419,2.419,2.419,2.419,2.419,2.419,2.419,2.419,2.419,2.419,2.419,2.419,2.419,2.4355,2.474,2.5164,2.5878,2.7071,2.7548,2.8154,2.8957,2.8994,2.8994,2.8994,2.8994,2.8994,2.8994,2.8994,2.8994,2.8994,2.8994,2.8994,2.8994,2.8994,2.8994,2.8994,2.8994,2.8994,2.8994,2.8994,2.8994,2.8994,2.8994,2.8994,2.8994,2.8994,2.8994,2.8994,2.5703,2.5703,2.5703,2.5703,2.5703,2.5703,2.5703,2.5703,2.5703,2.5703,2.5703,2.5684,2.5625,2.562,2.5598,2.5539,2.552,2.552,2.552,2.5525,2.549,2.5416,2.5428,2.539,2.5341,2.5322,2.5179,2.4888,2.4888,2.4888,2.4902,2.5005,2.5046,2.5065,2.5224,2.5303,2.5303,2.5303,2.5341,2.5409,2.536,2.537,2.539,2.5341,2.5303,2.5303,2.5303,2.5303,2.5303,2.5303,2.5303,2.5303,2.5303,2.5303,2.5243,2.4923,2.4828,2.4756,2.441,2.4303,2.4303,2.4303,2.4266,2.4266,2.4266,2.4228,2.419,2.419,2.419,2.419,2.419,2.419,2.419,2.419,2.419,2.419,2.419,2.419,2.419,2.419,2.419,2.452,2.5329,2.5531,2.6209,2.7677,2.7934,2.8301,2.8957,2.8994,2.8994,2.8994,2.8994,2.8994,2.8994,2.8994,2.8994,2.8994,2.8994,2.8994,2.8994,2.8994,2.8994,2.8994,2.8994,2.8994,2.8994,2.8994,2.8994,2.8994,2.8994,2.8994,2.8994,2.8994,2.8994,2.8994,2.5703,2.5703,2.5703,2.5703,2.5703,2.5703,2.5703,2.5703,2.5703,2.5703,2.5703,2.5703,2.5684,2.5683,2.5682,2.5662,2.5662,2.5643,2.5584,2.5581,2.5559,2.5488,2.5479,2.5486,2.5466,2.5428,2.5351,2.5233,2.5233,2.5233,2.5233,2.5253,2.5264,2.5264,2.5303,2.5303,2.5303,2.537,2.539,2.5409,2.5441,2.5452,2.5409,2.539,2.5341,2.5303,2.5303,2.5303,2.5303,2.5303,2.5303,2.5303,2.5303,2.5303,2.5264,2.5041,2.4974,2.4937,2.4756,2.4716,2.4716,2.4716,2.4575,2.4461,2.4461,2.4321,2.419,2.419,2.419,2.419,2.419,2.419,2.419,2.419,2.419,2.419,2.419,2.419,2.419,2.419,2.419,2.452,2.5329,2.6025,2.6814,2.7732,2.8448,2.8906,2.8975,2.8994,2.8994,2.8994,2.8994,2.8994,2.8994,2.8994,2.8994,2.8994,2.8994,2.8994,2.8994,2.8994,2.8994,2.8994,2.8994,2.8994,2.8994,2.8994,2.8994,2.8994,2.8994,2.8994,2.8994,2.8994,2.8994,2.8994,2.5703,2.5703,2.5703,2.5703,2.5703,2.5703,2.5703,2.5703,2.5703,2.5703,2.5703,2.5703,2.5703,2.5703,2.5703,2.5703,2.5703,2.5684,2.5664,2.5664,2.5623,2.5568,2.5556,2.5532,2.5498,2.5422,2.5404,2.5409,2.537,2.537,2.537,2.537,2.539,2.5409,2.537,2.539,2.5409,2.5447,2.5486,2.5505,2.5453,2.5441,2.5452,2.536,2.5322,2.5303,2.5303,2.5303,2.5303,2.5303,2.5303,2.5303,2.5303,2.5303,2.5264,2.5046,2.501,2.4974,2.4828,2.4804,2.4804,2.4804,2.4654,2.4495,2.4495,2.4339,2.419,2.419,2.419,2.419,2.419,2.419,2.419,2.419,2.419,2.419,2.419,2.419,2.4247,2.4357,2.4869,2.5515,2.6337,2.7158,2.7979,2.8801,2.9191,2.9334,2.9225,2.9225,2.9156,2.9017,2.8994,2.8994,2.8994,2.8994,2.8994,2.8994,2.8994,2.8994,2.8994,2.8994,2.8994,2.8994,2.8994,2.8994,2.8994,2.8994,2.8994,2.8994,2.8994,2.8994,2.8994,2.8994,2.8994,2.8994]},{"header":{"parameterUnit":"m.s-1","parameterCategory":1,"la1":30.6,"la2":28.766,"lo1":-90.7593,"lo2":-88.6598,"dy":0.0162,"dx":0.0183,"nx":116,"ny":114,"refTime":"2023-09-13T00:00:00:Z","depth":0,"parameterNumber":3,"parameterNumberName":"V-component_of_WINDS"},"data":[0.0,0.0,0.0,0.0,0.0,0.0,0.0,0.0,0.0,0.0,0.0,0.0,0.0,0.0,0.0,0.0,0.0,0.0,0.0,0.0,0.0,0.0,0.0,0.0,0.0,0.0,0.0,0.0,0.0,0.0,0.0,0.0,0.0,0.0,0.0,0.0,0.0,0.0,0.0,0.0,0.0,0.0,0.0,0.0,0.0,0.0,0.0,0.0,0.0,0.0,0.0,0.0,0.0,0.0,0.0,0.0,0.0,0.0,0.0,0.0,0.0,0.0,0.0,0.0,0.0,0.0,0.0,0.0,0.0,0.0,0.0,0.0,0.0,0.0,0.0,0.0,0.0,0.0,0.0,0.0,0.0,0.0,0.0,0.0,0.0,0.0,0.0,0.0,0.0,0.0,0.0,0.0,0.0,0.0,0.0,0.0,0.0,0.0,0.0,0.0,0.0,0.0,0.0,0.0,0.0,0.0,0.0,0.0,0.0,0.0,0.0,0.0,0.0,0.0,0.0,0.0,0.0,0.0,0.0,0.0,0.0,0.0,0.0,0.0,0.0,0.0,0.0,0.0,0.0,0.0,0.0,0.0,0.0,0.0,0.0,0.0,0.0,0.0,0.0,0.0,0.0,0.0,0.0,0.0,0.0,0.0,0.0,0.0,0.0,0.0,0.0,0.0,0.0,0.0,0.0,0.0,0.0,0.0,0.0,0.0,0.0,0.0,0.0,0.0,0.0,0.0,0.0,0.0,0.0,0.0,0.0,0.0,0.0,0.0,0.0,0.0,0.0,0.0,0.0,0.0,0.0,0.0,0.0,0.0,0.0,0.0,0.0,0.0,0.0,0.0,0.0,0.0,0.0,0.0,0.0,0.0,0.0,0.0,0.0,0.0,0.0,0.0,0.0,0.0,0.0,0.0,0.0,0.0,0.0,0.0,0.0,0.0,0.0,0.0,0.0,0.0,0.0,0.0,0.0,0.0,0.0,0.0,0.0,0.0,0.0,0.0,0.0,0.0,0.0,0.0,0.0,0.0,0.0,0.0,0.0,0.0,0.0,0.0,0.0,0.0,0.0,0.0,0.0,0.0,0.0,0.0,0.0,0.0,0.0,0.0,0.0,0.0,0.0,0.0,0.0,0.0,0.0,0.0,0.0,0.0,0.0,0.0,0.0,0.0,0.0,0.0,0.0,0.0,0.0,0.0,0.0,0.0,0.0,0.0,0.0,0.0,0.0,0.0,0.0,0.0,0.0,0.0,0.0,0.0,0.0,0.0,0.0,0.0,0.0,0.0,0.0,0.0,0.0,0.0,0.0,0.0,0.0,0.0,0.0,0.0,0.0,0.0,0.0,0.0,0.0,0.0,0.0,0.0,0.0,0.0,0.0,0.0,0.0,0.0,0.0,0.0,0.0,0.0,0.0,0.0,0.0,0.0,0.0,0.0,0.0,0.0,0.0,0.0,0.0,0.0,0.0,0.0,0.0,0.0,0.0,0.0,0.0,0.0,0.0,0.0,0.0,0.0,0.0,0.0,0.0,0.0,0.0,0.0,0.0,0.0,0.0,0.0,0.0,0.0,0.0,0.0,0.0,0.0,0.0,0.0,0.0,0.0,0.0,0.0,0.0,0.0,0.0,0.0,0.0,0.0,0.0,0.0,0.0,0.0,0.0,0.0,0.0,0.0,0.0,0.0,0.0,0.0,0.0,0.0,0.0,0.0,0.0,0.0,0.0,0.0,0.0,0.0,0.0,0.0,0.0,0.0,0.0,0.0,0.0,0.0,0.0,0.0,0.0,0.0,0.0,0.0,0.0,0.0,0.0,0.0,0.0,0.0,0.0,0.0,0.0,0.0,0.0,0.0,0.0,0.0,0.0,0.0,0.0,0.0,0.0,0.0,0.0,0.0,0.0,0.0,0.0,0.0,0.0,0.0,0.0,0.0,0.0,0.0,0.0,0.0,0.0,0.0,0.0,0.0,0.0,0.0,0.0,0.0,0.0,0.0,0.0,0.0,0.0,0.0,0.0,0.0,0.0,0.0,0.0,0.0,0.0,0.0,0.0,0.0,0.0,0.0,0.0,0.0,0.0,0.0,0.0,0.0,0.0,0.0,0.0,0.0,0.0,0.0,0.0,0.0,0.0,0.0,0.0,0.0,0.0,0.0,0.0,0.0,0.0,0.0,0.0,0.0,0.0,0.0,0.0,0.0,0.0,0.0,0.0,0.0,0.0,0.0,0.0,0.0,0.0,0.0,0.0,0.0,0.0,0.0,0.0,0.0,0.0,0.0,0.0,0.0,0.0,0.0,0.0,0.0,0.0,0.0,0.0,0.0,0.0,0.0,0.0,0.0,0.0,0.0,0.0,0.0,0.0,0.0,0.0,0.0,0.0,0.0,0.0,0.0,0.0,0.0,0.0,0.0,0.0,0.0,0.0,0.0,0.0,0.0,0.0,0.0,0.0,0.0,0.0,0.0,0.0,0.0,0.0,0.0,0.0,0.0,0.0,0.0,0.0,0.0,0.0,0.0,0.0,0.0,0.0,0.0,0.0,0.0,0.0,0.0,0.0,0.0,0.0,0.0,0.0,0.0,0.0,0.0,0.0,0.0,0.0,0.0,0.0,0.0,0.0,0.0,0.0,0.0,0.0,0.0,0.0,0.0,0.0,0.0,0.0,0.0,0.0,0.0,0.0,0.0,0.0,0.0,0.0,0.0,0.0,0.0,0.0,0.0,0.0,0.0,0.0,0.0,0.0,0.0,0.0,0.0,0.0,0.0,0.0,0.0,0.0,0.0,0.0,0.0,0.0,0.0,0.0,0.0,0.0,0.0,0.0,0.0,0.0,0.0,0.0,0.0,0.0,0.0,0.0,0.0,0.0,0.0,0.0,0.0,0.0,0.0,0.0,0.0,0.0,0.0,0.0,0.0,0.0,0.0,0.0,0.0,0.0,0.0,0.0,0.0,0.0,0.0,0.0,0.0,0.0,0.0,0.0,0.0,0.0,0.0,0.0,0.0,0.0,0.0,0.0,0.0,0.0,0.0,0.0,0.0,0.0,0.0,0.0,0.0,0.0,0.0,0.0,0.0,0.0,0.0,0.0,0.0,0.0,0.0,0.0,0.0,0.0,0.0,0.0,0.0,0.0,0.0,0.0,0.0,0.0,0.0,0.0,0.0,0.0,0.0,0.0,0.0,0.0,0.0,0.0,0.0,0.0,0.0,0.0,0.0,0.0,0.0,0.0,0.0,0.0,0.0,0.0,0.0,0.0,0.0,0.0,0.0,0.0,0.0,0.0,0.0,0.0,0.0,0.0,0.0,0.0,0.0,0.0,0.0,0.0,0.0,0.0,0.0,0.0,0.0,0.0,0.0,0.0,0.0,0.0,0.0,0.0,0.0,0.0,0.0,0.0,0.0,0.0,0.0,0.0,0.0,0.0,0.0,0.0,0.0,0.0,0.0,0.0,0.0,0.0,0.0,0.0,0.0,0.0,0.0,0.0,0.0,0.0,0.0,0.0,0.0,0.0,0.0,0.0,0.0,0.0,0.0,0.0,0.0,0.0,0.0,0.0,0.0,0.0,0.0,0.0,0.0,0.0,0.0,0.0,0.0,0.0,0.0,0.0,0.0,0.0,0.0,0.0,0.0,0.0,0.0,0.0,0.0,0.0,0.0,0.0,0.0,0.0,0.0,0.0,0.0,0.0,0.0,0.0,0.0,0.0,0.0,0.0,0.0,0.0,0.0,0.0,0.0,0.0,0.0,0.0,0.0,0.0,0.0,0.0,0.0,0.0,0.0,0.0,0.0,0.0,0.0,0.0,0.0,0.0,0.0,0.0,0.0,0.0,0.0,0.0,0.0,0.0,0.0,0.0,0.0,0.0,0.0,0.0,0.0,0.0,0.0,0.0,0.0,0.0,0.0,0.0,0.0,0.0,0.0,0.0,0.0,0.0,0.0,0.0,0.0,0.0,0.0,0.0,0.0,0.0,0.0,0.0,0.0,0.0,0.0,0.0,0.0,0.0,0.0,0.0,0.0,0.0,0.0,0.0,0.0,0.0,0.0,0.0,0.0,0.0,0.0,0.0,0.0,0.0,0.0,0.0,0.0,0.0,0.0,0.0,0.0,0.0,0.0,0.0,0.0,0.0,0.0,0.0,0.0,0.0,0.0,0.0,0.0,0.0,0.0,0.0,0.0,0.0,0.0,0.0,0.0,0.0,0.0,0.0,0.0,0.0,0.0,0.0,0.0,0.0,0.0,0.0,0.0,0.0,0.0,0.0,0.0,0.0,0.0,0.0,0.0,0.0,0.0,0.0,0.0,0.0,0.0,0.0,0.0,0.0,0.0,0.0,0.0,0.0,0.0,0.0,0.0,0.0,0.0,0.0,0.0,0.0,0.0,0.0,0.0,0.0,0.0,0.0,0.0,0.0,0.0,0.0,0.0,0.0,0.0,0.0,0.0,0.0,0.0,0.0,0.0,0.0,0.0,0.0,0.0,0.0,0.0,0.0,0.0,0.0,0.0,0.0,0.0,0.0,0.0,0.0,0.0,0.0,0.0,0.0,0.0,0.0,0.0,0.0,0.0,0.0,0.0,0.0,0.0,0.0,0.0,0.0,0.0,0.0,0.0,0.0,0.0,0.0,0.0,0.0,0.0,0.0,0.0,0.0,0.0,0.0,0.0,0.0,0.0,0.0,0.0,0.0,0.0,0.0,0.0,0.0,0.0,0.0,0.0,0.0,0.0,0.0,0.0,0.0,0.0,0.0,0.0,0.0,0.0,0.0,0.0,0.0,0.0,0.0,0.0,0.0,0.0,0.0,0.0,0.0,0.0,0.0,0.0,0.0,0.0,0.0,0.0,0.0,0.0,0.0,0.0,0.0,0.0,0.0,0.0,0.0,0.0,0.0,0.0,0.0,0.0,0.0,0.0,0.0,0.0,0.0,0.0,0.0,0.0,0.0,0.0,0.0,0.0,0.0,0.0,0.0,0.0,0.0,0.0,0.0,0.0,0.0,0.0,0.0,0.0,0.0,0.0,0.0,0.0,0.0,0.0,0.0,0.0,0.0,0.0,0.0,0.0,0.0,0.0,0.0,0.0,0.0,0.0,0.0,0.0,0.0,0.0,0.0,0.0,0.0,0.0,0.0,0.0,0.0,0.0,0.0,0.0,0.0,0.0,0.0,0.0,0.0,0.0,0.0,0.0,0.0,0.0,0.0,0.0,0.0,0.0,0.0,0.0,0.0,0.0,0.0,0.0,0.0,0.0,0.0,0.0,0.0,0.0,0.0,0.0,0.0,0.0,0.0,0.0,0.0,0.0,0.0,0.0,0.0,0.0,0.0,0.0,0.0,0.0,0.0,0.0,0.0,0.0,0.0,0.0,0.0,0.0,0.0,0.0,0.0,0.0,0.0,0.0,0.0,0.0,0.0,0.0,0.0,0.0,0.0,0.0,0.0,0.0,0.0,0.0,0.0,0.0,0.0,0.0,0.0,0.0,0.0,0.0,0.0,0.0,0.0,0.0,0.0,0.0,0.0,0.0,0.0,0.0,0.0,0.0,0.0,0.0,0.0,0.0,0.0,0.0,0.0,0.0,0.0,0.0,0.0,0.0,0.0,0.0,0.0,0.0,0.0,0.0,0.0,0.0,0.0,0.0,0.0,0.0,0.0,0.0,0.0,0.0,0.0,0.0,0.0,0.0,0.0,0.0,0.0,0.0,0.0,0.0,0.0,0.0,0.0,0.0,0.0,0.0,0.0,0.0,0.0,0.0,0.0,0.0,0.0,0.0,0.0,0.0,0.0,0.0,0.0,0.0,0.0,0.0,0.0,0.0,0.0,0.0,0.0,0.0,0.0,0.0,0.0,0.0,0.0,0.0,0.0,0.0,0.0,0.0,0.0,0.0,0.0,0.0,0.0,0.0,0.0,0.0,0.0,0.0,0.0,0.0,0.0,0.0,0.0,0.0,0.0,0.0,0.0,0.0,0.0,0.0,0.0,0.0,0.0,0.0,0.0,0.0,0.0,0.0,0.0,0.0,0.0,0.0,0.0,0.0,0.0,0.0,0.0,0.0,0.0,0.0,0.0,0.0,0.0,0.0,0.0,0.0,0.0,0.0,0.0,0.0,2.2508,0.0,0.0,0.0,0.0,0.0,0.0,0.0,0.0,0.0,0.0,0.0,0.0,0.0,0.0,0.0,0.0,0.0,0.0,0.0,0.0,0.0,0.0,0.0,0.0,0.0,0.0,0.0,0.0,0.0,0.0,0.0,0.0,0.0,0.0,0.0,0.0,0.0,0.0,0.0,0.0,0.0,0.0,0.0,0.0,0.0,0.0,0.0,0.0,0.0,0.0,0.0,0.0,0.0,0.0,0.0,0.0,0.0,0.0,0.0,0.0,0.0,0.0,0.0,0.0,0.0,0.0,0.0,0.0,0.0,0.0,0.0,0.0,0.0,0.0,0.0,0.0,0.0,0.0,0.0,0.0,0.0,0.0,0.0,0.0,0.0,0.0,0.0,0.0,0.0,0.0,0.0,0.0,0.0,0.0,0.0,0.0,0.0,0.0,0.0,0.0,0.0,0.0,0.0,0.0,0.0,0.0,0.0,0.0,0.0,0.0,0.0,0.0,0.0,0.0,0.0,0.0,2.2681,0.0,0.0,0.0,0.0,0.0,0.0,0.0,0.0,0.0,0.0,0.0,0.0,0.0,0.0,0.0,0.0,0.0,0.0,0.0,0.0,0.0,0.0,0.0,0.0,0.0,0.0,0.0,0.0,0.0,0.0,0.0,0.0,0.0,0.0,0.0,0.0,0.0,0.0,0.0,0.0,0.0,0.0,0.0,0.0,0.0,0.0,0.0,0.0,0.0,0.0,0.0,0.0,0.0,0.0,0.0,0.0,0.0,0.0,0.0,0.0,0.0,0.0,0.0,0.0,0.0,0.0,0.0,0.0,0.0,0.0,0.0,0.0,0.0,0.0,0.0,0.0,0.0,0.0,0.0,0.0,0.0,0.0,0.0,0.0,0.0,0.0,0.0,0.0,0.0,0.0,0.0,0.0,0.0,0.0,0.0,0.0,0.0,0.0,0.0,0.0,0.0,0.0,0.0,0.0,0.0,0.0,0.0,0.0,2.2993,2.3131,2.3235,2.3235,2.3235,2.3274,2.386,2.411,2.4033,2.3321,0.0,0.0,0.0,0.0,0.0,0.0,0.0,0.0,0.0,0.0,0.0,0.0,0.0,0.0,0.0,0.0,0.0,0.0,0.0,0.0,0.0,0.0,0.0,0.0,0.0,0.0,0.0,0.0,0.0,0.0,0.0,0.0,0.0,0.0,0.0,0.0,0.0,0.0,1.5583,1.6032,1.6114,1.591,1.6612,0.0,0.0,0.0,0.0,0.0,0.0,0.0,0.0,0.0,0.0,0.0,0.0,0.0,0.0,0.0,0.0,0.0,0.0,0.0,0.0,0.0,0.0,0.0,0.0,0.0,0.0,0.0,0.0,0.0,0.0,0.0,0.0,0.0,0.0,0.0,0.0,0.0,0.0,0.0,0.0,0.0,0.0,0.0,2.1249,2.1778,0.0,0.0,0.0,0.0,0.0,0.0,0.0,0.0,0.0,0.0,0.0,0.0,0.0,2.2186,2.2353,2.3187,2.3703,2.3918,2.462,2.4947,2.4957,2.4957,2.4957,2.4947,2.4351,0.0,2.4091,2.3975,0.0,0.0,0.0,0.0,0.0,0.0,0.0,0.0,0.0,0.0,0.0,0.0,0.0,0.0,0.0,0.0,0.0,0.0,0.0,0.0,0.0,0.0,0.0,0.0,0.0,0.0,0.0,0.0,0.0,0.0,0.0,0.0,0.0,0.0,0.0,0.0,1.6373,1.646,1.6066,1.656,1.652,1.6053,1.6097,1.6128,1.6236,1.6264,0.0,0.0,0.0,0.0,0.0,0.0,0.0,0.0,0.0,0.0,0.0,0.0,0.0,0.0,0.0,0.0,0.0,0.0,0.0,0.0,0.0,0.0,0.0,0.0,0.0,0.0,0.0,0.0,0.0,0.0,0.0,0.0,0.0,0.0,0.0,0.0,0.0,0.0,0.0,2.0858,2.1873,2.3637,2.3313,2.2171,0.0,0.0,0.0,0.0,0.0,0.0,0.0,0.0,0.0,2.2135,2.2786,2.3125,2.3107,2.4022,2.4484,2.4498,2.4924,2.539,2.5868,2.5983,2.6294,2.6736,2.639,2.6246,2.613,2.4687,2.411,2.4072,0.0,0.0,0.0,0.0,2.5082,2.6101,0.0,0.0,0.0,0.0,0.0,0.0,0.0,0.0,0.0,0.0,0.0,0.0,0.0,0.0,0.0,1.0821,0.0,0.0,0.0,0.0,0.0,0.0,0.0,0.0,0.0,0.0,0.0,0.0,1.631,1.6634,1.6522,1.6909,1.6782,1.6238,1.582,1.5657,1.5744,1.5717,1.5581,0.0,0.0,0.0,0.0,0.0,0.0,0.0,0.0,0.0,0.0,0.0,0.0,0.0,0.0,0.0,0.0,0.0,0.0,0.0,0.0,0.0,0.0,0.0,0.0,0.0,0.0,0.0,0.0,0.0,0.0,0.0,0.0,0.0,0.0,0.0,0.0,0.0,0.0,2.1339,2.232,2.4881,2.4762,2.3449,0.0,0.0,0.0,0.0,0.0,0.0,2.2602,2.3011,2.322,2.3019,2.389,2.4417,2.4528,2.5273,2.5609,2.5601,2.5678,2.6082,2.6713,2.6867,2.7294,2.789,2.789,2.789,2.7755,2.5861,2.5072,2.5111,2.5486,2.5409,2.5207,2.6217,2.6871,2.7332,0.0,0.0,0.0,0.0,0.0,0.0,0.0,0.0,0.0,0.0,0.0,0.0,0.0,0.0,1.1904,1.1602,1.2009,1.235,0.0,0.0,0.0,0.0,0.0,0.0,0.0,0.0,0.0,1.5408,1.5569,1.5971,1.6522,1.6522,1.6238,1.5632,1.5632,1.5346,1.4845,1.4648,1.4275,1.3864,0.0,0.0,0.0,0.0,0.0,0.0,0.0,0.0,0.0,0.0,0.0,0.0,0.0,0.0,0.0,0.0,0.0,0.0,0.0,0.0,0.0,0.0,0.0,0.0,0.0,0.0,0.0,0.0,0.0,0.0,0.0,0.0,0.0,0.0,0.0,0.0,0.0,0.0,0.0,2.4582,2.5061,0.0,0.0,0.0,0.0,2.3725,2.4148,2.4327,2.4444,2.3721,2.4067,2.5744,2.5853,2.6336,2.7298,2.7355,2.7504,2.7734,2.7745,2.7783,2.7822,2.7832,2.7852,2.789,2.789,2.789,2.789,2.7755,2.7698,2.7621,2.6832,2.7024,2.7621,2.6871,2.7601,2.8967,0.0,0.0,0.0,0.0,0.0,0.0,0.0,0.0,0.0,0.0,0.0,0.0,0.0,1.0494,1.19,1.1751,1.2326,1.2701,1.2797,0.0,0.0,0.0,0.0,0.0,0.0,0.0,1.5284,1.5615,1.6309,1.6642,1.6522,1.6837,1.6502,1.5588,1.5186,1.4688,1.4169,1.4508,1.4454,1.424,1.4405,1.4513,0.0,0.0,0.0,0.0,0.0,0.0,0.0,0.0,0.0,0.0,0.0,0.0,0.0,0.0,0.0,0.0,0.0,0.0,0.0,0.0,0.0,0.0,0.0,0.0,0.0,0.0,0.0,0.0,0.0,0.0,0.0,0.0,0.0,0.0,0.0,0.0,0.0,2.4076,2.4521,0.0,2.4229,2.3125,2.2942,2.4099,2.5169,2.5651,2.5394,2.5645,2.6047,2.6559,2.682,2.7017,2.7109,2.7236,2.7223,2.7078,2.7194,2.7619,2.8299,2.8414,2.8854,2.9506,2.9506,2.9506,2.9544,3.0102,2.9371,2.7909,2.8121,2.839,2.8698,2.8948,2.9429,3.0025,0.0,0.0,0.0,0.0,0.0,0.0,0.0,0.0,0.0,0.0,0.0,0.8337,0.8644,1.0524,1.1814,1.1814,1.2452,1.2855,1.2764,0.0,0.0,0.0,0.0,0.0,0.0,1.499,1.5347,1.5652,1.6368,1.6642,1.6522,1.6879,1.6502,1.5588,1.4971,1.4376,1.3815,1.4014,1.4052,1.3972,1.3981,1.3965,1.3927,0.0,0.0,0.0,0.0,0.0,0.0,0.0,0.0,0.0,0.0,0.0,0.0,0.0,0.0,0.0,0.0,0.0,0.0,0.0,0.0,0.0,0.0,0.0,0.0,0.0,0.0,0.0,0.0,0.0,0.0,0.0,0.0,0.0,0.0,0.0,2.0517,2.3805,2.4211,2.4635,2.5708,2.5838,2.5671,2.5299,2.6283,2.6634,2.6084,2.6656,2.7047,2.719,2.7716,2.805,2.8164,2.8559,2.8652,2.8454,2.8595,2.9026,2.9731,2.9848,3.016,3.0581,3.0868,3.083,3.0652,3.1583,3.0983,2.9519,3.0136,3.0371,3.0448,3.1025,3.1237,3.1333,0.0,0.0,0.0,0.0,0.0,0.0,0.0,0.0,0.0,0.0,0.7566,0.8452,0.9324,1.0837,1.1814,1.1814,1.2501,1.2735,1.2296,1.2309,0.0,0.0,0.0,0.0,1.4521,1.4754,1.5112,1.5632,1.5632,1.5908,1.6522,1.6522,1.6194,1.5588,1.4971,1.4376,1.3779,1.32,1.2929,1.2929,1.2986,1.2967,1.2891,0.0,0.0,0.0,0.0,0.0,0.0,0.0,0.0,0.0,0.0,0.0,0.0,0.0,0.0,0.0,0.0,0.0,0.0,0.0,0.0,0.0,0.0,0.0,0.0,0.0,0.0,0.0,0.0,0.0,0.0,0.0,0.0,0.0,1.9462,1.9452,2.0626,2.3824,2.4191,2.5445,2.8683,2.9001,2.8567,2.749,2.7451,2.7264,2.6704,2.6704,2.7071,2.7842,2.8631,2.954,3.0583,3.1384,3.1885,3.2071,3.2071,3.2071,3.209,3.209,3.1657,3.0979,3.177,3.1657,3.1016,3.2093,3.2518,3.2549,3.2812,3.2891,3.2891,3.2891,3.291,3.2949,0.0,0.0,0.0,0.0,0.0,0.0,0.0,0.0,0.0,0.0,0.7426,0.8943,0.9695,1.0967,1.203,1.2559,1.2774,1.2684,1.2252,0.0,0.0,0.0,0.0,0.0,1.5356,1.5367,1.5676,1.6238,1.6238,1.6337,1.6522,1.6522,1.6194,1.5588,1.541,1.5005,1.4422,1.3826,1.3552,1.3542,1.3107,1.296,1.3064,0.0,0.0,0.0,0.0,0.0,0.0,0.0,0.0,0.0,0.0,0.0,0.0,0.0,0.0,0.0,0.0,0.0,0.0,0.0,0.0,0.0,0.0,0.0,0.0,0.0,0.0,0.0,0.0,0.0,0.0,0.0,0.0,2.5507,2.3179,2.2849,2.3177,2.4095,2.4196,2.5468,2.8693,2.8992,2.8558,2.749,2.8835,2.931,2.8393,2.8906,2.931,2.9531,2.9939,3.0206,3.0309,3.1314,3.1727,3.1589,3.1589,3.1685,3.1883,3.1883,3.1837,3.1789,3.1996,3.1958,3.1845,3.277,3.3276,3.3405,3.3037,3.2891,3.2891,3.2891,3.3295,3.3737,0.0,0.0,0.0,0.0,0.0,0.0,0.0,0.0,0.0,0.0,0.7374,0.866,0.9219,1.0524,1.1575,1.1999,1.2569,1.2617,1.1992,0.0,0.0,0.0,0.0,1.4427,1.5277,1.5257,1.5377,1.5744,1.5744,1.5744,1.5744,1.5744,1.5555,1.5231,1.496,1.4641,1.4283,1.3695,1.342,1.3372,1.3065,1.2977,1.3076,1.341,1.3738,1.4022,1.4113,1.4452,1.4853,1.4699,0.0,0.0,0.0,0.0,0.0,0.0,0.0,0.0,0.0,0.0,0.0,0.0,0.0,0.0,0.0,0.0,0.0,0.0,0.0,0.0,0.0,0.0,0.0,0.0,2.7774,2.8237,2.606,2.6025,2.6219,2.6195,2.6206,2.6946,2.883,2.9407,2.9381,2.8644,3.0047,3.0667,3.0044,3.0448,3.0558,3.021,3.1001,3.1186,3.0705,3.1979,3.2551,3.2412,3.2412,3.2495,3.2649,3.2649,3.2539,3.2322,3.2676,3.262,3.2381,3.3479,3.4036,0.0,0.0,0.0,0.0,0.0,3.4314,3.4718,0.0,0.0,0.0,0.0,0.0,0.0,0.0,0.0,0.0,0.0,0.0,0.8043,0.8486,0.9864,1.0813,1.0914,1.2061,1.2451,0.0,0.0,0.0,1.4549,1.4284,1.4249,1.4687,1.4698,1.4698,1.4698,1.4698,1.4698,1.4698,1.4698,1.4698,1.4663,1.4143,1.3909,1.3862,1.3238,1.3017,1.3027,1.2929,1.2959,1.3024,1.2563,1.2751,1.322,1.284,1.3304,1.4232,1.4578,0.0,0.0,0.0,0.0,0.0,0.0,0.0,0.0,0.0,0.0,0.0,0.0,0.0,0.0,0.0,0.0,0.0,0.0,0.0,0.0,0.0,0.0,0.0,0.0,2.8839,2.8682,2.8098,2.8589,2.9064,2.9259,2.9277,2.927,2.9337,3.0203,3.0659,3.0356,3.1072,3.1531,3.1531,0.0,0.0,0.0,0.0,3.2265,3.1531,3.3036,3.3807,3.3807,3.3807,3.3807,3.3807,3.3807,3.3421,3.2797,3.3495,3.3411,3.2882,3.4139,3.4751,3.4906,3.5091,3.5346,3.5608,3.5532,3.5622,3.5872,0.0,0.0,0.0,0.0,0.0,0.0,0.0,0.0,0.0,0.5839,0.7071,0.8228,0.9109,1.0166,1.1015,1.1566,1.2043,1.2129,0.0,0.0,1.2245,1.3389,1.3751,1.4161,1.4698,1.4698,1.4698,1.4698,1.4698,1.4698,1.4698,1.4698,1.4698,1.4698,1.456,1.4525,1.4468,1.3873,1.3647,1.36,1.3113,1.2919,1.2974,1.3324,1.359,1.3782,1.4663,1.5104,1.5317,1.5451,1.5785,1.6166,1.636,0.0,0.0,0.0,0.0,0.0,0.0,0.0,0.0,0.0,0.0,0.0,0.0,0.0,0.0,0.0,0.0,0.0,0.0,0.0,0.0,2.7011,2.7701,2.8275,2.8727,2.893,2.9467,3.0789,3.0936,3.1107,3.1538,3.1783,3.1679,3.1182,3.1916,3.2375,3.2375,3.2375,3.2302,3.2155,3.2449,3.254,3.2375,3.333,3.3807,3.3807,0.0,0.0,3.3807,3.3807,3.3715,3.3587,3.3733,3.3836,3.39,3.419,3.4971,3.5947,3.5569,3.5849,3.6392,3.5738,3.6372,3.745,0.0,0.0,0.0,0.0,0.0,0.0,0.0,0.0,0.0,0.0,0.6544,0.7749,0.9004,0.9554,1.0205,1.1023,1.1323,0.0,0.0,1.2391,1.2828,1.3846,1.3878,1.3998,1.4226,1.3978,1.38,1.38,1.38,1.3905,1.4087,1.4087,1.4202,1.4422,1.4422,1.4422,1.4362,1.4073,1.3922,1.3932,1.3598,1.3379,1.3214,1.3319,1.3552,1.3815,1.4143,1.4652,1.5151,1.5171,1.5733,1.6414,1.6496,1.6822,1.7194,0.0,0.0,0.0,0.0,0.0,0.0,0.0,0.0,0.0,0.0,0.0,0.0,0.0,0.0,2.4506,0.0,0.0,2.6092,2.7592,2.7782,2.8045,2.9117,2.9462,2.9971,3.0994,3.1102,3.1283,3.174,3.2169,3.2291,3.2027,3.2761,3.3201,3.3201,3.3587,3.3623,3.322,3.4009,3.4247,3.3798,3.4633,3.5055,3.5055,3.5055,3.5055,3.5055,3.5055,3.5055,3.5055,3.5055,3.5146,3.5277,3.5549,3.6132,3.6896,3.6784,3.7007,3.7296,3.6911,3.7276,3.8007,0.0,0.0,0.0,0.0,0.0,0.0,0.0,0.0,0.0,0.0,0.6113,0.7159,0.8572,0.8928,0.9469,0.0,0.0,0.0,0.0,1.29,1.3331,1.4318,1.3873,1.3647,1.3647,1.3152,1.292,1.2998,1.2998,1.3213,1.3633,1.3633,1.3809,1.4077,1.4077,1.4077,1.4077,1.4077,1.4077,1.4077,1.4077,1.3926,1.3584,1.3164,1.327,1.36,1.319,1.3695,1.456,1.4789,1.5511,1.6362,1.6604,1.7293,1.8008,1.7705,1.8576,0.0,0.0,0.0,0.0,0.0,0.0,0.0,0.0,0.0,2.3837,2.6224,2.7164,2.7589,2.7589,2.6454,2.6325,2.8746,2.8369,2.8219,2.9455,2.9932,3.0374,3.0933,3.0944,3.1155,3.1696,3.2246,3.2657,3.2775,3.3478,3.3973,3.4119,3.4834,3.4963,3.4302,3.5605,3.5973,3.5247,3.5954,3.6303,3.6303,3.6303,3.6303,3.6303,3.6303,3.6303,3.6285,3.637,3.638,3.6436,3.7071,3.7463,3.77,3.8127,3.8358,3.8389,3.8281,3.8354,3.8584,0.0,0.0,0.0,0.0,0.0,0.0,0.0,0.0,0.0,0.0,0.0,0.0,0.0,0.0,0.0,0.0,0.0,0.0,1.1762,1.2093,1.2553,1.3094,1.3017,1.3017,1.3017,1.292,1.3066,1.3437,1.3437,1.3652,1.4009,1.4009,1.4038,1.4077,1.4077,1.4077,1.4077,1.4077,1.4077,1.4077,1.4077,1.4048,1.397,1.3603,1.3253,1.3055,1.3552,1.3779,1.4039,1.5141,1.5588,1.5905,1.6978,1.737,1.7785,1.9144,0.0,1.935,2.0539,2.0303,0.0,1.9713,2.1447,2.3232,0.0,0.0,2.629,2.6624,2.8819,3.0695,3.0695,2.9812,2.9244,2.957,2.9174,2.9119,2.9912,3.0085,3.0495,3.155,3.1469,3.1773,3.2871,3.2693,3.2791,3.345,3.4002,3.4617,3.5255,3.5841,3.6101,3.6009,3.6193,3.6248,3.6156,3.6248,3.6303,3.6303,3.6303,3.6303,3.6303,3.6303,3.6303,3.6313,3.6562,3.6649,3.6738,3.776,3.8162,3.8301,3.9101,3.9616,3.9795,3.933,3.9604,4.0219,0.0,0.0,0.0,0.0,0.0,0.0,0.0,0.0,0.0,0.0,0.0,0.0,0.0,0.0,0.0,0.0,0.0,0.0,1.049,1.1554,1.2224,1.2267,1.2666,1.2881,1.2881,1.3125,1.333,1.3506,1.375,1.4092,1.4512,1.4512,1.4639,1.4883,1.4883,1.4883,1.4883,1.4883,1.4883,1.4883,1.4883,1.4727,1.4492,1.4316,1.3838,1.3224,1.2942,1.3104,0.0,0.0,1.5175,1.5929,1.7053,1.7816,1.8462,1.9168,1.9414,0.0,2.0141,0.0,0.0,0.0,2.1674,2.391,2.5117,2.6081,2.7227,2.8955,3.0306,3.121,3.121,2.9775,2.8895,0.0,2.9401,2.9397,3.0581,3.095,3.1259,3.1754,3.1708,3.1947,3.2727,3.2991,3.328,3.3598,3.4212,3.4706,3.5027,3.5981,3.6544,3.6544,3.7302,3.7698,3.7698,3.7698,3.7698,3.7698,3.7698,3.7698,3.7698,3.7698,3.7698,3.7698,3.7808,3.7848,3.7895,3.8518,3.8783,3.8827,3.9378,3.9709,3.9802,3.9776,4.0068,4.0489,0.0,0.0,0.0,0.0,0.0,0.0,0.0,0.0,0.0,0.0,0.0,0.0,0.0,0.0,0.0,0.0,0.0,0.0,0.0,1.1269,1.2063,1.1796,1.2501,1.2881,1.2881,1.3291,1.3564,1.3682,1.4102,1.4531,1.4961,1.4961,1.5117,1.541,1.541,1.541,1.541,1.541,1.541,1.541,1.541,1.5234,1.4941,1.4834,1.4248,1.3408,1.2676,1.2675,0.0,0.0,1.4836,1.5929,1.7053,1.8015,1.8865,1.9158,1.9768,2.0274,1.988,0.0,0.0,2.0827,2.2747,2.5091,2.6605,2.7469,2.8581,3.0761,3.1185,3.1184,3.1179,2.9853,2.911,3.0226,2.9956,2.9973,3.1038,3.1449,3.1623,3.1623,3.1623,3.177,3.2127,3.2808,3.342,3.3803,3.4493,3.4953,3.5144,3.6221,3.6841,3.6841,3.7893,3.8465,3.8465,3.8627,3.8707,3.8707,3.8707,3.8707,3.8707,3.8707,3.8707,3.8707,3.8707,3.8707,3.8738,3.8923,3.8999,3.9027,3.9249,3.9383,3.9486,3.9712,4.0023,4.0266,0.0,0.0,0.0,0.0,0.0,0.0,0.0,0.0,0.0,0.0,0.0,0.0,0.0,0.0,0.0,0.0,0.0,0.0,0.0,1.1269,1.2063,1.1796,1.2501,1.2881,1.2881,1.3291,1.3711,1.4058,1.4551,1.498,1.5391,1.5391,1.54,1.541,1.541,1.541,1.541,1.541,1.541,1.541,1.541,1.54,1.5352,1.4941,1.4248,1.3447,1.3018,0.0,0.0,0.0,1.478,1.5816,1.7008,1.7765,0.0,1.9564,2.071,2.1351,0.0,0.0,2.0343,2.2845,2.5481,2.7486,2.7551,2.9398,3.1072,3.1204,3.119,3.119,3.1173,3.1123,3.1106,3.1157,3.114,3.114,3.119,3.119,3.123,3.123,3.123,3.123,0.0,3.193,3.2906,3.4363,3.4995,3.559,3.6312,3.6869,3.7175,3.7175,3.7685,3.7928,3.7928,3.8433,3.8707,3.8707,3.8707,3.8707,3.8707,3.8707,3.8707,3.8707,3.8707,3.8707,3.8707,3.8707,3.8689,3.8719,3.8719,3.8884,3.9125,3.9125,3.9339,3.9668,0.0,0.0,0.0,0.0,0.0,0.0,0.0,0.0,0.0,0.0,0.0,0.0,0.0,0.0,0.0,0.0,0.0,0.0,0.0,1.0686,1.1691,1.1408,1.2358,1.2881,1.2881,1.3291,1.3574,1.3721,1.4434,1.4863,1.5,1.5283,1.541,1.541,1.541,1.541,1.541,1.541,1.541,1.541,1.541,1.541,1.5371,1.4941,1.4424,1.388,0.0,0.0,0.0,1.3799,1.4832,1.5929,1.7053,1.776,1.8257,1.8631,1.9293,1.9747,1.8892,0.0,2.1871,2.5364,2.6949,2.758,2.7603,2.8245,2.881,2.879,2.8713,2.8705,2.8735,2.8992,2.9359,2.9859,2.9832,3.0074,3.1055,3.0784,3.0835,3.1799,3.1918,0.0,0.0,0.0,0.0,3.3728,3.4831,3.5625,3.5854,3.6374,3.6684,3.6684,3.7452,3.7893,3.7893,3.8433,3.8707,3.8707,3.8707,3.8707,3.8707,3.8707,3.8707,3.8707,3.8707,3.8707,3.8707,3.8707,3.8707,3.8707,3.8707,3.8762,3.8844,3.8844,3.8931,3.9091,0.0,0.0,0.0,0.0,0.0,0.0,0.0,0.0,0.0,0.0,0.0,0.0,0.0,0.0,0.0,0.0,0.0,0.0,0.0,0.0,1.0934,1.0679,1.1621,1.2167,1.2167,1.288,1.3281,1.3281,1.4131,1.4551,1.4561,1.4824,1.5039,1.5186,1.5186,1.5273,1.541,1.541,1.541,1.54,1.5244,1.5186,1.5146,1.4717,1.4189,0.0,0.0,0.0,0.0,1.4099,1.5151,1.6169,1.686,1.7445,1.7978,1.8577,1.9248,1.9646,1.8915,2.1191,2.442,2.6944,2.7616,2.7614,2.758,2.762,2.7588,2.7573,2.7783,2.7884,2.7815,2.8084,2.8445,2.8878,2.9042,2.9587,3.1063,3.1038,3.1326,3.2544,3.2679,3.3068,0.0,0.0,0.0,3.3795,3.4675,3.5216,3.5216,3.5531,3.5864,3.6097,3.7117,3.7649,3.7649,3.835,3.8707,3.8707,3.8707,3.8707,3.8707,3.8707,3.8542,3.8285,3.8579,3.8542,3.8285,3.8579,3.8707,3.8707,3.8707,3.8707,3.8707,3.8707,3.8707,3.8762,0.0,0.0,0.0,0.0,0.0,0.0,0.0,0.0,0.0,0.0,0.0,0.0,0.0,0.0,0.0,0.0,0.0,0.0,0.0,0.0,0.0,0.9736,1.0463,1.0838,1.0794,1.2139,1.2812,1.2812,1.3633,1.398,1.398,1.4009,1.4287,1.4687,1.4687,1.4912,1.5283,1.5283,1.5283,1.5254,1.4873,1.4717,1.4678,1.4258,0.0,0.0,0.0,0.0,0.0,0.0,1.5721,1.6572,1.6627,1.6999,1.7728,1.9357,2.0569,2.114,2.0271,2.362,2.7455,2.7546,2.761,2.7604,2.7604,2.7618,2.7588,2.7496,2.8093,2.8532,0.0,0.0,2.8233,2.8329,2.8837,2.97,3.1137,3.1867,3.251,0.0,0.0,0.0,0.0,0.0,0.0,3.4489,0.0,3.4556,3.4556,3.4556,3.4878,3.5605,3.6586,3.7173,3.719,3.8201,3.8707,3.8707,3.8707,3.8707,3.8707,3.8707,3.8285,3.7588,3.8377,3.8267,3.7606,3.8395,3.8707,3.8707,3.8707,3.8707,3.8707,3.8707,3.8707,3.875,0.0,0.0,0.0,0.0,0.0,0.0,0.0,0.0,0.0,0.0,0.0,0.0,0.0,0.0,0.0,0.0,0.0,0.0,0.0,0.0,0.0,0.0,0.0,0.0,0.0,0.0,0.0,0.0,0.0,1.2667,1.2676,1.3047,1.3262,1.3369,1.3369,1.3428,1.3525,1.3525,1.3525,1.3545,0.0,1.3828,1.3818,0.0,0.0,0.0,0.0,0.0,0.0,0.0,0.0,0.0,0.0,1.8548,1.8742,1.9182,2.045,2.1893,2.2626,2.3764,2.5164,2.7115,2.7602,2.7594,2.7594,2.7568,2.7319,2.6347,2.627,2.6251,0.0,0.0,0.0,2.7416,2.7662,0.0,3.018,3.1044,0.0,3.2476,0.0,3.4438,3.4996,3.5216,0.0,0.0,3.5013,3.5334,3.5334,3.5334,3.5419,3.556,3.6249,3.6803,3.719,3.8201,3.8707,3.8707,3.8707,3.8707,3.8707,3.8707,3.8597,3.8414,3.8615,3.8579,3.8414,3.8615,3.8707,3.8707,3.8707,3.8707,3.8707,3.8707,3.8707,3.8707,0.0,0.0,0.0,0.0,0.0,0.0,0.0,0.0,0.0,0.0,0.0,0.0,0.0,0.0,0.0,0.0,0.0,0.0,0.0,0.0,0.0,0.0,0.0,0.0,0.0,0.0,0.0,0.0,0.0,0.0,0.0,1.2187,1.2402,1.2598,1.2598,1.2705,1.2891,1.3076,0.0,0.0,0.0,0.0,0.0,0.0,0.0,0.0,0.0,0.0,0.0,0.0,0.0,1.7604,1.8691,1.9068,1.9301,2.0378,0.0,2.3069,2.4572,2.5175,2.5756,2.724,2.6596,2.5625,2.564,2.6654,2.7045,2.5026,2.4693,0.0,2.461,0.0,0.0,0.0,0.0,0.0,2.9939,3.1032,3.1952,0.0,3.3795,0.0,3.5537,3.5622,3.5453,0.0,3.5081,3.5131,3.5131,3.5131,3.5284,3.5605,3.6406,3.7411,3.8524,3.9081,3.929,3.9239,3.9239,3.9038,3.8707,3.8707,3.8505,3.8193,0.0,3.8505,3.8193,3.856,3.8707,3.8707,3.8707,3.8707,3.8707,3.8707,3.8707,3.8707,0.0,0.0,0.0,0.0,0.0,0.0,0.0,0.0,0.0,0.0,0.0,0.0,0.0,0.0,0.0,0.0,0.0,0.0,0.0,0.0,0.0,0.0,0.0,0.0,0.0,0.0,0.0,0.0,0.0,0.0,0.0,0.0,0.0,0.0,0.0,0.0,0.0,0.0,0.0,0.0,0.0,0.0,0.0,0.0,0.0,0.0,0.0,0.0,0.0,0.0,1.789,1.7723,1.8879,1.9322,1.9865,2.2056,2.3283,2.4229,2.5667,2.6733,2.7431,2.7565,2.5621,2.358,2.3207,2.4896,2.5864,2.3414,0.0,2.3459,2.4208,2.48,2.545,2.6318,0.0,2.853,2.9782,3.1314,3.2493,3.3051,3.3931,3.4793,3.5537,3.552,3.5504,3.556,3.5013,3.4641,3.4641,3.4742,3.5148,3.5893,3.7111,3.8503,4.0092,4.0257,4.0251,4.0065,4.0065,3.9643,3.8854,3.8854,3.8414,3.7679,3.8395,3.8303,3.7698,3.8414,3.8707,3.8707,3.8707,3.8707,3.8707,3.8707,3.8707,3.8707,0.0,0.0,0.0,0.0,0.0,0.0,0.0,0.0,0.0,0.0,0.6513,0.6894,0.0,0.0,0.0,0.0,0.0,0.0,0.0,0.0,0.0,0.0,0.0,0.0,0.0,0.0,0.0,0.0,0.0,0.0,0.0,0.0,0.0,0.0,0.0,0.0,0.0,0.0,0.0,0.0,0.0,0.0,0.0,0.0,0.0,0.0,0.0,0.0,0.0,0.0,1.8141,1.8336,1.9953,2.0836,2.1462,2.2417,2.3507,2.4451,2.4716,2.5578,2.6536,2.7385,2.7201,2.6174,2.3672,2.2053,0.0,0.0,2.0959,2.1785,2.284,2.3516,2.4429,2.6059,0.0,0.0,0.0,0.0,3.2104,0.0,0.0,0.0,0.0,0.0,0.0,0.0,3.5504,3.5419,3.5419,3.6028,3.6738,3.7483,3.8581,3.931,3.9611,4.0491,4.0921,4.0891,4.0891,4.0469,3.968,3.968,3.9239,3.8505,3.8634,0.0,3.8505,3.8652,3.8707,3.8707,3.8707,3.8707,3.8707,3.8707,3.8707,3.8707,0.0,0.0,0.0,0.0,0.0,0.0,0.0,0.0,0.5873,0.6179,0.6683,0.6979,0.6979,0.6979,0.0,0.0,0.0,0.0,0.0,0.0,0.0,0.0,0.0,0.0,0.0,0.0,0.0,0.0,0.0,0.0,0.0,0.0,0.0,0.0,0.0,0.0,0.0,0.0,0.0,0.0,0.0,0.0,0.0,0.0,0.0,0.0,0.0,0.0,0.0,0.0,1.7777,1.8062,1.9759,2.0733,2.141,2.2412,2.3592,2.4653,2.4919,2.5176,2.552,2.6288,2.5838,2.4871,2.3419,0.0,0.0,0.0,2.0428,2.1239,2.2021,0.0,0.0,0.0,0.0,0.0,0.0,0.0,0.0,0.0,0.0,0.0,0.0,0.0,0.0,3.5013,3.5402,3.5791,3.6197,3.6941,3.7702,3.8447,3.8946,3.9713,4.0695,4.1196,4.1561,4.1735,4.1735,4.1313,4.0506,4.0084,3.968,3.9294,3.8891,3.8469,3.8102,3.8524,3.845,3.812,3.8542,3.8707,3.8707,3.8707,3.8707,3.8707,0.0,0.0,0.0,0.0,0.0,0.0,0.0,0.5524,0.6221,0.6349,0.6725,0.6979,0.6979,0.6979,0.6979,0.0,0.0,0.0,0.0,0.0,0.0,0.0,0.0,0.0,0.0,0.0,0.0,1.0283,0.0,0.0,0.0,0.0,0.0,0.0,0.0,0.0,0.0,0.0,0.0,0.0,0.0,0.0,0.0,0.0,0.0,0.0,0.0,0.0,0.0,0.0,1.7388,1.7626,1.902,1.9898,2.0704,2.2138,2.3231,2.4238,2.5049,2.4737,2.4229,2.4778,2.3997,2.2973,2.2495,2.0987,0.0,0.0,2.0239,2.086,2.1376,0.0,2.3705,0.0,0.0,0.0,0.0,0.0,0.0,0.0,0.0,0.0,0.0,0.0,0.0,3.4726,3.5588,3.6451,3.7212,3.7821,3.8464,3.9208,3.9355,4.0134,4.1578,4.1853,4.2139,4.2406,4.2509,4.2139,4.1332,4.0524,4.0065,3.9845,3.9056,3.823,3.7551,3.8377,3.823,3.7599,3.8395,3.8707,3.8707,3.8707,3.8707,3.8707,0.0,0.0,0.0,0.0,0.0,0.0,0.0,0.5787,0.6392,0.6852,0.6979,0.6979,0.6979,0.6979,0.6979,0.0,0.0,0.0,0.0,0.0,0.0,0.0,0.0,0.0,0.0,0.0,0.0,1.0283,1.0283,0.0,0.0,0.0,0.0,0.0,0.0,0.0,0.0,0.0,0.0,0.0,0.0,0.0,0.0,0.0,0.0,0.0,0.0,0.0,0.0,0.0,0.0,1.7501,1.8154,1.8776,1.9594,2.1442,0.0,0.0,2.4126,2.363,2.2723,2.3191,2.3186,2.2594,2.0539,0.0,0.0,1.9726,1.9744,2.0027,2.0692,2.1854,2.3167,0.0,0.0,2.6261,0.0,0.0,0.0,0.0,0.0,0.0,0.0,0.0,0.0,3.547,3.6874,3.8024,3.8751,3.8853,3.9225,3.9952,4.0474,4.0787,4.0995,4.208,4.2619,4.268,4.314,4.2965,4.2158,4.1368,4.0598,3.9845,3.9056,3.823,0.0,3.8377,3.823,3.7599,3.8395,3.8707,3.8707,3.8707,3.8707,3.8707,0.0,0.0,0.0,0.0,0.0,0.0,0.0,0.6081,0.6768,0.6979,0.6979,0.6979,0.6979,0.6979,0.6979,0.0,0.0,0.0,0.0,0.0,0.0,0.0,0.0,0.0,0.0,0.0,0.0,1.0283,1.0283,0.0,0.0,0.0,0.0,0.0,0.0,1.1998,0.0,0.0,0.0,0.0,0.0,0.0,0.0,0.0,0.0,0.0,0.0,0.0,0.0,0.0,0.0,0.0,1.7124,1.734,0.0,0.0,2.0972,2.1499,2.2478,2.2641,2.2457,2.2217,2.2139,2.1734,2.0184,0.0,1.893,1.958,1.9708,1.9765,2.0049,2.0857,2.1909,0.0,0.0,0.0,0.0,0.0,0.0,0.0,0.0,0.0,0.0,0.0,0.0,3.6231,3.6874,3.7939,3.9563,3.9648,3.9783,4.007,4.0336,4.0577,4.0903,4.1402,4.181,4.2162,4.2752,4.285,4.2523,4.204,4.1387,4.0579,3.9772,3.8414,0.0,3.8175,3.7936,3.6909,3.8193,3.8707,3.8707,3.8707,3.8707,3.8707,0.0,0.0,0.0,0.0,0.0,0.5087,0.5265,0.6124,0.681,0.6979,0.6979,0.6979,0.6979,0.6979,0.6979,0.6979,0.0,0.0,0.0,0.0,0.0,0.0,0.0,0.0,0.0,0.0,0.0,1.0283,1.0118,1.0118,0.0,0.0,1.0859,1.1606,0.0,0.0,0.0,0.0,0.0,0.0,0.0,0.0,0.0,0.0,0.0,0.0,0.0,0.0,0.0,0.0,0.0,0.0,0.0,0.0,0.0,0.0,1.9889,2.0643,2.1481,2.1978,2.2228,2.1691,2.1555,2.1434,0.0,0.0,1.8792,1.9523,1.9698,1.969,1.969,2.0243,2.1141,0.0,0.0,2.4929,0.0,0.0,0.0,0.0,0.0,0.0,0.0,0.0,0.0,3.6992,3.711,3.799,3.9969,4.007,4.007,4.007,4.007,4.0286,4.0655,4.0827,4.1133,4.1534,4.2342,4.2567,4.2314,4.2318,4.1735,4.0726,4.0139,3.867,0.0,3.8138,3.7881,3.678,3.8157,3.8707,3.8707,3.8707,3.8707,3.8707,0.0,0.0,0.0,0.0,0.0,0.0,0.0,0.583,0.6392,0.6937,0.6979,0.6979,0.6979,0.6979,0.6979,0.6979,0.0,0.0,0.0,0.0,0.0,0.0,0.0,0.0,0.0,0.0,0.0,1.0283,0.9765,0.9765,1.0293,1.0713,1.1143,1.1626,0.0,0.0,0.0,0.0,0.0,0.0,0.0,0.0,0.0,0.0,0.0,0.0,0.0,0.0,0.0,0.0,0.0,0.0,0.0,0.0,0.0,0.0,1.8724,1.9535,2.1412,2.1801,2.1702,2.1721,2.171,2.2036,0.0,0.0,1.9688,1.9704,1.9686,1.969,1.969,2.0243,2.1141,2.2458,0.0,0.0,0.0,0.0,0.0,0.0,0.0,0.0,0.0,0.0,3.6248,3.7787,3.7889,0.0,4.0003,4.007,4.007,4.007,4.007,4.0121,4.0121,4.0607,4.0903,4.0903,4.2121,4.226,4.143,4.2044,4.1423,3.99,3.99,3.8964,0.0,3.8358,3.8212,3.7551,3.8377,3.8707,3.8707,3.8707,3.8707,3.8707,0.0,0.0,0.0,0.0,0.0,0.0,0.0,0.583,0.6392,0.6937,0.6979,0.6979,0.6979,0.6979,0.6979,0.6979,0.0,0.0,0.0,0.0,0.0,0.0,0.0,0.0,0.0,0.0,0.0,0.9755,0.9961,0.9755,0.9248,1.0378,1.0964,1.1079,1.1839,0.0,0.0,0.0,0.0,0.0,0.0,0.0,0.0,0.0,0.0,0.0,0.0,0.0,0.0,0.0,0.0,0.0,0.0,0.0,0.0,0.0,0.0,0.0,2.0047,2.0386,2.0626,2.1499,2.1055,2.0514,2.083,0.0,1.9695,1.9686,1.9713,1.969,1.969,1.9869,2.0602,2.2424,2.2847,0.0,0.0,0.0,0.0,0.0,0.0,0.0,0.0,0.0,3.5487,3.7026,3.7144,3.777,3.9259,3.9817,4.007,4.007,4.007,4.007,4.007,4.0286,4.0546,4.0903,4.1313,4.1452,4.1448,4.2212,4.1593,3.9918,4.0487,3.9496,3.7551,3.8377,3.823,3.7599,3.8395,3.8707,3.8707,3.8707,3.8707,3.8707,0.0,0.0,0.0,0.0,0.0,0.0,0.0,0.561,0.613,0.6894,0.6979,0.6979,0.6979,0.6979,0.6979,0.6979,0.0,0.0,0.0,0.0,0.0,0.0,0.0,0.0,0.0,0.0,0.9922,0.9804,0.9716,0.9558,0.9337,1.0373,1.0946,1.1132,1.2059,0.0,0.0,0.0,0.0,0.0,0.0,0.0,1.2929,0.0,0.0,0.0,0.0,0.0,0.0,0.0,0.0,0.0,0.0,0.0,0.0,0.0,1.7853,1.8411,0.0,2.0019,2.0528,2.1471,2.1473,0.0,0.0,0.0,1.9694,1.9683,1.9966,2.0085,1.9771,2.0094,2.0842,2.2099,2.3115,0.0,0.0,0.0,0.0,0.0,0.0,0.0,0.0,0.0,3.5436,3.6688,3.7043,3.7736,3.8937,3.9681,4.007,4.007,4.007,4.007,4.007,4.007,4.0286,4.0625,4.0827,4.0981,4.1142,4.2199,4.1851,4.0377,4.0891,4.0084,0.0,3.8615,3.8395,3.7991,3.8505,3.8707,3.8707,3.8707,3.8707,3.8707,0.0,0.0,0.0,0.0,0.0,0.0,0.0,0.0,0.0,0.6803,0.6937,0.6937,0.6979,0.6979,0.6979,0.6979,0.0,0.0,0.0,0.0,0.0,0.0,0.0,0.0,0.0,0.9795,0.9804,1.0244,0.9279,0.9279,1.0215,1.0634,1.1104,1.1592,1.248,0.0,0.0,0.0,0.0,0.0,0.0,0.0,0.0,0.0,0.0,0.0,0.0,0.0,0.0,0.0,0.0,0.0,0.0,0.0,0.0,0.0,0.0,0.0,0.0,2.044,0.0,0.0,0.0,0.0,0.0,0.0,0.0,0.0,2.0452,2.0723,1.9936,2.0857,2.1769,2.1769,0.0,0.0,0.0,0.0,0.0,0.0,0.0,0.0,0.0,0.0,3.591,3.6637,3.7398,3.8142,3.887,3.9597,4.002,4.007,4.007,4.007,4.007,4.007,4.0087,4.0086,4.059,4.0715,4.0565,4.2006,4.2014,0.0,4.106,4.0616,3.9753,3.9019,3.8707,3.8707,3.8707,3.8707,3.8707,3.8707,3.8707,3.8707,0.0,0.0,0.0,0.0,0.0,0.0,0.0,0.0,0.0,0.0,0.6392,0.6562,0.6937,0.6979,0.6979,0.0,0.0,0.0,0.0,0.0,0.0,0.0,0.0,0.0,0.0,1.0166,0.9961,0.9686,0.9843,0.9637,0.9096,1.0676,1.1246,1.1053,1.2339,0.0,0.0,0.0,0.0,0.0,0.0,0.0,0.0,0.0,0.0,0.0,1.4652,1.5377,0.0,0.0,0.0,0.0,0.0,0.0,0.0,0.0,1.8106,1.833,1.9449,0.0,2.0072,2.0154,2.0391,2.0464,0.0,0.0,0.0,0.0,0.0,0.0,0.0,0.0,0.0,0.0,0.0,0.0,0.0,0.0,0.0,0.0,0.0,0.0,0.0,0.0,3.569,3.5876,3.6603,3.7364,3.8125,3.8853,3.9512,4.0054,4.007,4.007,4.007,4.007,3.9997,3.9859,4.0127,4.0107,3.981,4.1316,4.1085,3.955,4.0635,4.0304,3.8964,3.8781,3.8707,3.8707,3.8707,3.8707,3.8707,3.8707,3.8707,3.8707,0.0,0.0,0.0,0.0,0.0,0.0,0.0,0.0,0.0,0.0,0.0,0.0,0.0,0.0,0.0,0.0,0.0,0.0,0.0,0.0,0.0,0.0,0.0,0.0,0.0,1.0157,1.0157,0.9883,0.9677,0.9399,0.9096,1.0281,1.0829,1.0875,1.2291,0.0,0.0,0.0,0.0,0.0,1.2881,0.0,0.0,0.0,0.0,0.0,1.4606,1.5287,0.0,1.6423,1.6522,1.6522,0.0,0.0,0.0,0.0,1.7958,1.8341,1.9406,1.969,1.9683,1.9708,1.9707,1.9683,1.9708,0.0,0.0,0.0,0.0,0.0,0.0,0.0,0.0,0.0,0.0,0.0,0.0,0.0,0.0,0.0,0.0,0.0,0.0,0.0,3.5622,3.5622,3.6349,3.711,3.7872,3.8599,3.9326,4.0054,4.007,4.007,4.007,4.007,3.988,3.9448,3.9897,3.9945,3.9684,4.1135,4.1194,4.0131,4.0437,4.0065,3.9184,3.845,3.8377,3.8707,3.8707,3.8707,3.8707,3.8707,3.8707,3.8707,0.0,0.0,0.0,0.0,0.0,0.0,0.0,0.0,0.0,0.0,0.0,0.0,0.0,0.0,0.0,0.0,0.0,0.0,0.0,0.0,0.0,0.0,0.0,0.0,0.9478,0.9961,1.0166,1.0166,0.9279,0.9039,0.9496,0.9779,1.0302,1.1056,1.232,0.0,0.0,0.0,0.0,0.0,1.2881,0.0,0.0,0.0,0.0,0.0,0.0,0.0,0.0,1.6324,1.6522,1.6522,1.6522,0.0,0.0,0.0,0.0,0.0,1.9391,1.969,1.9713,1.9692,2.0005,2.0195,1.9773,0.0,0.0,0.0,0.0,0.0,0.0,0.0,0.0,0.0,0.0,0.0,0.0,0.0,0.0,0.0,0.0,0.0,0.0,3.5182,3.5622,3.5622,3.6231,3.6924,3.7702,3.843,3.9157,3.9884,4.002,4.007,4.007,4.007,3.9715,3.9005,3.9732,3.9944,3.9738,4.1069,4.1464,4.1047,0.0,0.0,3.9606,3.8248,3.8065,3.8707,3.8707,3.8707,3.8707,3.8707,3.8707,3.8707,0.0,0.0,0.0,0.0,0.0,0.0,0.0,0.0,0.0,0.0,0.0,0.0,0.0,0.0,0.0,0.0,0.0,0.0,0.0,0.0,0.0,0.0,0.0,0.848,0.9478,0.9597,0.9637,0.9637,0.9439,0.9399,0.9487,0.9897,1.0735,1.201,1.2656,1.2881,1.2881,1.2881,1.2881,1.2881,1.2881,0.0,0.0,0.0,0.0,0.0,0.0,0.0,0.0,1.6466,1.6522,1.6522,1.6522,0.0,0.0,0.0,0.0,0.0,1.9419,1.969,1.9713,1.9692,2.1375,2.2415,2.0198,0.0,0.0,0.0,0.0,0.0,0.0,0.0,0.0,0.0,0.0,0.0,0.0,0.0,0.0,0.0,0.0,0.0,3.4539,3.5182,3.5622,3.5622,3.5723,3.6129,3.6924,3.7669,3.8413,3.914,3.9749,4.007,4.007,4.007,3.9715,3.9005,3.9732,3.9731,3.9183,4.0452,4.0526,3.9713,0.0,3.9652,3.8872,3.8615,3.8597,3.8707,3.8707,3.8707,3.8707,3.8707,3.8707,3.8707,0.0,0.0,0.0,0.0,0.0,0.0,0.0,0.0,0.0,0.0,0.0,0.0,0.0,0.0,0.0,0.0,0.0,0.0,0.0,0.0,0.0,0.0,0.7112,0.778,0.8635,0.9199,0.9359,0.9079,0.9079,0.8918,0.8651,0.9589,1.0651,1.1799,1.258,1.2881,1.2881,1.2881,1.2881,1.2881,0.0,0.0,0.0,0.0,0.0,0.0,0.0,0.0,0.0,0.0,1.6522,1.6522,1.6522,0.0,0.0,0.0,0.0,0.0,1.9581,1.969,1.9722,1.9715,2.0618,2.1532,2.1753,0.0,0.0,0.0,0.0,0.0,0.0,0.0,0.0,0.0,0.0,0.0,0.0,0.0,0.0,0.0,0.0,3.4878,3.4523,3.5182,3.5622,3.5622,3.5622,3.596,3.6738,3.711,3.7821,3.8954,3.9326,3.9681,4.007,4.007,3.9715,3.9005,3.9732,3.9698,3.9054,3.9915,3.9825,3.8968,0.0,3.8683,3.8263,3.8101,3.8303,3.8707,3.8707,3.8707,3.8707,3.8707,3.8707,3.8707,0.0,0.0,0.0,0.0,0.0,0.0,0.0,0.0,0.0,0.0,0.0,0.0,0.0,0.0,0.0,0.0,0.0,0.0,0.0,0.0,0.5922,0.6179,0.6605,0.7147,0.7878,0.8837,0.9039,0.8521,0.8635,0.8439,0.7927,0.9462,1.0586,1.1306,1.2426,1.2881,1.2881,1.2881,1.2881,1.2881,0.0,0.0,0.0,0.0,0.0,0.0,0.0,0.0,0.0,0.0,0.0,0.0,0.0,0.0,0.0,1.6494,1.8023,1.9686,1.9698,1.969,1.97,1.9711,0.0,2.0213,2.2218,0.0,0.0,0.0,0.0,0.0,0.0,0.0,0.0,0.0,0.0,0.0,0.0,0.0,0.0,0.0,3.4505,3.461,3.4759,3.5284,3.5515,3.5362,3.5362,3.5614,3.6266,3.6451,3.7138,3.843,3.865,3.9089,3.9817,3.9817,3.9631,3.9242,3.9817,3.9783,3.9291,3.9517,3.9243,3.8564,3.8043,3.7775,3.7719,3.7626,3.7948,3.8546,3.8658,3.8707,3.8707,3.8707,3.8707,3.8707,0.0,0.0,0.0,0.0,0.0,0.0,0.0,0.0,0.0,0.0,0.0,0.0,0.0,0.0,0.0,0.0,0.0,0.0,0.0,0.0,0.5043,0.6136,0.6227,0.6774,0.7878,0.848,0.848,0.7953,0.8439,0.8439,0.7927,0.9856,1.0767,1.0912,1.2301,1.2881,1.2881,1.2881,1.2881,1.2881,1.2881,0.0,0.0,0.0,0.0,0.0,0.0,0.0,0.0,0.0,0.0,0.0,0.0,0.0,1.6494,1.6507,1.7998,1.9705,1.969,1.969,1.9692,1.9706,1.9694,0.0,1.9955,1.9832,0.0,0.0,0.0,0.0,0.0,0.0,0.0,0.0,0.0,0.0,0.0,0.0,0.0,0.0,3.4605,3.4811,3.5431,3.5588,3.5362,3.4736,3.4688,3.4704,3.4771,3.5415,3.6154,3.6924,3.7618,3.8328,3.9056,3.9073,3.9394,4.0003,4.0054,4.0054,3.9969,3.9342,3.8897,3.8555,3.7827,3.7393,3.7285,3.7701,3.7891,3.8032,3.8515,3.8707,3.8707,3.8707,3.8707,3.8707,0.0,0.0,0.0,0.0,0.0,0.0,0.0,0.0,0.0,0.0,0.0,0.0,0.0,0.0,0.0,0.0,0.0,0.0,0.0,0.0,0.4604,0.5043,0.5787,0.6392,0.6816,0.7739,0.7904,0.7321,0.7558,0.7523,0.737,0.8747,0.9712,1.0363,1.1472,1.2311,1.2881,1.2881,1.2881,1.2881,1.2881,1.2881,0.0,0.0,0.0,0.0,0.0,0.0,0.0,0.0,1.6522,1.6484,0.0,0.0,1.6744,0.0,1.9051,1.969,1.969,1.969,1.9685,1.9706,0.0,0.0,0.0,0.0,0.0,0.0,0.0,0.0,0.0,0.0,0.0,0.0,0.0,0.0,0.0,0.0,0.0,3.4479,3.4576,3.483,3.5515,3.5622,3.5316,3.464,3.4576,3.4576,3.4576,3.4839,3.5573,3.6755,3.706,3.7567,3.8311,3.8328,3.8464,3.8734,3.9191,3.9411,3.936,3.8159,3.7572,3.7462,3.7008,3.6759,3.6764,3.756,3.7893,3.7946,3.8496,3.8707,3.8707,3.8707,3.8707,3.8707,0.0,0.0,0.0,0.0,0.0,0.0,0.0,0.0,0.0,0.0,0.0,0.0,0.0,0.0,0.0,0.0,0.0,0.0,0.0,0.0,0.422,0.4387,0.5389,0.6007,0.6179,0.7112,0.7405,0.6979,0.6979,0.6979,0.7027,0.8019,0.8956,0.0,1.0919,1.1884,1.2686,1.2822,1.2881,1.2881,1.2881,1.2881,0.0,0.0,0.0,0.0,0.0,0.0,0.0,0.0,1.6522,0.0,0.0,0.0,0.0,0.0,0.0,1.884,1.9516,1.97,1.9679,0.0,0.0,0.0,0.0,0.0,0.0,0.0,0.0,0.0,0.0,0.0,0.0,0.0,0.0,0.0,0.0,0.0,3.2678,3.382,3.3987,3.4301,3.5207,3.5098,3.48,3.4333,3.4087,3.3987,3.3987,3.4186,3.4823,3.6071,3.6308,3.6789,3.755,3.755,3.7669,3.7905,3.8176,3.843,3.8616,3.7347,3.6772,3.6785,3.6327,3.6139,3.6207,3.7268,3.7877,3.8183,3.8546,3.8596,3.8465,3.8465,3.835,3.8219,0.0,0.0,0.0,0.0,0.0,0.0,0.0,0.0,0.0,0.0,0.0,0.0,0.0,0.0,0.0,0.0,0.0,0.0,0.0,0.3581,0.3836,0.4391,0.4957,0.5567,0.6179,0.6725,0.6979,0.6979,0.6979,0.6979,0.7027,0.8019,0.0,0.0,0.0,0.0,1.2209,1.2695,1.2881,1.2881,1.2881,1.2881,1.2881,0.0,0.0,0.0,0.0,0.0,0.0,0.0,1.6479,1.6522,0.0,0.0,0.0,0.0,1.8193,1.6942,1.908,1.9669,0.0,0.0,0.0,0.0,0.0,0.0,0.0,0.0,0.0,0.0,0.0,0.0,0.0,0.0,0.0,0.0,0.0,3.093,3.1744,3.2501,3.2586,3.313,3.4479,3.3987,3.3582,3.3582,3.3002,3.2586,3.2586,3.3251,3.3887,3.4576,3.5253,3.5994,3.6755,3.6772,3.7144,3.7872,3.7127,3.7161,3.7872,3.711,3.6772,3.6721,3.596,3.5622,3.5694,3.6746,3.7791,3.8676,3.8676,3.835,3.7893,3.7893,3.7614,3.719,0.0,0.0,0.0,0.0,0.0,0.0,0.0,0.0,0.0,0.0,0.0,0.0,0.0,0.0,0.0,0.0,0.0,0.0,0.0,0.3581,0.3667,0.3836,0.4787,0.5394,0.5567,0.6507,0.6979,0.6979,0.6979,0.6979,0.7021,0.0,0.0,0.8802,0.0,0.0,1.1284,1.2407,1.2879,1.2879,1.2879,1.2924,1.2881,0.0,0.0,0.0,0.0,0.0,0.0,0.0,0.0,0.0,0.0,0.0,0.0,1.9322,1.8208,1.6639,1.729,0.0,0.0,0.0,0.0,0.0,0.0,0.0,0.0,0.0,0.0,0.0,0.0,0.0,0.0,0.0,0.0,0.0,0.0,3.0203,3.1582,3.1796,3.1835,3.236,3.3754,3.3735,3.3391,3.2933,3.2695,3.2586,3.2586,3.2788,3.3443,3.4576,3.4783,3.5261,3.596,3.596,3.6079,3.6299,3.6062,3.6366,3.7094,3.6315,3.596,3.5943,3.5723,3.5622,3.565,3.6333,3.7038,3.7632,3.7632,3.756,3.7396,3.7396,3.7323,3.719,0.0,0.0,0.0,0.0,0.0,0.0,0.0,0.0,0.0,0.0,0.0,0.0,0.0,0.0,0.0,0.0,0.0,0.0,0.0,0.0,0.3581,0.3581,0.4443,0.5173,0.5653,0.655,0.6979,0.6979,0.6979,0.6979,0.0,0.0,0.7454,0.8306,0.0,0.9907,1.0584,1.1846,1.2574,1.2892,1.2892,1.2914,1.2887,0.0,0.0,0.0,0.0,0.0,0.0,0.0,0.0,0.0,0.0,0.0,0.0,1.8727,1.8275,1.7516,1.8113,0.0,0.0,0.0,0.0,0.0,0.0,0.0,0.0,0.0,0.0,0.0,0.0,0.0,0.0,0.0,0.0,0.0,2.8417,3.0217,3.15,3.1485,3.1521,3.1949,3.3114,3.2933,3.2718,3.2586,3.2327,3.2176,3.2176,3.2437,3.2986,3.3786,3.4087,3.4528,3.5207,3.5207,3.5362,3.5622,3.5622,3.5859,3.6299,3.5825,3.5622,3.5622,3.5622,3.5739,3.5941,3.6266,3.6724,3.719,3.719,3.7076,3.6882,3.6882,3.6764,3.6545,0.0,0.0,0.0,0.0,0.0,0.0,0.0,0.0,0.0,0.0,0.0,0.0,0.0,0.0,0.0,0.0,0.0,0.0,0.0,0.0,0.3581,0.3581,0.418,0.5043,0.6184,0.6725,0.6979,0.6979,0.6979,0.0,0.0,0.0,0.728,0.7844,0.0,0.9266,1.0038,1.1228,1.2088,1.2677,1.2677,1.2665,1.2675,1.2853,0.0,0.0,0.0,0.0,0.0,0.0,0.0,0.0,1.6491,1.72,1.8054,1.8062,1.8363,1.8995,2.0419,0.0,0.0,0.0,0.0,0.0,0.0,0.0,0.0,0.0,0.0,0.0,0.0,0.0,0.0,0.0,0.0,0.0,2.9267,3.0418,3.1219,3.1496,3.1501,3.1766,3.2422,3.1894,3.1796,3.2437,3.191,3.1482,3.1482,3.212,3.2532,3.2586,3.3182,3.3836,3.4479,3.4576,3.4894,3.5515,3.5577,3.5622,3.5622,3.5622,3.5622,3.5622,3.5622,3.5854,3.635,3.635,3.6603,3.7058,3.7058,3.6764,3.635,3.635,3.6028,3.5622,0.0,0.0,0.0,0.0,0.0,0.0,0.0,0.0,0.0,0.0,0.0,0.0,0.0,0.0,0.0,0.0,0.0,0.0,0.0,0.0,0.3581,0.3581,0.4574,0.5437,0.6179,0.6725,0.6979,0.6979,0.6979,0.0,0.0,0.0,0.0,0.7202,0.0,0.7994,0.9161,1.1568,1.1953,1.0881,1.0881,1.0861,1.1006,1.2365,1.2063,0.0,0.0,0.0,0.0,0.0,0.0,0.0,1.6492,1.6678,1.6979,1.7523,1.8035,1.8545,0.0,1.9698,0.0,0.0,0.0,0.0,0.0,0.0,0.0,0.0,0.0,0.0,0.0,0.0,0.0,0.0,0.0,0.0,2.7995,2.8248,2.922,3.1233,3.149,3.1554,3.1724,3.1582,3.1582,3.1739,3.1582,3.1482,3.1482,3.164,3.2007,3.2586,3.2749,3.3145,3.3786,3.4333,3.4688,3.483,3.5362,3.5622,3.5622,3.5622,3.5622,3.5622,3.5622,3.5667,3.5783,3.5783,3.5854,3.5924,3.5924,3.5854,3.5783,3.5783,3.5694,3.5622,0.0,0.0,0.0,0.0,0.0,0.0,0.0,0.0,0.0,0.0,0.0,0.0,0.0,0.0,0.0,0.0,0.0,0.0,0.0,0.0,0.0,0.0,0.4399,0.5173,0.5744,0.6343,0.6732,0.0,0.0,0.0,0.0,0.0,0.0,0.6979,0.0,0.7328,0.8043,1.0572,1.1116,1.0288,1.0288,1.0315,1.0404,1.1302,1.1085,1.0443,1.1634,0.0,0.0,0.0,0.0,0.0,0.0,0.0,1.698,1.7367,1.7839,1.8355,0.0,0.0,0.0,0.0,0.0,0.0,0.0,0.0,0.0,0.0,0.0,0.0,0.0,0.0,0.0,0.0,0.0,0.0,2.7631,2.7624,2.8098,2.949,3.0719,3.1521,3.1528,3.1501,3.1489,3.1524,3.1482,3.1482,3.1482,3.1482,3.1697,3.2064,3.2064,3.2422,3.3093,3.3495,3.3786,3.4137,3.48,3.5299,3.5622,3.5622,3.5622,3.5622,3.5622,3.5622,3.5622,3.5622,3.5622,3.5622,3.5622,3.5622,3.5622,3.5622,3.5622,3.5622,0.0,0.0,0.0,0.0,0.0,0.0,0.0,0.0,0.0,0.0,0.0,0.0,0.0,0.0,0.0,0.0,0.0,0.0,0.0,0.0,0.0,0.0,0.4092,0.4696,0.5303,0.5873,0.6477,0.0,0.0,0.0,0.0,0.0,0.0,0.6996,0.0,0.7209,0.7691,0.9512,1.0303,1.0283,1.0283,1.0281,1.0318,1.0318,1.0312,1.0383,1.0903,1.1256,1.1743,1.3378,0.0,0.0,0.0,0.0,1.6935,1.6892,1.7402,1.8011,0.0,0.0,0.0,0.0,0.0,0.0,0.0,0.0,0.0,0.0,0.0,0.0,0.0,0.0,0.0,0.0,0.0,0.0,2.7625,2.758,2.7602,2.7594,2.9485,3.0837,3.0835,3.1258,3.1429,3.1312,3.1432,3.142,3.136,3.1407,3.1482,3.1482,3.1482,3.1796,3.2382,3.2547,3.2895,3.3443,3.4235,3.4941,3.5622,3.5622,3.5622,3.5622,3.5622,3.5622,3.5622,3.5622,3.5622,3.5622,3.5622,3.5622,3.5622,3.5622,3.5622,3.5622,0.0,0.0,0.0,0.0,0.0,0.0,0.0,0.0,0.0,0.0,0.0,0.0,0.0,0.0,0.0,0.0,0.0,0.0,0.3581,0.0,0.0,0.3581,0.4092,0.4696,0.5303,0.5873,0.6477,0.0,0.0,0.0,0.0,0.0,0.0,0.7001,0.0,0.0,0.9875,1.0181,1.0293,1.0283,1.0283,1.0312,1.0312,1.0312,1.0293,1.039,1.092,1.1038,1.1233,1.2781,1.335,0.0,0.0,0.0,1.523,1.522,1.6023,1.6903,0.0,0.0,0.0,0.0,0.0,0.0,0.0,0.0,0.0,0.0,0.0,0.0,0.0,0.0,0.0,0.0,0.0,0.0,2.7625,2.7604,2.7622,2.7579,2.792,2.8119,2.81,3.0187,3.1204,3.0452,3.1056,3.1227,3.0657,3.121,3.1482,3.1482,3.1482,3.1539,3.164,3.2272,3.2641,3.2749,3.3987,3.4941,3.5622,3.5622,3.5622,3.5622,3.5622,3.5622,3.5622,3.5622,3.5622,3.5622,3.5622,3.5622,3.5622,3.5622,3.5622,3.5622,0.0,0.0,0.0,0.0,0.0,0.0,0.0,0.0,0.0,0.0,0.0,0.0,0.0,0.0,0.0,0.3581,0.3581,0.3581,0.3581,0.3581,0.3581,0.3581,0.384,0.4355,0.5265,0.5567,0.0,0.0,0.0,0.0,0.0,0.7003,0.7374,0.0,0.0,0.0,0.0,0.0,1.0299,1.0283,1.0283,1.0283,1.0283,1.0283,1.0283,1.0342,1.0587,1.0606,1.0815,1.2331,1.2856,1.3111,1.4481,0.0,0.0,0.0,1.5274,0.0,1.6799,0.0,0.0,0.0,0.0,0.0,0.0,0.0,0.0,0.0,0.0,0.0,0.0,0.0,0.0,0.0,0.0,0.0,2.7625,2.7625,2.7619,2.7601,2.7616,2.7617,2.7598,2.8643,2.916,2.8764,2.9545,3.0013,2.9983,3.0283,3.0597,3.0941,3.0956,3.115,3.1482,3.1796,3.2176,3.2586,3.3582,3.4382,3.5052,3.5424,3.5622,3.5622,3.5622,3.5622,3.5622,3.5622,3.5622,3.5622,3.5622,3.5622,3.5622,3.5622,3.5622,3.5622,0.0,0.0,0.0,0.0,0.0,0.0,0.0,0.0,0.0,0.0,0.0,0.0,0.0,0.0,0.0,0.0,0.3581,0.3581,0.3581,0.3581,0.3581,0.3581,0.3581,0.4144,0.5265,0.0,0.0,0.0,0.0,0.0,0.6977,0.6996,0.7649,0.0,0.7556,0.0,0.0,0.0,0.0,0.0,1.0282,1.0312,1.0283,1.0283,1.0283,1.0283,1.0283,1.0283,1.0517,1.1921,1.24,1.2659,1.4012,1.4463,0.0,0.0,0.0,0.0,0.0,0.0,0.0,0.0,0.0,0.0,0.0,0.0,0.0,0.0,0.0,0.0,0.0,0.0,0.0,0.0,0.0,0.0,2.7625,2.7625,2.7625,2.7625,2.7625,2.7614,2.758,2.7595,2.7579,2.7612,2.8198,2.8699,2.9068,2.9316,2.966,3.0253,3.0268,3.0507,3.1031,3.1195,3.1596,3.2338,3.3014,3.3786,3.464,3.5098,3.5362,3.5362,3.5515,3.5622,3.5622,3.5622,3.5515,3.5362,3.5515,3.5515,3.5362,3.5532,3.547,3.5362,0.0,0.0,0.0,0.0,0.0,0.0,0.0,0.0,0.0,0.0,0.0,0.0,0.0,0.3581,0.3581,0.3581,0.3581,0.3581,0.3581,0.3581,0.3581,0.3581,0.3581,0.0,0.5265,0.0,0.0,0.0,0.0,0.0,0.6988,0.7006,0.7659,0.8765,0.7517,0.7049,0.7328,0.0,0.0,0.0,0.0,0.0,0.0,0.0,1.0283,0.0,0.0,1.0283,1.0477,1.1511,1.1844,1.2002,1.2981,1.3286,1.3286,0.0,0.0,0.0,0.0,0.0,0.0,0.0,0.0,0.0,0.0,0.0,0.0,0.0,0.0,0.0,0.0,0.0,0.0,0.0,0.0,0.0,2.7625,2.7625,2.7625,2.7625,2.7625,2.7575,2.759,2.759,2.7604,2.7619,2.7647,2.7668,2.7682,2.8483,2.9163,2.9624,2.9624,2.9639,2.9684,3.0268,3.0925,3.1641,3.233,3.3339,3.4576,3.464,3.464,3.4688,3.5316,3.5622,3.5622,3.5622,3.5207,3.4736,3.5362,3.5207,3.4736,3.5362,3.5207,3.464,0.0,0.0,0.0,0.0,0.0,0.0,0.0,0.0,0.0,0.0,0.0,0.0,0.0,0.3581,0.3581,0.3581,0.3581,0.3581,0.3581,0.3581,0.3581,0.3581,0.3581,0.4144,0.5265,0.0,0.0,0.0,0.0,0.6983,0.7013,0.7017,0.7649,0.8768,0.8338,0.8504,0.9253,1.1151,0.0,0.0,0.0,0.0,0.0,0.0,0.0,0.0,0.0,0.0,1.0795,1.154,1.1811,1.1957,1.2908,1.3198,1.3198,1.3198,0.0,0.0,0.0,0.0,0.0,0.0,0.0,0.0,0.0,0.0,0.0,0.0,0.0,0.0,0.0,0.0,0.0,0.0,0.0,0.0,2.7625,2.7625,2.7625,2.7625,2.7625,2.7625,2.7625,2.7625,2.7625,2.7625,2.7615,2.7595,2.7622,2.788,2.8321,2.8921,2.8951,2.9146,2.9579,2.9804,3.0072,3.0342,3.1413,3.2185,3.2688,3.3577,3.4151,3.4379,3.4333,3.4301,3.4301,3.4301,3.4186,3.3987,3.4235,3.4202,3.3987,3.4252,3.4137,3.3987,0.0,0.0,0.0,0.0,0.0,0.0,0.0,0.0,0.0,0.0,0.0,0.0,0.0,0.0,0.3581,0.3581,0.3581,0.3581,0.3581,0.3751,0.388,0.388,0.4056,0.4574,0.5475,0.0,0.0,0.0,0.0,0.0,0.0,0.7014,0.7432,0.8219,0.896,0.9992,0.0,0.0,0.0,1.2759,0.0,0.0,1.1146,0.0,0.0,0.0,0.0,0.0,0.0,0.0,1.1888,1.1945,1.2866,1.3196,0.0,0.0,0.0,0.0,0.0,0.0,0.0,0.0,0.0,0.0,0.0,0.0,0.0,0.0,0.0,0.0,0.0,0.0,0.0,0.0,0.0,0.0,2.7616,2.7599,2.7625,2.7625,2.7625,2.7625,2.7625,2.7625,2.7625,2.7625,2.761,0.0,2.6935,2.736,2.7806,2.8233,2.8248,2.8472,2.8906,2.8958,2.8949,2.8949,3.0145,3.0997,3.1581,3.253,3.3312,3.405,3.3566,3.3423,3.3582,3.3582,3.3495,3.3287,3.3479,3.3443,3.3287,3.3547,3.3443,3.3235,0.0,0.0,0.0,0.0,0.0,0.0,0.0,0.0,0.0,0.0,0.0,0.0,0.0,0.0,0.0,0.367,0.367,0.367,0.367,0.4136,0.443,0.443,0.4957,0.5475,0.5899,0.5899,0.0,0.0,0.0,0.0,0.0,0.0,0.6995,0.7097,0.9239,1.1168,1.2725,0.0,1.1361,1.2767,0.0,1.1373,1.272,0.0,0.0,0.0,1.1281,1.1332,0.0,1.1984,0.0,0.0,0.0,0.0,0.0,0.0,0.0,0.0,0.0,0.0,0.0,0.0,0.0,0.0,0.0,0.0,0.0,0.0,0.0,0.0,0.0,0.0,0.0,0.0,0.0,0.0,2.7568,2.7609,2.7625,2.7625,2.7625,2.7625,2.7625,2.7625,2.7625,2.7625,2.761,2.703,2.5741,2.6905,2.7625,2.7625,2.7625,2.7625,2.7625,2.7602,2.7594,2.7594,2.8453,2.9735,3.1397,3.1482,3.2279,3.352,3.3045,3.3096,3.3531,3.3531,3.313,3.2641,3.3287,3.313,3.2641,3.3287,3.3145,3.2586,0.0,0.0,0.0,0.0,0.0,0.0,0.0,0.0,0.0,0.0,0.0,0.0,0.0,0.0,0.4831,0.4831,0.4831,0.4831,0.4831,0.4961,0.5043,0.5043,0.4942,0.5245,0.6087,0.5669,0.0,0.0,0.0,0.0,0.0,0.0,0.0,0.0,0.7637,0.9063,1.1051,1.1863,0.0,0.0,1.2357,1.1704,0.0,0.0,0.0,0.0,0.0,1.1528,1.1482,0.0,1.2244,1.2318,0.0,0.0,0.0,0.0,0.0,0.0,1.3198,0.0,0.0,0.0,0.0,0.0,0.0,0.0,0.0,0.0,0.0,0.0,0.0,0.0,0.0,0.0,0.0,0.0,2.7277,2.7614,2.7625,2.7625,2.7625,2.7625,2.7625,2.7625,2.7625,0.0,2.7595,2.7425,2.7045,2.7405,2.7625,2.7625,2.7625,2.7625,2.7625,2.7599,2.7593,2.7593,2.7817,2.8203,2.8681,2.9697,3.0853,3.209,3.1949,3.194,3.2074,3.2069,3.1992,3.1796,3.1992,3.1951,3.1853,3.1992,3.1951,3.1796,0.0,0.0,0.0,0.0,0.0,0.0,0.0,0.0,0.0,0.0,0.0,0.0,0.0,0.0,0.0,0.5303,0.5303,0.5303,0.5303,0.5524,0.5658,0.5658,0.5679,0.593,0.652,0.6186,0.6355,0.0,0.0,0.0,0.0,0.0,0.0,0.0,0.0,0.0,0.0,0.0,0.0,0.0,1.2112,0.0,0.0,1.2132,1.1979,0.0,0.0,0.0,1.191,1.2393,1.2573,0.0,0.0,0.0,0.0,0.0,0.0,0.0,0.0,0.0,0.0,0.0,0.0,0.0,1.4527,1.5827,0.0,0.0,0.0,0.0,0.0,0.0,0.0,0.0,0.0,0.0,2.7208,2.758,2.7605,2.761,2.7625,2.7625,2.7625,2.7625,2.7625,2.7625,2.7575,2.761,2.761,2.7625,2.7625,2.7625,2.7625,2.7625,2.7625,2.7625,2.7625,2.7625,2.7601,2.7624,2.7654,2.8434,2.916,2.9947,3.1034,3.15,3.15,3.1516,3.1501,3.1482,3.1482,3.1273,3.0989,3.1384,3.1132,3.0731,0.0,0.0,0.0,0.0,0.0,0.0,0.0,0.0,0.0,0.0,0.0,0.0,0.0,0.0,0.0,0.0,0.5475,0.5475,0.5475,0.6002,0.6307,0.6307,0.6732,0.6979,0.6979,0.6979,0.6979,0.6979,0.0,0.0,0.0,0.0,0.0,0.0,0.0,0.0,0.0,0.0,0.0,1.2498,1.1116,1.147,0.0,0.0,1.1826,1.2039,1.2695,1.2607,1.2285,1.2809,1.2989,0.0,0.0,0.0,0.0,0.0,1.3574,0.0,0.0,0.0,0.0,0.0,0.0,0.0,1.4181,1.5737,1.7267,0.0,0.0,0.0,0.0,0.0,0.0,0.0,0.0,0.0,2.6778,2.7414,2.761,2.761,2.762,2.76,2.758,2.758,2.7595,2.7625,2.7625,2.7625,2.7625,2.7625,2.7625,2.7625,2.7625,2.7625,2.7625,2.7625,2.7625,2.7625,2.7625,2.7625,2.7575,2.7587,2.7602,2.7743,3.0076,3.1075,3.1075,3.1051,3.1228,3.1492,3.1492,3.1001,3.0417,3.1071,3.0563,2.9564,0.4776,0.0,0.0,0.0,0.0,0.0,0.0,0.0,0.0,0.0,0.0,0.0,0.0,0.0,0.0,0.0,0.6677,0.6677,0.6677,0.6768,0.6852,0.6852,0.6937,0.6979,0.6979,0.6979,0.6979,0.6979,0.0,0.0,0.0,0.0,0.0,0.0,0.0,0.0,0.0,0.0,0.0,1.0889,1.1965,0.0,1.2233,1.252,1.2239,1.1787,1.2588,1.2607,1.2375,1.3382,1.3375,1.3119,0.0,0.0,0.0,1.3224,0.0,0.0,0.0,0.0,0.0,0.0,0.0,0.0,1.3425,1.3749,1.4471,0.0,0.0,0.0,0.0,0.0,0.0,0.0,0.0,0.0,2.3992,2.6225,2.758,2.7612,2.7596,2.7605,2.7576,2.7606,2.7599,2.761,2.7625,2.7625,2.7625,2.7625,2.7625,2.7625,2.7625,2.7625,2.7625,2.7625,2.7625,2.7625,2.7625,2.7625,2.7625,2.7584,2.7614,2.7643,2.8122,2.8375,2.8337,2.8346,2.9585,3.1479,3.1479,3.1387,3.1119,3.0292,2.9555,2.905,0.4351,0.0,0.0,0.0,0.0,0.0,0.0,0.0,0.0,0.0,0.0,0.0,0.0,0.0,0.0,0.0,0.0,0.0,0.0,0.0,0.6979,0.6979,0.6979,0.6979,0.6979,0.6979,0.6979,0.6979,0.0,0.0,0.0,0.0,0.0,0.0,0.0,0.0,0.0,0.0,1.0419,1.0701,1.1929,0.0,1.2083,1.2684,1.2655,1.2322,1.2725,1.2744,1.2614,1.2919,1.3052,0.0,0.0,1.3242,1.2524,0.0,1.289,1.2544,0.0,0.0,0.0,1.3198,0.0,0.0,0.0,1.3766,1.4289,1.5418,1.5524,1.5989,1.801,0.0,0.0,0.0,0.0,1.8955,2.1323,2.282,2.4118,2.5439,2.5633,2.6116,2.7483,2.7622,2.7573,2.7613,2.7628,2.7628,2.7628,2.7603,2.7629,2.7629,2.76,2.7625,2.7625,2.7625,2.7625,2.7625,2.7625,2.7625,2.7625,2.7625,2.7625,2.7575,2.7571,2.7594,2.7594,2.7572,2.839,2.9531,2.9552,2.9529,2.9629,3.0289,2.9599,2.8263,0.3614,0.0,0.0,0.0,0.0,0.0,0.0,0.0,0.0,0.0,0.0,0.0,0.0,0.0,0.0,0.0,0.0,0.0,0.0,0.0,0.0,0.6985,0.6979,0.6979,0.6979,0.6979,0.7014,0.7001,0.0,0.0,0.0,0.0,0.0,0.0,0.0,0.0,0.0,0.0,0.0,1.1074,0.0,1.1974,1.1981,1.2676,1.2832,1.2773,1.2852,1.2881,1.2861,1.2503,1.2564,1.2941,1.3554,1.3001,0.0,0.0,0.0,0.0,0.0,0.0,0.0,0.0,0.0,1.3301,0.0,0.0,0.0,1.4999,1.5025,0.0,0.0,0.0,0.0,0.0,0.0,0.0,0.0,1.9501,0.0,2.3269,2.3624,2.4445,2.6612,2.6856,2.6824,2.6808,2.7301,2.7394,2.6839,2.6831,2.7055,2.7564,2.7579,2.7615,2.7625,2.7625,2.7625,2.7625,2.7625,2.7625,2.7625,2.7625,2.7625,2.7625,2.7625,2.7625,2.7625,2.7625,2.7625,2.7619,2.76,2.7607,2.7877,2.9959,2.9419,2.7625,0.359,0.5288,0.0,0.0,0.0,0.0,0.0,0.0,0.0,0.0,0.0,0.0,0.0,0.0,0.0,0.0,0.0,0.0,0.7041,0.0,0.0,0.0,0.6979,0.6979,0.6979,0.6979,0.6994,0.7017,0.0,0.0,0.0,0.0,0.0,0.0,1.0303,0.0,0.0,0.0,1.1197,0.0,1.1982,1.1953,0.0,1.2559,1.2637,1.2353,1.2744,1.2881,1.2899,0.0,1.2701,1.2423,0.0,1.2276,1.1267,1.2217,0.0,0.0,0.0,0.0,0.0,0.0,1.2908,0.0,0.0,0.0,1.3389,1.3446,0.0,0.0,0.0,0.0,0.0,0.0,0.0,0.0,1.9108,1.8863,1.9603,2.3179,2.359,2.3712,2.4025,2.4025,2.4054,2.4072,2.6243,2.6549,2.4206,2.4054,2.5118,2.7519,2.761,2.7584,2.7625,2.7625,2.7625,2.7625,2.7625,2.7625,2.7625,2.7625,2.7625,2.7625,2.7625,2.7625,2.7625,2.7625,2.7625,2.7575,2.7584,2.7599,2.7649,2.7916,2.7855,2.7625,0.5561,0.5819,0.0,0.0,0.0,0.0,0.0,0.0,0.0,0.0,0.0,0.0,0.0,0.0,0.0,0.0,0.0,0.7163,0.0,0.0,0.0,0.0,0.0,0.0,0.6979,0.6987,0.6996,0.701,0.8291,0.0,0.0,0.0,0.0,0.0,1.0293,0.0,1.1096,0.0,1.1214,0.0,0.0,0.0,0.0,1.2586,1.2773,1.2598,1.2529,1.2666,1.288,0.0,1.2518,0.0,0.0,0.0,0.0,0.0,0.0,0.0,0.0,0.0,0.0,0.0,0.0,0.0,1.3202,0.0,1.3198,0.0,0.0,0.0,0.0,0.0,0.0,0.0,1.3189,0.0,0.0,0.0,1.6289,0.0,0.0,0.0,2.2322,2.1917,2.1526,2.1397,2.3787,2.4771,2.3658,2.3587,2.4105,2.5221,2.6793,2.7606,2.7584,2.7599,2.7625,2.7625,2.7625,2.7625,2.7625,2.7625,2.7625,2.7625,2.7625,2.7625,2.7625,2.7625,2.7625,2.7625,2.7625,2.7625,2.7625,2.7625,2.7625,2.7625,0.7016,0.0,0.0,0.0,0.0,0.0,0.0,0.0,0.0,0.0,0.0,0.0,0.6999,0.7699,0.0,0.0,0.7348,0.7187,0.0,0.0,0.7335,0.0,0.0,0.0,0.0,0.0,0.7279,0.7915,0.0,0.0,0.0,0.0,0.0,0.0,0.0,1.0576,1.1032,0.0,1.1338,1.1802,1.192,1.1969,1.2028,1.25,1.2773,1.2842,1.252,1.2617,1.2822,1.2242,1.2345,0.0,1.196,0.0,0.0,0.0,0.0,0.0,1.1185,0.0,0.0,0.0,0.0,0.0,0.0,0.0,0.0,0.0,0.0,0.0,0.0,0.0,0.0,0.0,0.0,1.3187,0.0,0.0,0.0,0.0,0.0,0.0,0.0,2.1109,2.047,1.9003,2.1136,2.2553,2.254,2.2569,2.2555,2.2587,2.5121,2.6522,2.6519,2.7246,2.7595,2.762,2.762,2.76,2.7625,2.7625,2.7625,2.7625,2.7625,2.7625,2.7625,2.7625,2.7625,2.7625,2.7625,2.7625,2.7625,2.7625,2.7625,2.7625,0.7005,0.6979,0.0,0.0,0.0,0.0,0.0,0.0,0.0,0.0,0.0,0.0,0.0,0.0,0.0,0.0,0.0,0.7611,0.7032,0.0,0.8241,0.0,0.0,0.7006,0.0,0.0,0.0,0.0,0.0,0.0,0.0,0.0,0.0,0.0,0.0,1.0518,1.0947,1.141,1.1797,1.22,1.2666,1.2842,1.2793,0.0,1.251,1.2881,1.2861,0.0,0.0,1.2363,1.2227,0.0,0.0,0.0,0.0,0.0,0.0,0.0,0.0,0.0,0.0,1.1419,0.0,0.0,0.0,0.0,1.3216,0.0,0.0,0.0,0.0,0.0,0.0,0.0,0.0,0.0,0.0,0.0,0.0,0.0,0.0,0.0,0.0,2.2022,2.1585,1.6931,1.8601,1.9847,1.9936,1.9921,1.9908,1.9913,2.2417,2.3727,2.371,2.6317,2.7609,2.7595,2.7595,2.7618,2.7625,2.7625,2.7625,2.7625,2.7625,2.7625,2.7625,2.7625,2.7625,2.7625,2.7625,2.7625,2.7625,2.7625,2.7625,2.7625,0.0,0.0,0.0,0.0,0.0,0.0,0.0,0.7009,0.0,0.0,0.0,0.0,0.0,0.7339,0.7621,0.0,0.0,0.843,0.818,0.856,0.0,0.0,0.0,0.7829,0.0,0.0,0.0,0.0,0.0,0.0,0.0,0.0,0.0,0.0,0.0,1.0518,0.0,0.0,0.0,0.0,0.0,1.2451,1.2461,0.0,1.2754,1.2881,1.2881,1.2881,0.0,1.2706,1.2669,1.2665,1.2646,1.2493,1.2332,1.2529,1.2503,0.0,0.0,0.0,1.1073,1.082,0.0,0.0,0.0,0.0,0.0,0.0,0.0,0.0,0.0,0.0,0.0,0.0,0.0,0.0,0.0,0.0,0.0,0.0,0.0,0.0,0.0,0.0,1.9909,2.1102,1.9622,1.9725,2.2199,2.2294,2.2305,2.2293,2.3155,2.3626,2.3593,2.452,2.4967,2.4952,2.6748,2.7576,2.7618,2.76,2.7625,2.7625,2.7625,2.7625,2.7625,2.7625,2.7625,2.7625,2.7625,2.7625,2.7625,2.7625,2.7625,2.7625,0.6842,0.0,0.0,0.0,0.0,0.0,0.0,0.0,0.0,0.0,0.8538,0.0,0.7704,0.0,0.7647,0.0,0.7936,0.8331,0.8755,0.8792,0.0,0.7656,0.8366,0.0,0.0,0.0,0.0,0.0,0.0,0.9533,0.0,0.0,0.0,0.0,0.0,1.043,1.0723,0.0,1.1773,0.0,0.0,1.2278,0.0,0.0,1.2744,1.2881,0.0,1.2881,1.29,1.2885,1.2907,1.289,1.2875,1.2909,1.2902,1.2919,1.2909,1.2894,1.2896,1.2471,0.0,1.1348,1.2067,0.0,1.0694,0.0,1.0312,0.0,0.0,0.0,0.0,0.0,0.0,0.0,0.0,0.0,0.0,1.1732,0.0,0.0,0.0,0.0,0.0,0.0,1.7222,2.0582,1.9497,1.9701,2.2095,2.2194,2.2643,2.3548,2.3599,2.36,2.3585,2.3585,2.3583,2.3647,2.5354,2.6695,2.7588,2.761,2.7588,2.7588,2.7588,2.7588,2.7588,2.7588,2.7588,2.7588,2.7588,2.7588,2.7618,2.76,2.7625,2.7625,0.0,0.0,0.0,0.0,0.6992,0.0,0.0,0.0,0.7071,0.0,0.8061,0.8781,0.8798,0.8805,0.8796,0.8784,0.773,0.753,0.8665,0.8743,0.0,0.0,0.8757,0.881,0.8812,0.0,0.0,0.0,0.0,0.0,0.0,0.0,0.0,0.0,1.0283,0.0,1.0342,1.1234,1.1616,1.1675,1.2031,1.2461,1.2803,1.2336,1.25,1.2881,1.2881,1.2881,1.2881,1.2881,1.2881,1.2881,1.2881,1.2881,1.2881,1.2881,1.2881,1.2881,1.2881,1.2881,1.2908,1.2919,1.2976,0.0,0.0,0.0,1.0441,0.0,0.0,0.0,0.0,0.0,0.0,0.0,0.0,0.0,0.0,0.0,0.0,0.0,0.0,0.0,0.0,1.3742,1.3964,1.5558,1.8065,1.9546,0.0,1.971,2.09,2.3508,2.3601,2.3623,2.3595,2.358,2.3599,2.3583,2.3598,2.4956,2.738,2.741,2.741,2.7395,2.7379,2.7394,2.741,2.741,2.741,2.741,2.741,2.7395,2.7409,2.7474,2.755,2.7595,0.4343,0.5845,0.6999,0.0,0.7009,0.6976,0.0,0.0,0.0,0.0,0.8059,0.8799,0.8819,0.8792,0.8788,0.8796,0.8511,0.0,0.0,0.0,0.0,0.75,0.83,0.8781,0.8776,0.8503,0.0,1.0292,0.0,0.0,1.0285,0.0,0.0,0.0,0.0,0.0,1.0342,1.1234,1.1758,1.2041,1.1816,1.1937,1.2204,0.0,1.2386,1.2881,1.2881,1.2881,1.2881,1.2881,1.2881,1.2881,1.2881,1.2881,1.2881,1.2881,1.2881,1.2881,1.2881,1.2881,1.29,1.2907,1.4255,1.5452,0.0,0.0,0.0,0.0,0.0,0.0,0.0,0.0,0.0,0.0,0.0,0.0,0.0,0.0,0.0,1.1067,0.0,0.0,1.3501,1.4114,1.4306,1.3913,1.5692,1.7651,1.9611,0.0,2.0891,2.3533,2.3615,2.3584,2.3595,2.3613,2.3616,2.3584,2.3585,2.3984,2.4625,2.4619,2.4644,2.4658,2.4644,2.4618,2.4631,2.4631,2.4631,2.465,2.4622,2.4629,2.4764,2.5759,2.6748,2.7542,0.3609,0.0,0.0,0.6992,0.0,0.0,0.7721,0.8353,0.0,0.789,0.7904,0.0,0.8724,0.8822,0.8795,0.8805,0.8342,0.0,0.7034,0.0,0.0,0.784,0.8449,0.8537,0.8036,0.8539,0.0,1.1456,0.0,0.0,1.0283,0.0,0.0,0.0,0.0,1.0283,1.0342,1.1234,1.1807,1.2095,1.1888,1.1998,0.0,1.1948,1.2262,1.2881,1.2881,1.2881,1.2881,1.2881,1.2881,1.2881,1.2881,1.2881,1.2881,1.2881,1.2881,1.2881,1.2881,1.2881,1.291,1.2918,1.3936,1.4956,1.4956,1.3887,1.2923,0.0,1.2882,1.3313,0.0,0.0,0.0,0.0,0.0,0.0,0.0,0.0,0.0,0.0,1.1945,0.0,1.2265,1.3734,1.4507,1.3979,1.4617,1.5748,1.7357,0.0,2.037,2.1835,2.3023,2.3046,2.1892,2.3038,2.3588,2.3596,2.3629,2.3595,2.3603,2.3593,2.2989,2.201,2.3126,2.2951,2.1918,2.1918,2.2588,2.3473,2.2376,2.2597,2.3647,2.4051,2.5174,2.6444,0.0,0.0,0.0,0.0,0.0,0.0,0.0,0.8801,0.0,0.8808,0.0,0.765,0.8672,0.8791,0.8791,0.881,0.0,0.7167,0.7037,0.8126,0.8816,0.881,0.8789,0.8309,0.7277,0.8204,0.9984,0.0,0.0,0.0,0.0,0.0,0.0,0.0,0.0,0.0,0.0,1.1172,1.1768,1.2115,1.2022,1.2234,1.2503,1.1969,1.2253,1.2881,1.2881,1.2881,1.2881,1.2881,1.2881,1.2881,1.2881,1.2881,1.2881,1.2881,1.2881,1.2881,1.2881,1.2881,1.289,1.2895,1.2902,1.2902,1.2902,1.2876,1.2975,1.3314,1.3376,1.3373,0.0,0.0,0.0,0.0,0.0,0.0,0.0,0.0,0.0,0.0,0.0,0.0,1.1212,1.3107,1.4538,1.4772,1.436,1.4288,1.4695,0.0,1.9346,1.9702,2.1894,2.1853,1.931,2.1821,2.2964,2.2673,2.2978,2.3129,2.3089,2.3084,2.1882,1.9911,2.2158,2.1828,1.9816,1.9816,2.1118,2.288,2.0671,2.1175,2.3031,2.2441,2.3245,2.4808,0.0,0.0,0.0,0.0,0.0,0.7399,0.8609,0.8792,0.8786,0.8809,0.8617,0.8547,0.8758,0.8781,0.8822,0.8816,0.8584,0.0,0.0,0.0,0.0,0.882,0.8822,0.8684,0.8468,0.8216,0.9066,0.0,0.0,0.0,0.0,0.0,0.0,0.0,0.0,0.0,1.0355,1.0939,0.0,1.2689,1.2194,1.1481,1.0886,1.2166,1.2783,1.2881,1.2881,1.2881,1.2881,1.2881,1.2881,1.2881,1.2881,1.2881,1.2881,1.2881,1.2881,1.2881,1.2881,1.2881,1.292,1.289,1.288,1.288,1.288,1.2899,1.3463,1.5445,1.5873,1.5854,1.5846,0.0,0.0,0.0,0.0,0.0,0.0,0.0,0.0,0.0,0.0,1.2686,0.0,1.3088,1.408,1.4226,1.4133,1.4648,1.5845,0.0,1.7471,0.0,2.0157,1.9301,0.0,0.0,1.9473,1.7784,1.9581,2.0479,2.0448,2.0488,2.0197,1.9838,2.0265,2.023,1.9817,1.9817,2.007,2.0422,1.9972,2.008,2.0536,2.109,2.1969,2.3051,0.0,0.0,0.0,0.0,0.0,0.0,0.0,0.8806,0.8817,0.8792,0.8783,0.881,0.8786,0.8783,0.881,0.8786,0.8802,0.8552,0.7953,0.8457,0.909,0.9806,0.9829,0.9636,0.9213,0.9132,0.946,1.016,0.0,0.0,0.0,0.0,0.0,0.0,0.0,1.0296,0.0,0.0,0.0,1.2888,1.2589,1.2128,1.1728,1.2584,1.2886,1.2888,1.2888,1.2889,1.291,1.29,1.2881,1.2881,1.2881,1.2881,1.2881,1.2881,1.2881,1.2881,1.2881,1.2881,1.2881,1.2881,1.2881,1.2881,1.2881,1.2899,1.3246,1.4382,1.462,1.5045,1.6264,1.3858,0.0,0.0,0.0,0.0,0.0,0.0,0.0,0.0,0.0,0.0,0.0,1.3131,1.4012,0.0,0.0,0.0,0.0,0.0,1.6475,0.0,0.0,0.0,1.7329,0.0,1.8658,1.6548,1.8725,1.9804,1.9808,1.9825,1.9799,1.9821,1.9826,1.9825,1.9788,1.9788,1.9799,1.9808,1.9808,2.0182,2.074,2.0523,2.0968,2.1902,0.0,0.3994,0.0,0.0,0.7774,0.0,0.8769,0.8802,0.8797,0.8798,0.8804,0.8804,0.8804,0.8804,0.8784,0.8717,0.8789,0.8741,0.8676,0.8755,0.9293,1.032,1.0561,1.0288,0.9433,1.0015,1.0187,0.0,0.0,0.0,0.0,0.0,0.0,0.0,0.0,0.0,0.0,0.0,1.2447,1.2919,1.29,1.2572,1.2022,1.2007,1.2043,1.2016,1.2016,1.2045,1.2113,1.2704,1.2881,1.2881,1.2881,1.2881,1.2881,1.2881,1.2881,1.2881,1.2881,1.2881,1.2881,1.2881,1.2881,1.2881,1.2881,1.2898,1.2885,1.2885,1.2876,1.3489,1.5394,1.42,0.0,0.0,0.0,0.0,0.0,0.0,0.0,0.0,0.0,0.0,1.1794,0.0,0.0,0.0,0.0,0.0,1.5136,0.0,0.0,0.0,0.0,1.7293,1.7775,0.0,1.8442,1.7233,1.8989,1.9825,1.9798,1.9798,1.9798,1.9798,1.9798,1.9798,1.9798,1.9798,1.9798,1.9798,1.9798,2.0424,2.1159,2.0165,2.0221,2.0938,0.0,0.0,0.0,0.0,0.0,0.0,0.8644,0.8783,0.8799,0.8778,0.8804,0.8804,0.8804,0.8804,0.8704,0.8437,0.8682,0.8666,0.827,0.8606,0.8844,0.8983,0.9789,0.9821,0.8882,1.0097,1.0746,0.0,0.0,1.0114,0.0,0.0,0.0,0.0,0.0,0.0,0.0,1.2771,1.2875,1.2899,1.2893,1.1411,0.9192,0.9204,0.9183,0.9199,0.9199,0.9192,0.9582,1.204,1.2878,1.2881,1.2881,1.2881,1.2881,1.2881,1.2881,1.2881,1.2881,1.2881,1.2881,1.2881,1.2881,1.2881,1.2881,1.292,1.29,1.29,1.2887,1.2959,1.319,1.3042,1.2895,0.0,0.0,0.0,0.0,0.0,1.2121,1.1204,0.0,0.0,1.1802,1.2287,1.2815,0.0,1.363,0.0,0.0,0.0,0.0,1.5109,1.5886,1.6423,1.6652,1.6766,1.7733,1.9492,1.9695,1.9825,1.9798,1.9798,1.9798,1.9798,1.9798,1.9798,1.9798,1.9798,1.9798,1.9798,1.9798,1.9862,1.9978,1.9825,1.9863,1.9927,0.0,0.0,0.0,0.0,0.0,0.0,0.0,0.8779,0.8795,0.8791,0.8804,0.8804,0.8804,0.8804,0.8758,0.8644,0.8384,0.8358,0.8535,0.8736,0.8999,0.9394,0.94,0.9562,0.9995,1.0543,1.1015,0.0,0.0,0.0,0.0,0.0,0.0,0.0,0.0,1.2246,1.2888,1.2892,1.2899,1.289,1.2893,1.1251,0.8809,0.8781,0.8822,0.8781,0.8781,0.8792,0.8964,1.0092,1.1563,1.289,1.289,1.289,1.2881,1.2881,1.2881,1.2881,1.2881,1.2881,1.2881,1.2881,1.2881,1.2881,1.2881,1.2881,1.2881,1.2881,1.2909,1.288,1.292,1.2907,1.2892,1.2896,0.0,0.0,0.0,0.0,0.0,1.2077,0.0,1.2724,0.0,1.2512,1.2689,1.3059,0.0,0.0,0.0,0.0,0.0,1.5723,0.0,1.6163,1.6955,1.6674,1.727,1.8862,1.9479,1.9825,1.9798,1.9798,1.9798,1.9798,1.9798,1.9798,1.9798,1.9798,1.9798,1.9798,1.9798,1.9798,1.9798,1.9798,1.9798,1.9798,0.8397,0.0,0.8799,0.0,0.8819,0.8758,0.8554,0.8676,0.8778,0.8691,0.8751,0.8804,0.8804,0.8804,0.8771,0.8691,0.8344,0.8266,0.8506,0.8711,0.8967,0.938,0.9214,0.0,1.0466,1.0914,1.1316,1.1814,1.1354,0.0,0.0,0.0,0.0,0.0,1.2032,1.2926,1.2889,1.288,1.2871,1.2909,1.2903,1.1251,0.8803,0.8803,0.8804,0.8804,0.8804,0.879,0.8806,0.8788,1.0089,1.1823,1.2653,1.288,1.2881,1.2881,1.2881,1.2881,1.2881,1.2881,1.2881,1.2881,1.2881,1.2881,1.2881,1.2881,1.2881,1.2881,1.2881,1.2881,1.2881,1.2881,1.2908,1.2904,0.0,0.0,0.0,1.2218,0.0,1.2474,1.2508,1.2499,1.258,1.2546,1.258,1.2685,0.0,0.0,0.0,0.0,0.0,0.0,0.0,0.0,1.6368,1.6149,1.6578,1.7733,1.9116,1.9825,1.9811,1.9783,1.982,1.982,1.979,1.9778,1.982,1.979,1.978,1.9811,1.9783,1.9822,1.9798,1.9798,1.9798,1.9798,0.8804,0.8791,0.8798,0.8798,0.8798,0.8586,0.8018,0.8442,0.8704,0.8417,0.8631,0.8804,0.8804,0.8804,0.8691,0.8404,0.8637,0.8564,0.7928,0.8484,0.8677,0.0,0.0,0.9814,0.9814,1.1116,1.1814,1.1814,0.0,0.0,1.0942,0.0,1.1921,1.0351,1.211,1.2881,1.2881,1.2881,1.2879,1.2919,1.2919,1.1259,0.8804,0.8804,0.8804,0.8804,0.8804,0.879,0.882,0.8823,0.8803,0.9338,1.2067,1.288,1.2881,1.2881,1.2881,1.2881,1.2881,1.2881,1.2881,1.2881,1.2881,1.2881,1.2881,1.2881,1.2881,1.2881,1.2881,1.2881,1.2881,1.2881,1.2916,1.2923,0.0,0.0,0.0,1.2372,0.0,1.165,1.2077,1.2173,1.1654,1.2097,0.0,0.0,0.0,0.0,0.0,0.0,0.0,1.3435,1.2866,0.0,1.4149,1.4671,1.5471,1.6575,1.8769,1.9825,1.9811,1.9812,1.9818,1.9789,1.9776,1.9794,1.9789,1.9776,1.9797,1.9772,1.9825,1.9828,1.9798,1.9798,1.9798,1.9798,0.8779,0.8823,0.9082,0.9893,0.9334,0.8863,0.9079,0.8923,0.8756,0.8704,0.8751,0.8804,0.8804,0.8804,0.8771,0.0,0.8571,0.8517,0.0,0.8517,0.8557,0.8664,0.8769,0.9048,0.9535,0.9917,1.0596,1.1513,0.0,0.0,0.0,1.2167,1.2577,1.211,1.2628,1.2881,1.2881,1.292,1.2899,1.2757,1.0836,0.9563,0.8808,0.8778,0.8804,0.8804,0.8804,0.8784,0.9113,1.0946,1.0366,0.9271,1.2037,1.2893,1.29,1.29,1.29,1.288,1.29,1.2881,1.2881,1.2881,1.2881,1.2881,1.2881,1.2881,1.2881,1.2881,1.2881,1.2881,1.2881,1.2881,1.2908,1.2894,1.2432,0.0,1.2802,0.0,1.2008,1.2012,1.1917,1.1903,1.2018,1.1917,0.0,0.0,0.0,0.0,0.0,0.0,0.0,0.0,1.3549,0.0,1.4481,1.4428,1.505,1.6306,1.7635,1.8836,1.9817,1.9794,1.8705,1.6819,1.6797,1.6776,1.6819,1.6797,1.7191,1.7909,1.8608,1.9243,1.9788,1.9809,1.9798,1.9798,0.9315,0.9114,0.9202,1.0393,0.9971,0.9586,0.9987,0.9307,0.8764,0.8606,0.8692,0.8804,0.8804,0.8804,0.0,0.8804,0.8644,0.8611,0.8798,0.8637,0.8617,0.8798,0.8637,0.888,0.9515,0.9565,0.0,1.1165,1.0581,1.0638,1.1384,1.2397,1.2888,1.2881,1.2881,1.291,1.29,1.2879,1.2286,1.1209,0.9504,0.8775,0.8815,0.8784,0.8804,0.8804,0.8804,0.8784,0.9047,1.0764,1.0202,0.9102,1.0845,1.1345,1.1368,1.1366,1.21,1.2907,1.288,1.29,1.289,1.2891,1.2881,1.2881,1.2881,1.2881,1.2881,1.2881,1.2881,1.2881,1.2881,1.2881,1.2909,1.2902,1.2898,1.2909,1.2902,0.0,1.1937,0.0,0.0,0.0,0.0,1.1973,1.194,0.0,0.0,0.0,0.0,0.0,1.2761,1.3032,1.3217,1.3576,1.4102,1.406,1.4589,1.573,1.641,1.7277,1.8144,1.8136,1.7124,1.5406,1.5431,1.5411,1.5406,1.5431,1.6203,1.7519,1.8143,1.894,1.9815,1.9809,1.9798,1.9798,0.9788,0.9347,0.8995,0.0,1.0594,0.0,1.046,0.9549,0.8686,0.8228,0.8527,0.8804,0.8804,0.8804,0.8804,0.8804,0.0,0.0,0.0,0.8791,0.8784,0.8804,0.8791,0.9079,0.9681,0.9681,1.0041,1.0661,1.1366,1.208,1.2774,1.2774,1.2832,1.2891,1.29,1.292,1.2868,1.2681,1.115,0.8799,0.8813,0.8822,0.8804,0.8804,0.8804,0.8804,0.8804,0.8797,0.8775,0.8823,0.8781,0.8799,0.8797,0.879,0.8792,0.8786,1.0594,1.2632,1.2601,1.2731,1.2879,1.292,1.2881,1.2881,1.2881,1.2881,1.2881,1.2881,1.2881,1.2881,1.2881,1.2881,1.2881,1.2881,1.2881,1.2871,1.2832,1.2167,1.1807,0.0,0.0,0.0,1.2141,1.2209,1.2219,0.0,0.0,0.0,0.0,0.0,1.1695,1.1685,1.2111,1.2578,1.3115,1.3556,1.4174,1.4911,1.5252,1.5416,1.5371,1.5425,1.5412,1.5422,1.539,1.5418,1.5375,1.539,1.6476,1.8205,1.823,1.8815,1.9579,1.9695,1.9695,1.9695,0.0,0.0,0.7124,1.0069,1.0615,1.0158,0.8798,0.912,0.9106,0.7961,0.8381,0.8804,0.8804,0.8804,0.8804,0.8804,0.8604,0.8571,0.8791,0.8604,0.8577,0.8798,0.8597,0.8579,0.8724,0.8724,0.8929,0.9256,1.0466,1.1124,1.1283,1.1283,1.1886,1.2919,1.2876,1.2893,1.2742,1.0643,0.9394,0.8806,0.879,0.8784,0.8804,0.8804,0.8804,0.8804,0.8804,0.8791,0.8823,0.8798,0.8823,0.879,0.8791,0.8791,0.8803,0.8792,0.9284,0.9798,0.9771,1.129,1.2899,1.2919,1.29,1.2881,1.2881,1.2881,1.2881,1.2881,1.2881,1.2881,1.2881,1.2881,1.2881,1.2881,1.2881,1.2686,1.1997,1.2305,1.2361,0.0,1.1924,1.2109,1.2171,1.2529,1.2588,0.0,0.0,1.2119,1.218,1.2122,1.2256,1.2606,1.2701,1.2956,1.3382,1.3511,1.3969,1.4815,1.5199,1.5426,1.5379,1.537,1.54,1.54,1.5391,1.5381,1.54,1.5391,1.568,1.6167,1.674,1.7078,1.7413,1.8555,1.898,1.898,0.5409,0.5378,0.5975,0.7909,0.8243,0.7916,0.6926,0.7542,0.8142,0.8172,0.8282,0.8427,0.8752,0.8804,0.8804,0.8804,0.8664,0.8637,0.8798,0.8657,0.8644,0.8798,0.8657,0.8571,0.8571,0.8571,0.8799,0.9263,0.9969,1.0517,1.0813,1.1006,1.1326,1.1628,1.1217,1.104,1.0929,0.9423,0.8781,0.8776,0.8784,0.8804,0.8804,0.8804,0.8804,0.8804,0.8804,0.8804,0.8804,0.8804,0.8804,0.8804,0.8804,0.8804,0.8791,0.879,0.8822,0.8802,0.8796,0.989,1.1318,1.2572,1.292,1.2881,1.2881,1.2881,1.2881,1.2881,1.2881,1.2881,1.2881,1.2881,1.2881,1.2881,1.258,1.2186,1.1845,1.194,1.2033,1.1875,1.208,1.2258,1.251,1.2744,1.2783,1.2549,1.2344,0.0,1.252,1.2334,1.2432,1.2871,1.3066,1.3281,1.3506,1.3896,1.4424,1.5078,1.5303,1.541,1.541,1.541,1.541,1.541,1.541,1.541,1.541,1.541,1.5584,1.5921,1.6322,1.6708,1.709,1.7895,1.8178,1.8178,0.5428,0.5397,0.537,0.537,0.5411,0.5383,0.5424,0.5751,0.652,0.8019,0.7795,0.783,0.854,0.8646,0.8699,0.8804,0.8804,0.8804,0.8804,0.8804,0.8804,0.8804,0.8804,0.8804,0.8804,0.8804,0.9061,0.9666,0.9666,1.0012,1.0669,1.0947,1.0753,1.0183,0.9191,0.8789,0.8775,0.8775,0.8776,0.8804,0.8804,0.8804,0.8804,0.8804,0.8804,0.8804,0.8804,0.8804,0.8804,0.8804,0.8804,0.8804,0.8804,0.8804,0.8804,0.8804,0.8804,0.8791,0.8802,0.8813,0.9453,1.2195,1.29,1.291,1.291,1.2891,1.2881,1.2881,1.2881,1.2881,1.2881,1.2881,1.2852,1.2725,1.2101,1.1667,1.1842,0.0,1.1299,1.1984,1.2089,1.2319,1.2686,1.2822,1.2881,1.2881,1.2539,1.249,1.2861,1.2529,1.2529,1.2959,1.332,1.3574,1.3701,1.4482,1.5059,1.541,1.541,1.541,1.541,1.541,1.541,1.541,1.541,1.541,1.541,1.541,1.5758,1.6322,1.6322,1.6698,1.7302,1.7413,1.7413,1.7413,0.5428,0.5422,0.5418,0.5418,0.5411,0.5432,0.5431,0.5236,0.5177,0.5389,0.6225,0.7074,0.7777,0.7883,0.8103,0.8752,0.8804,0.8804,0.8804,0.8804,0.8804,0.8804,0.8804,0.8804,0.8804,0.8804,0.8857,0.8956,0.8956,0.9309,0.9969,0.9472,0.9591,1.0154,0.9242,0.8817,0.8784,0.8784,0.8791,0.8804,0.8804,0.8804,0.8804,0.8804,0.8804,0.8804,0.8804,0.8804,0.8804,0.8804,0.8804,0.8804,0.8804,0.8804,0.8804,0.8804,0.8804,0.8804,0.8791,0.8822,0.9475,1.2213,1.2886,1.2879,1.2879,1.29,1.2881,1.2881,1.2881,1.2881,1.2881,1.2881,1.2638,1.1902,1.1677,1.1508,1.1249,0.0,1.0842,1.1313,1.1679,1.1899,1.1972,1.255,1.2881,1.2881,1.2812,1.2812,1.2881,1.2812,1.2978,1.3398,1.3477,1.3857,1.458,1.5068,1.5352,1.541,1.541,1.541,1.541,1.541,1.541,1.541,1.541,1.541,1.541,1.541,1.5468,1.5584,1.5584,1.5633,1.5806,1.6425,1.6652,1.6652,0.5428,0.5428,0.5428,0.5428,0.5425,0.5281,0.4944,0.4925,0.5042,0.5366,0.5417,0.6013,0.7557,0.7723,0.7996,0.8752,0.8804,0.8804,0.8804,0.8804,0.8804,0.8804,0.8804,0.8804,0.8804,0.8804,0.8804,0.8804,0.8804,0.8956,0.9263,0.8962,0.9022,0.9442,0.9015,0.8804,0.8804,0.8804,0.8804,0.8804,0.8804,0.8804,0.8804,0.8804,0.8804,0.8804,0.8804,0.8804,0.8804,0.8804,0.8804,0.8804,0.8804,0.8804,0.8804,0.8804,0.8804,0.8804,0.8804,0.8783,0.9085,1.0352,1.0704,1.0889,1.1586,1.1778,1.1792,1.1792,1.236,1.288,1.288,1.248,1.2027,1.1604,1.146,0.0,1.0672,1.0787,1.0862,1.066,1.1043,1.1266,1.1266,1.1584,1.1792,1.1792,1.2089,1.2295,1.2295,1.2878,1.3408,1.3828,1.4072,1.4492,1.5117,1.5312,1.541,1.541,1.541,1.541,1.541,1.541,1.541,1.541,1.541,1.541,1.541,1.541,1.541,1.541,1.541,1.541,1.5468,1.5748,1.5921,1.5921,0.5428,0.5401,0.5377,0.5377,0.5382,0.5199,0.4587,0.4653,0.4966,0.549,0.4953,0.5245,0.723,0.745,0.783,0.8699,0.8804,0.8804,0.8804,0.8804,0.8804,0.8804,0.8804,0.8804,0.8804,0.8804,0.8804,0.8804,0.8804,0.8804,0.8804,0.8804,0.8804,0.8804,0.8804,0.8804,0.8804,0.8804,0.8804,0.8804,0.8804,0.8804,0.8804,0.8804,0.8804,0.8804,0.8804,0.8804,0.8804,0.8804,0.8804,0.8804,0.8804,0.8804,0.8804,0.8804,0.8804,0.8804,0.8804,0.8797,0.8788,0.8788,0.881,0.9126,1.0383,1.0661,1.0695,1.0762,1.1654,1.2395,1.2395,1.1819,1.1288,1.1202,0.0,1.0811,1.0285,1.0525,1.0598,1.0156,1.0406,1.0568,1.0568,1.072,1.0813,1.0813,1.1266,1.1566,1.1566,1.2475,1.3199,1.3706,1.453,1.5088,1.541,1.541,1.541,1.541,1.541,1.541,1.541,1.541,1.541,1.541,1.541,1.5294,1.5108,1.5294,1.5167,1.4874,1.505,1.4991,1.4874,1.505,1.5108,1.5177,0.5428,0.538,0.541,0.541,0.5417,0.52,0.4565,0.4523,0.4521,0.4608,0.4522,0.5058,0.6529,0.6696,0.7235,0.8699,0.8804,0.8804,0.8804,0.8804,0.8804,0.8804,0.8804,0.8804,0.8804,0.8804,0.8804,0.8804,0.8804,0.8804,0.8804,0.8804,0.8804,0.8804,0.8804,0.8804,0.8804,0.8804,0.8804,0.8804,0.8804,0.8804,0.8804,0.8804,0.8804,0.8804,0.8804,0.8804,0.8804,0.8804,0.8804,0.8804,0.8804,0.8804,0.8804,0.8804,0.8804,0.8804,0.8804,0.8798,0.8791,0.8791,0.8815,0.9078,1.0043,1.0246,1.0335,1.0704,1.0872,1.0931,1.0931,1.0922,1.0756,1.0376,0.0,0.0,1.0188,0.9719,0.9447,0.979,0.985,0.9865,0.9865,1.0415,1.0813,1.0813,1.0864,1.0864,1.0864,1.1264,1.1806,1.2472,1.4378,1.5381,1.541,1.541,1.541,1.541,1.541,1.541,1.541,1.541,1.541,1.541,1.541,1.4991,1.4332,1.5108,1.451,1.3243,1.4025,1.3846,1.3252,1.4025,1.4273,1.4392,0.5373,0.5371,0.5297,0.4889,0.4817,0.4758,0.452,0.4492,0.4524,0.4525,0.4519,0.4842,0.5819,0.5923,0.6308,0.7343,0.783,0.8103,0.8103,0.8533,0.8804,0.8804,0.8804,0.8804,0.8804,0.8804,0.8804,0.8804,0.8804,0.8804,0.8804,0.8804,0.8804,0.8804,0.8804,0.8804,0.8804,0.8804,0.8804,0.8752,0.8321,0.8103,0.8103,0.8103,0.8103,0.8156,0.8646,0.8804,0.8804,0.8804,0.8804,0.8804,0.8804,0.8804,0.8804,0.8804,0.8804,0.8804,0.8804,0.8804,0.8804,0.8804,0.8778,0.8915,0.9271,0.9354,0.9384,0.951,0.9909,1.0167,1.0167,1.0167,1.012,0.9996,0.0,0.9829,0.9387,0.9482,0.9475,0.9197,0.9159,0.9159,0.9159,0.9413,0.9562,0.9562,0.9969,1.026,1.0477,1.1454,1.2233,1.2734,1.3536,1.3906,1.3906,1.3906,1.3906,1.3906,1.3906,1.4145,1.4628,1.4145,1.4213,1.4628,1.4154,1.3726,1.3485,1.3795,1.3545,1.3009,1.3373,1.3252,1.307,1.3373,1.3485,1.3485,0.5428,0.5258,0.4969,0.4559,0.4481,0.4502,0.4502,0.4528,0.4519,0.4519,0.4519,0.4673,0.5148,0.537,0.5814,0.6534,0.7074,0.7343,0.7343,0.8049,0.854,0.8804,0.8804,0.8804,0.8804,0.8804,0.8804,0.8804,0.8804,0.8804,0.8804,0.8804,0.8804,0.8804,0.8804,0.8804,0.8804,0.854,0.848,0.8374,0.767,0.7343,0.7343,0.7343,0.7343,0.7402,0.7943,0.8262,0.848,0.848,0.8593,0.8804,0.8804,0.8804,0.8804,0.8804,0.8804,0.8804,0.8804,0.8804,0.8804,0.8804,0.8804,0.8804,0.8804,0.8804,0.8804,0.8804,0.9159,0.9465,0.9465,0.9465,0.9465,0.9465,0.9465,0.9309,0.8857,0.9211,0.9309,0.8857,0.8804,0.8804,0.8804,0.8804,0.8804,0.8804,0.9211,0.9645,1.0063,1.111,1.1864,1.2205,1.2282,1.2282,1.2282,1.2765,1.3009,1.3009,1.3009,1.3312,1.3786,1.3243,1.3312,1.3786,1.3252,1.2887,1.2634,1.2887,1.2704,1.2274,1.252,1.2451,1.2274,1.2512,1.2634,1.2634,0.536,0.4857,0.4468,0.4468,0.4512,0.4519,0.4519,0.4519,0.4519,0.4519,0.4519,0.4505,0.4525,0.5085,0.576,0.6534,0.6588,0.6588,0.6588,0.7289,0.799,0.8752,0.8804,0.8804,0.8804,0.8804,0.8804,0.8804,0.8804,0.8804,0.8804,0.8804,0.8804,0.8804,0.8804,0.8804,0.8752,0.7996,0.7723,0.7616,0.6912,0.6588,0.6588,0.6588,0.6588,0.6588,0.6588,0.7074,0.767,0.767,0.8156,0.8804,0.8804,0.8804,0.8804,0.8804,0.8804,0.8804,0.8804,0.8804,0.8804,0.8804,0.8804,0.8804,0.8804,0.8804,0.8804,0.8804,0.8804,0.8804,0.8804,0.8804,0.8804,0.8804,0.8804,0.8804,0.8804,0.8804,0.8804,0.8804,0.8804,0.8804,0.8804,0.8804,0.8804,0.8804,0.8811,0.9072,0.9653,0.996,1.0254,1.0611,1.0624,1.0624,1.0624,1.2151,1.3009,1.3009,1.3009,1.3009,1.3009,1.3009,1.3009,1.3009,1.3009,1.2512,1.1834,1.2634,1.2035,1.0681,1.1469,1.1288,1.0681,1.1531,1.1764,1.1896,0.1633,0.1481,0.2034,0.4113,0.4518,0.4484,0.4477,0.4473,0.4525,0.4519,0.4519,0.4515,0.4505,0.4673,0.4897,0.5117,0.5546,0.6036,0.6588,0.6804,0.702,0.7235,0.8262,0.8804,0.8804,0.8804,0.8804,0.8804,0.8804,0.8804,0.8804,0.8804,0.854,0.8049,0.8586,0.8533,0.799,0.7777,0.7723,0.7616,0.6357,0.5814,0.5814,0.5814,0.5814,0.5873,0.6421,0.675,0.6912,0.6912,0.7074,0.7235,0.7235,0.7235,0.7343,0.7883,0.8049,0.8156,0.8646,0.8804,0.8804,0.8804,0.8804,0.8804,0.8804,0.8804,0.8804,0.8804,0.8804,0.8804,0.8804,0.8804,0.8804,0.8804,0.8804,0.8804,0.8804,0.8804,0.8804,0.8804,0.8804,0.8804,0.8804,0.8804,0.8804,0.8804,0.9192,0.9586,0.9967,1.0267,1.053,1.0618,1.0624,1.0624,1.0624,1.1052,1.1296,1.1296,1.1296,1.16,1.2143,1.16,1.16,1.2143,1.1538,1.117,1.0989,1.1233,1.1052,1.0624,1.0863,1.08,1.0624,1.0863,1.0989,1.0989,0.0,0.0,0.0571,0.2411,0.2738,0.2734,0.273,0.3744,0.4484,0.4477,0.4477,0.4473,0.4525,0.4525,0.4522,0.4519,0.4897,0.5273,0.5714,0.6041,0.6145,0.6145,0.7289,0.8049,0.8374,0.8646,0.8804,0.8804,0.8804,0.8804,0.8804,0.848,0.8103,0.7723,0.7883,0.767,0.7235,0.6961,0.6848,0.674,0.5546,0.5109,0.5109,0.5109,0.5109,0.5167,0.5605,0.5932,0.6145,0.6145,0.6367,0.6588,0.6588,0.6588,0.675,0.7509,0.7723,0.7883,0.8586,0.8804,0.8804,0.8804,0.8804,0.8804,0.8804,0.8804,0.8804,0.8804,0.8804,0.8804,0.8804,0.8804,0.8804,0.8804,0.8804,0.8804,0.8804,0.8804,0.8804,0.8804,0.8804,0.8804,0.8804,0.8804,0.8851,0.8971,0.9419,0.9813,1.01,1.0401,1.0624,1.0624,1.0624,1.0624,1.0624,1.0624,1.0624,1.0624,1.0624,1.0863,1.1288,1.0807,1.0863,1.1288,1.08,1.0624,1.0624,1.0624,1.0624,1.0624,1.0624,1.0624,1.0624,1.0624,1.0624,1.0624,0.0,0.0,0.0,0.0,0.0,0.0,0.0,0.2345,0.4098,0.4095,0.4324,0.4494,0.4484,0.448,0.4477,0.4522,0.4522,0.4522,0.4519,0.5058,0.5433,0.5433,0.6091,0.6799,0.7503,0.8209,0.8586,0.8586,0.8586,0.8586,0.8593,0.7937,0.7557,0.7503,0.6858,0.6588,0.648,0.576,0.5487,0.5433,0.4787,0.4519,0.4519,0.4519,0.4519,0.4519,0.4519,0.4893,0.5433,0.5433,0.5873,0.6421,0.6421,0.6421,0.6588,0.7343,0.7616,0.7777,0.8593,0.8804,0.8804,0.8804,0.8804,0.8804,0.8804,0.8804,0.8804,0.8804,0.8804,0.8804,0.8804,0.8804,0.8804,0.8804,0.8804,0.8804,0.8804,0.8804,0.8804,0.8804,0.8804,0.8804,0.8804,0.8831,0.8965,0.9203,0.9552,0.9846,1.014,1.0414,1.0624,1.0624,1.0624,1.0624,1.0624,1.0624,1.0624,1.0624,1.0624,1.0624,1.0624,1.0624,1.0624,1.0624,1.0624,1.0624,1.0624,1.0624,1.0624,1.0624,1.0624,1.0624,1.0624,1.0624,1.0624,1.0624,0.0,0.0,0.0,0.0,0.0,0.0,0.0,0.0558,0.0949,0.1002,0.3019,0.4494,0.4494,0.4494,0.449,0.449,0.449,0.4484,0.4477,0.4639,0.4743,0.4736,0.5382,0.5814,0.5977,0.6691,0.7074,0.7074,0.7074,0.7074,0.7074,0.6912,0.6529,0.5977,0.6421,0.6258,0.5706,0.5542,0.5487,0.5433,0.4787,0.4519,0.4519,0.4519,0.4519,0.4519,0.4519,0.457,0.4732,0.4732,0.4846,0.4952,0.4952,0.4952,0.5226,0.6475,0.6858,0.7128,0.8427,0.8804,0.8804,0.8804,0.8804,0.8804,0.8804,0.8804,0.8804,0.8804,0.8804,0.8804,0.8804,0.8804,0.8804,0.8804,0.8804,0.8804,0.8804,0.8804,0.8804,0.8804,0.8804,0.8804,0.8804,0.9011,0.9265,0.9566,0.986,1.0154,1.0448,1.0591,1.0624,1.0624,1.0624,1.0624,1.0624,1.0624,1.0624,1.0624,1.0624,1.0624,1.0624,1.0624,1.0624,1.0624,1.0624,1.0624,1.0624,1.0624,1.0624,1.0624,1.0624,1.0624,1.0624,1.0624,1.0624,1.0624,0.0,0.0,0.0,0.0,0.0,0.0,0.0,0.0,0.0,0.0,0.1398,0.235,0.2348,0.2968,0.3418,0.3413,0.3413,0.3413,0.3408,0.4089,0.4484,0.4525,0.4849,0.5011,0.5003,0.5386,0.5932,0.6588,0.6588,0.6588,0.6588,0.6258,0.5869,0.5487,0.555,0.5386,0.5003,0.5003,0.5007,0.5011,0.4625,0.4522,0.4525,0.4519,0.4519,0.4519,0.4519,0.4519,0.4519,0.4519,0.4519,0.4519,0.4519,0.4519,0.4791,0.6209,0.6588,0.6912,0.8374,0.8804,0.8804,0.8804,0.8804,0.8804,0.8804,0.8804,0.8804,0.8804,0.8804,0.8804,0.8804,0.8804,0.8804,0.8804,0.8804,0.8804,0.8804,0.8804,0.8804,0.8804,0.8804,0.8864,0.9005,0.9097,0.9419,0.9853,1.0027,1.0247,1.0611,1.0624,1.0624,1.0624,1.0624,1.0624,1.0624,1.0624,1.0624,1.0624,1.0624,1.0624,1.0624,1.0624,1.0624,1.0624,1.0624,1.0624,1.0624,1.0624,1.0624,1.0624,1.0624,1.0624,1.0624,1.0624,1.0624,1.0624,0.0,0.0,0.0,0.0,0.0,0.0,0.0,0.0,0.0,0.0,0.0,0.0,0.0,0.1119,0.1846,0.1842,0.184,0.184,0.184,0.3021,0.3866,0.4082,0.4369,0.4477,0.4525,0.4522,0.5066,0.6263,0.6263,0.6263,0.6209,0.5601,0.5324,0.5328,0.4732,0.4519,0.4519,0.4519,0.4525,0.448,0.4187,0.4245,0.4477,0.4525,0.4519,0.4519,0.4519,0.4519,0.4519,0.4519,0.4519,0.4519,0.4519,0.4519,0.4736,0.6041,0.6421,0.6691,0.8049,0.8427,0.8427,0.8427,0.8533,0.8593,0.8593,0.8699,0.8804,0.8804,0.8804,0.8804,0.8804,0.8804,0.8804,0.8804,0.8804,0.8804,0.8804,0.8804,0.8804,0.8804,0.8804,0.8925,0.9157,0.923,0.9539,1.0074,1.0167,1.0301,1.0611,1.0624,1.0624,1.0624,1.0624,1.0624,1.0624,1.0624,1.0624,1.0624,1.0624,1.0624,1.0624,1.0624,1.0624,1.0624,1.0624,1.0624,1.0624,1.0624,1.0624,1.0624,1.0624,1.0624,1.0624,1.0624,1.0624,1.0624,0.0,0.0,0.0,0.0,0.0,0.0,0.0,0.0,0.0,0.0,0.0,0.0,0.0,0.0168,0.028,0.028,0.028,0.028,0.0279,0.0502,0.1172,0.2454,0.3808,0.4494,0.449,0.4484,0.4584,0.4791,0.4791,0.4791,0.4791,0.468,0.4625,0.4625,0.4519,0.4519,0.4519,0.4473,0.4477,0.4366,0.3067,0.3294,0.448,0.4477,0.4525,0.4519,0.4519,0.4519,0.4519,0.4519,0.4519,0.4519,0.4519,0.4519,0.4625,0.5437,0.5651,0.5814,0.6691,0.6912,0.6912,0.6912,0.7396,0.783,0.783,0.8315,0.8804,0.8804,0.8804,0.8804,0.8804,0.8804,0.8804,0.8804,0.8804,0.8804,0.8804,0.8804,0.8804,0.8804,0.8804,0.8925,0.9157,0.9472,0.976,1.0094,1.0354,1.0521,1.0618,1.0624,1.0624,1.0624,1.0624,1.0624,1.0624,1.0624,1.0624,1.0624,1.0624,1.0624,1.0624,1.0624,1.0624,1.0624,1.0624,1.0624,1.0624,1.0624,1.0624,1.0624,1.0624,1.0624,1.0624,1.0624,1.0624,1.0624,0.0,0.0,0.0,0.0,0.0,0.0,0.0,0.0,0.0,0.0,0.0,0.0,0.0,0.0,0.0,0.0,0.0,0.0,0.0,0.0,0.028,0.0949,0.3251,0.4101,0.3244,0.3516,0.391,0.448,0.4473,0.4473,0.4473,0.4473,0.4477,0.448,0.4473,0.4477,0.448,0.4487,0.4494,0.4383,0.3125,0.2899,0.3294,0.4187,0.4522,0.4519,0.4519,0.4519,0.4519,0.4519,0.4519,0.4519,0.4519,0.4519,0.4625,0.5324,0.5487,0.5651,0.6421,0.6588,0.6588,0.6588,0.7128,0.7723,0.7723,0.8262,0.8804,0.8804,0.8804,0.8804,0.8804,0.8804,0.8804,0.8804,0.8804,0.8804,0.8804,0.8804,0.8646,0.8209,0.7901,0.7862,0.8115,0.8368,0.8621,0.8874,0.9064,0.939,0.9849,0.9849,1.011,1.0561,1.0624,1.0624,1.0624,1.0624,1.0624,1.0624,1.0624,1.0624,1.0624,1.0624,1.0624,1.0624,1.0624,1.0624,1.0624,1.0624,1.0624,1.0624,1.0624,1.0624,1.0624,1.0624,1.0624,1.0624]}]]